[[{"header":{"parameterUnit":"m.s-1","parameterCategory":1,"la1":30.6,"la2":28.766,"lo1":-90.7593,"lo2":-88.6598,"dy":0.0162,"dx":0.0183,"nx":116,"ny":114,"refTime":"2024-04-07T18:00:00:Z","depth":0,"parameterNumber":2,"parameterNumberName":"U-component_of_WINDS"},"data":[0.0,0.0,0.0,0.0,0.0,0.0,0.0,0.0,0.0,0.0,0.0,0.0,0.0,0.0,0.0,0.0,0.0,0.0,0.0,0.0,0.0,0.0,0.0,0.0,0.0,0.0,0.0,0.0,0.0,0.0,0.0,0.0,0.0,0.0,0.0,0.0,0.0,0.0,0.0,0.0,0.0,0.0,0.0,0.0,0.0,0.0,0.0,0.0,0.0,0.0,0.0,0.0,0.0,0.0,0.0,0.0,0.0,0.0,0.0,0.0,0.0,0.0,0.0,0.0,0.0,0.0,0.0,0.0,0.0,0.0,0.0,0.0,0.0,0.0,0.0,0.0,0.0,0.0,0.0,0.0,0.0,0.0,0.0,0.0,0.0,0.0,0.0,0.0,0.0,0.0,0.0,0.0,0.0,0.0,0.0,0.0,0.0,0.0,0.0,0.0,0.0,0.0,0.0,0.0,0.0,0.0,0.0,0.0,0.0,0.0,0.0,0.0,0.0,0.0,0.0,0.0,0.0,0.0,0.0,0.0,0.0,0.0,0.0,0.0,0.0,0.0,0.0,0.0,0.0,0.0,0.0,0.0,0.0,0.0,0.0,0.0,0.0,0.0,0.0,0.0,0.0,0.0,0.0,0.0,0.0,0.0,0.0,0.0,0.0,0.0,0.0,0.0,0.0,0.0,0.0,0.0,0.0,0.0,0.0,0.0,0.0,0.0,0.0,0.0,0.0,0.0,0.0,0.0,0.0,0.0,0.0,0.0,0.0,0.0,0.0,0.0,0.0,0.0,0.0,0.0,0.0,0.0,0.0,0.0,0.0,0.0,0.0,0.0,0.0,0.0,0.0,0.0,0.0,0.0,0.0,0.0,0.0,0.0,0.0,0.0,0.0,0.0,0.0,0.0,0.0,0.0,0.0,0.0,0.0,0.0,0.0,0.0,0.0,0.0,0.0,0.0,0.0,0.0,0.0,0.0,0.0,0.0,0.0,0.0,0.0,0.0,0.0,0.0,0.0,0.0,0.0,0.0,0.0,0.0,0.0,0.0,0.0,0.0,0.0,0.0,0.0,0.0,0.0,0.0,0.0,0.0,0.0,0.0,0.0,0.0,0.0,0.0,0.0,0.0,0.0,0.0,0.0,0.0,0.0,0.0,0.0,0.0,0.0,0.0,0.0,0.0,0.0,0.0,0.0,0.0,0.0,0.0,0.0,0.0,0.0,0.0,0.0,0.0,0.0,0.0,0.0,0.0,0.0,0.0,0.0,0.0,0.0,0.0,0.0,0.0,0.0,0.0,0.0,0.0,0.0,0.0,0.0,0.0,0.0,0.0,0.0,0.0,0.0,0.0,0.0,0.0,0.0,0.0,0.0,0.0,0.0,0.0,0.0,0.0,0.0,0.0,0.0,0.0,0.0,0.0,0.0,0.0,0.0,0.0,0.0,0.0,0.0,0.0,0.0,0.0,0.0,0.0,0.0,0.0,0.0,0.0,0.0,0.0,0.0,0.0,0.0,0.0,0.0,0.0,0.0,0.0,0.0,0.0,0.0,0.0,0.0,0.0,0.0,0.0,0.0,0.0,0.0,0.0,0.0,0.0,0.0,0.0,0.0,0.0,0.0,0.0,0.0,0.0,0.0,0.0,0.0,0.0,0.0,0.0,0.0,0.0,0.0,0.0,0.0,0.0,0.0,0.0,0.0,0.0,0.0,0.0,0.0,0.0,0.0,0.0,0.0,0.0,0.0,0.0,0.0,0.0,0.0,0.0,0.0,0.0,0.0,0.0,0.0,0.0,0.0,0.0,0.0,0.0,0.0,0.0,0.0,0.0,0.0,0.0,0.0,0.0,0.0,0.0,0.0,0.0,0.0,0.0,0.0,0.0,0.0,0.0,0.0,0.0,0.0,0.0,0.0,0.0,0.0,0.0,0.0,0.0,0.0,0.0,0.0,0.0,0.0,0.0,0.0,0.0,0.0,0.0,0.0,0.0,0.0,0.0,0.0,0.0,0.0,0.0,0.0,0.0,0.0,0.0,0.0,0.0,0.0,0.0,0.0,0.0,0.0,0.0,0.0,0.0,0.0,0.0,0.0,0.0,0.0,0.0,0.0,0.0,0.0,0.0,0.0,0.0,0.0,0.0,0.0,0.0,0.0,0.0,0.0,0.0,0.0,0.0,0.0,0.0,0.0,0.0,0.0,0.0,0.0,0.0,0.0,0.0,0.0,0.0,0.0,0.0,0.0,0.0,0.0,0.0,0.0,0.0,0.0,0.0,0.0,0.0,0.0,0.0,0.0,0.0,0.0,0.0,0.0,0.0,0.0,0.0,0.0,0.0,0.0,0.0,0.0,0.0,0.0,0.0,0.0,0.0,0.0,0.0,0.0,0.0,0.0,0.0,0.0,0.0,0.0,0.0,0.0,0.0,0.0,0.0,0.0,0.0,0.0,0.0,0.0,0.0,0.0,0.0,0.0,0.0,0.0,0.0,0.0,0.0,0.0,0.0,0.0,0.0,0.0,0.0,0.0,0.0,0.0,0.0,0.0,0.0,0.0,0.0,0.0,0.0,0.0,0.0,0.0,0.0,0.0,0.0,0.0,0.0,0.0,0.0,0.0,0.0,0.0,0.0,0.0,0.0,0.0,0.0,0.0,0.0,0.0,0.0,0.0,0.0,0.0,0.0,0.0,0.0,0.0,0.0,0.0,0.0,0.0,0.0,0.0,0.0,0.0,0.0,0.0,0.0,0.0,0.0,0.0,0.0,0.0,0.0,0.0,0.0,0.0,0.0,0.0,0.0,0.0,0.0,0.0,0.0,0.0,0.0,0.0,0.0,0.0,0.0,0.0,0.0,0.0,0.0,0.0,0.0,0.0,0.0,0.0,0.0,0.0,0.0,0.0,0.0,0.0,0.0,0.0,0.0,0.0,0.0,0.0,0.0,0.0,0.0,0.0,0.0,0.0,0.0,0.0,0.0,0.0,0.0,0.0,0.0,0.0,0.0,0.0,0.0,0.0,0.0,0.0,0.0,0.0,0.0,0.0,0.0,0.0,0.0,0.0,0.0,0.0,0.0,0.0,0.0,0.0,0.0,0.0,0.0,0.0,0.0,0.0,0.0,0.0,0.0,0.0,0.0,0.0,0.0,0.0,0.0,0.0,0.0,0.0,0.0,0.0,0.0,0.0,0.0,0.0,0.0,0.0,0.0,0.0,0.0,0.0,0.0,0.0,0.0,0.0,0.0,0.0,0.0,0.0,0.0,0.0,0.0,0.0,0.0,0.0,0.0,0.0,0.0,0.0,0.0,0.0,0.0,0.0,0.0,0.0,0.0,0.0,0.0,0.0,0.0,0.0,0.0,0.0,0.0,0.0,0.0,0.0,0.0,0.0,0.0,0.0,0.0,0.0,0.0,0.0,0.0,0.0,0.0,0.0,0.0,0.0,0.0,0.0,0.0,0.0,0.0,0.0,0.0,0.0,0.0,0.0,0.0,0.0,0.0,0.0,0.0,0.0,0.0,0.0,0.0,0.0,0.0,0.0,0.0,0.0,0.0,0.0,0.0,0.0,0.0,0.0,0.0,0.0,0.0,0.0,0.0,0.0,0.0,0.0,0.0,0.0,0.0,0.0,0.0,0.0,0.0,0.0,0.0,0.0,0.0,0.0,0.0,0.0,0.0,0.0,0.0,0.0,0.0,0.0,0.0,0.0,0.0,0.0,0.0,0.0,0.0,0.0,0.0,0.0,0.0,0.0,0.0,0.0,0.0,0.0,0.0,0.0,0.0,0.0,0.0,0.0,0.0,0.0,0.0,0.0,0.0,0.0,0.0,0.0,0.0,0.0,0.0,0.0,0.0,0.0,0.0,0.0,0.0,0.0,0.0,0.0,0.0,0.0,0.0,0.0,0.0,0.0,0.0,0.0,0.0,0.0,0.0,0.0,0.0,0.0,0.0,0.0,0.0,0.0,0.0,0.0,0.0,0.0,0.0,0.0,0.0,0.0,0.0,0.0,0.0,0.0,0.0,0.0,0.0,0.0,0.0,0.0,0.0,0.0,0.0,0.0,0.0,0.0,0.0,0.0,0.0,0.0,0.0,0.0,0.0,0.0,0.0,0.0,0.0,0.0,0.0,0.0,0.0,0.0,0.0,0.0,0.0,0.0,0.0,0.0,0.0,0.0,0.0,0.0,0.0,0.0,0.0,0.0,0.0,0.0,0.0,0.0,0.0,0.0,0.0,0.0,0.0,0.0,0.0,0.0,0.0,0.0,0.0,0.0,0.0,0.0,0.0,0.0,0.0,0.0,0.0,0.0,0.0,0.0,0.0,0.0,0.0,0.0,0.0,0.0,0.0,0.0,0.0,0.0,0.0,0.0,0.0,0.0,0.0,0.0,0.0,0.0,0.0,0.0,0.0,0.0,0.0,0.0,0.0,0.0,0.0,0.0,0.0,0.0,0.0,0.0,0.0,0.0,0.0,0.0,0.0,0.0,0.0,0.0,0.0,0.0,0.0,0.0,0.0,0.0,0.0,0.0,0.0,0.0,0.0,0.0,0.0,0.0,0.0,0.0,0.0,0.0,0.0,0.0,0.0,0.0,0.0,0.0,0.0,0.0,0.0,0.0,0.0,0.0,0.0,0.0,0.0,0.0,0.0,0.0,0.0,0.0,0.0,0.0,0.0,0.0,0.0,0.0,0.0,0.0,0.0,0.0,0.0,0.0,0.0,0.0,0.0,0.0,0.0,0.0,0.0,0.0,0.0,0.0,0.0,0.0,0.0,0.0,0.0,0.0,0.0,0.0,0.0,0.0,0.0,0.0,0.0,0.0,0.0,0.0,0.0,0.0,0.0,0.0,0.0,0.0,0.0,0.0,0.0,0.0,0.0,0.0,0.0,0.0,0.0,0.0,0.0,0.0,0.0,0.0,0.0,0.0,0.0,0.0,0.0,0.0,0.0,0.0,0.0,0.0,0.0,0.0,0.0,0.0,0.0,0.0,0.0,0.0,0.0,0.0,0.0,0.0,0.0,0.0,0.0,0.0,0.0,0.0,0.0,0.0,0.0,0.0,0.0,0.0,0.0,0.0,0.0,0.0,0.0,0.0,0.0,0.0,0.0,0.0,0.0,0.0,0.0,0.0,0.0,0.0,0.0,0.0,0.0,0.0,0.0,0.0,0.0,0.0,0.0,0.0,0.0,0.0,0.0,0.0,0.0,0.0,0.0,0.0,0.0,0.0,0.0,0.0,0.0,0.0,0.0,0.0,0.0,0.0,0.0,0.0,0.0,0.0,0.0,0.0,0.0,0.0,0.0,0.0,0.0,0.0,0.0,0.0,0.0,0.0,0.0,0.0,0.0,0.0,0.0,0.0,0.0,0.0,0.0,0.0,0.0,0.0,0.0,0.0,0.0,0.0,0.0,0.0,0.0,0.0,0.0,0.0,0.0,0.0,0.0,0.0,0.0,0.0,0.0,0.0,0.0,0.0,0.0,0.0,0.0,0.0,0.0,0.0,0.0,0.0,0.0,0.0,0.0,0.0,0.0,0.0,0.0,0.0,0.0,0.0,0.0,0.0,0.0,0.0,0.0,0.0,0.0,0.0,0.0,0.0,0.0,0.0,0.0,0.0,0.0,0.0,0.0,0.0,0.0,0.0,0.0,0.0,0.0,0.0,0.0,0.0,0.0,0.0,0.0,0.0,0.0,0.0,0.0,0.0,0.0,0.0,0.0,0.0,0.0,0.0,0.0,0.0,0.0,0.0,0.0,0.0,0.0,0.0,0.0,0.0,0.0,0.0,0.0,0.0,0.0,0.0,0.0,0.0,0.0,0.0,0.0,0.0,0.0,0.0,0.0,0.0,0.0,0.0,0.0,0.0,0.0,0.0,0.0,0.0,0.0,0.0,0.0,0.0,0.0,0.0,0.0,0.0,0.0,0.0,0.0,0.0,0.0,0.0,0.0,0.0,0.0,0.0,0.0,0.0,0.0,0.0,0.0,0.0,0.0,0.0,0.0,0.0,0.0,0.0,0.0,0.0,0.0,0.0,0.0,0.0,0.0,0.0,0.0,0.0,0.0,0.0,0.0,0.0,0.0,0.0,0.0,0.0,0.0,0.0,0.0,0.0,0.0,-4.6659,0.0,0.0,0.0,0.0,0.0,0.0,0.0,0.0,0.0,0.0,0.0,0.0,0.0,0.0,0.0,0.0,0.0,0.0,0.0,0.0,0.0,0.0,0.0,0.0,-5.7273,-5.7901,-5.9006,-5.9081,-5.9533,-6.0663,-6.0211,0.0,0.0,0.0,0.0,-6.0738,-5.991,-5.9759,-6.0311,-5.9483,-5.9232,-5.9458,-5.9483,-5.9056,-5.8278,0.0,0.0,0.0,0.0,0.0,0.0,0.0,0.0,0.0,0.0,0.0,0.0,0.0,0.0,0.0,0.0,0.0,0.0,0.0,0.0,0.0,0.0,0.0,0.0,0.0,0.0,0.0,0.0,0.0,0.0,0.0,0.0,0.0,0.0,0.0,0.0,0.0,0.0,0.0,0.0,0.0,0.0,0.0,0.0,0.0,0.0,0.0,0.0,0.0,0.0,0.0,0.0,0.0,0.0,0.0,0.0,0.0,0.0,0.0,0.0,0.0,0.0,0.0,0.0,0.0,0.0,0.0,0.0,0.0,0.0,0.0,-4.6126,0.0,0.0,0.0,0.0,0.0,0.0,0.0,0.0,0.0,0.0,0.0,0.0,0.0,0.0,0.0,0.0,0.0,0.0,0.0,0.0,0.0,-5.657,-5.7123,-5.77,-5.8428,-5.9408,-5.991,-6.0412,-6.0989,-6.0939,-6.0989,-6.1165,-6.119,-6.1215,-6.1316,-6.0763,-6.0939,-6.1868,-6.0763,-6.0563,-6.1215,-6.1888,-6.1432,-6.0079,-5.8829,0.0,0.0,0.0,0.0,0.0,0.0,0.0,0.0,0.0,0.0,0.0,0.0,0.0,0.0,0.0,0.0,0.0,0.0,0.0,0.0,0.0,0.0,0.0,0.0,0.0,0.0,0.0,0.0,0.0,0.0,0.0,0.0,0.0,0.0,0.0,0.0,0.0,0.0,0.0,0.0,0.0,0.0,0.0,0.0,0.0,0.0,0.0,0.0,0.0,0.0,0.0,0.0,0.0,0.0,0.0,0.0,0.0,0.0,0.0,0.0,0.0,0.0,0.0,-5.1677,-5.1943,-5.4097,-5.3114,-5.2695,-5.2578,-4.9297,-4.7578,-4.7012,-4.6074,0.0,0.0,0.0,0.0,0.0,0.0,0.0,0.0,0.0,0.0,0.0,0.0,0.0,0.0,0.0,0.0,0.0,0.0,0.0,-5.7148,-5.7725,-5.8278,-5.8855,-5.9433,-5.9558,-5.9834,-6.0387,-5.9985,-6.0161,-6.114,-6.119,-6.1416,-6.1893,-6.1341,-6.114,-6.1291,-6.2546,-6.3651,-6.4655,-6.5756,-6.6092,-6.5695,-6.1727,-6.0814,-6.2019,0.0,0.0,0.0,0.0,0.0,0.0,0.0,0.0,0.0,0.0,0.0,0.0,0.0,0.0,0.0,0.0,0.0,0.0,0.0,0.0,0.0,0.0,0.0,0.0,0.0,0.0,0.0,0.0,0.0,0.0,0.0,0.0,0.0,0.0,0.0,0.0,0.0,0.0,0.0,0.0,0.0,-5.3323,-5.2085,0.0,0.0,0.0,0.0,0.0,0.0,0.0,0.0,0.0,0.0,0.0,0.0,0.0,-5.122,-5.1867,-5.3271,-5.3784,-5.347,-5.4933,-5.526,-5.4565,-5.4791,-5.5078,-5.5371,-5.4512,0.0,-5.0117,-4.8867,0.0,0.0,0.0,0.0,0.0,0.0,0.0,0.0,0.0,0.0,0.0,0.0,0.0,0.0,0.0,0.0,0.0,0.0,0.0,0.0,0.0,-5.893,-5.996,-6.0839,-6.232,-6.2797,-6.1793,-6.237,-6.2295,-6.1215,-6.119,-6.1291,-6.1542,-6.1316,-6.1943,-6.3475,-6.5785,-6.7493,-6.8572,-6.8758,-6.9165,-6.9614,-6.6704,-6.4488,-6.2795,-6.1308,0.0,0.0,0.0,0.0,0.0,0.0,0.0,0.0,0.0,0.0,0.0,0.0,0.0,0.0,0.0,0.0,0.0,0.0,0.0,0.0,0.0,0.0,0.0,0.0,0.0,0.0,0.0,0.0,0.0,0.0,0.0,0.0,0.0,0.0,0.0,0.0,0.0,0.0,0.0,-5.3691,-5.4781,-5.3154,-5.3589,-5.2987,0.0,0.0,0.0,0.0,0.0,0.0,0.0,0.0,0.0,-5.0486,-5.2203,-5.3708,-5.459,-5.584,-5.6875,-5.7715,-5.8672,-5.9062,-5.9004,-5.918,-5.9238,-5.916,-5.8711,-5.7402,-5.5254,-5.2012,-4.9766,-4.8164,0.0,0.0,0.0,0.0,-4.4082,-4.4707,0.0,0.0,0.0,0.0,0.0,0.0,0.0,0.0,0.0,0.0,0.0,0.0,-5.8428,-6.0111,-6.1692,-6.2948,-6.4806,-6.5258,-6.3751,-6.4028,-6.3324,-6.1266,-6.104,-6.0964,-6.0964,-6.1793,-6.3525,-6.6137,-6.9074,-7.1116,-7.2376,-7.2105,-7.2432,-7.3071,-7.1405,-6.8629,-6.4961,-6.3435,-6.1629,-5.9705,0.0,0.0,0.0,0.0,0.0,0.0,0.0,0.0,0.0,0.0,0.0,0.0,0.0,0.0,0.0,0.0,0.0,0.0,0.0,0.0,0.0,0.0,0.0,0.0,0.0,0.0,0.0,0.0,0.0,0.0,0.0,0.0,0.0,0.0,0.0,0.0,0.0,-5.5025,-5.6118,-5.3623,-5.4577,-5.3784,0.0,0.0,0.0,0.0,0.0,0.0,-4.9312,-5.041,-5.2031,-5.4297,-5.5644,-5.6992,-5.8379,-5.9121,-6.0332,-6.1894,-6.2012,-6.2363,-6.2871,-6.2988,-6.2715,-6.2187,-6.1894,-6.1035,-5.9473,-5.5058,-5.2285,-5.0625,-4.8457,-4.7422,-4.7129,-4.6914,-4.7168,-4.7734,0.0,0.0,0.0,0.0,0.0,0.0,0.0,0.0,0.0,0.0,0.0,-5.8453,-6.0035,-6.2195,-6.4178,-6.576,-6.5559,-6.5509,-6.5911,-6.3099,-6.1316,-6.119,-6.0663,-6.0362,-6.0362,-6.345,-6.6187,-6.8447,-7.1761,-7.4182,-7.5783,-7.6366,-7.6614,-7.6508,-7.484,-7.2905,-7.0422,-6.6228,-6.4407,-6.3976,-5.9803,0.0,0.0,0.0,0.0,0.0,0.0,0.0,0.0,0.0,0.0,0.0,0.0,0.0,0.0,0.0,0.0,0.0,0.0,0.0,0.0,0.0,0.0,0.0,0.0,0.0,0.0,0.0,0.0,0.0,0.0,0.0,0.0,0.0,0.0,0.0,0.0,0.0,0.0,-5.2765,-5.6758,0.0,0.0,0.0,0.0,-4.9785,-5.0258,-5.1131,-5.2402,-5.4101,-5.6191,-5.8769,-6.0098,-6.1601,-6.334,-6.375,-6.4023,-6.414,-6.4551,-6.4551,-6.4258,-6.4648,-6.4375,-6.3574,-6.3574,-6.2812,-6.1308,-5.7793,-5.5586,-5.4199,-5.2031,-5.1152,-5.1055,-5.0254,-5.0469,-5.1133,0.0,0.0,0.0,0.0,0.0,-5.2804,-5.3155,-5.3833,-5.4637,-5.5566,-5.7298,-5.9332,-6.1667,-6.4881,-6.7518,-6.9175,-7.0129,-7.0104,-6.8874,-6.6011,-6.4028,-6.3324,-6.1391,-6.1316,-6.3475,-6.5735,-6.8874,-7.2891,-7.5477,-7.7987,-8.0285,-7.9731,-7.9878,-8.0429,-7.8408,-7.6696,-7.4968,-6.9569,-6.6003,-6.3521,-6.0615,-5.8193,0.0,0.0,0.0,0.0,0.0,0.0,0.0,0.0,0.0,0.0,0.0,0.0,0.0,0.0,0.0,0.0,0.0,0.0,0.0,0.0,0.0,0.0,0.0,0.0,0.0,0.0,0.0,0.0,0.0,0.0,0.0,0.0,0.0,0.0,0.0,0.0,0.0,-5.8973,-5.9842,0.0,-5.4036,-5.2566,-5.2119,-5.2536,-5.3485,-5.5156,-5.7558,-5.8769,-6.0508,-6.2812,-6.332,-6.4258,-6.5703,-6.5879,-6.6113,-6.6348,-6.6504,-6.6211,-6.5527,-6.5703,-6.5469,-6.4902,-6.4609,-6.4082,-6.3223,-6.1152,-5.8906,-5.6523,-5.4355,-5.3359,-5.3027,-5.2441,-5.2598,-5.3125,0.0,0.0,0.0,0.0,-5.1724,-5.2302,-5.2854,-5.3532,-5.4386,-5.5516,-5.7926,-6.0738,-6.3902,-6.7693,-7.0832,-7.2866,-7.3544,-7.3067,-7.1209,-6.7618,-6.5057,-6.3952,-6.2144,-6.2647,-6.5785,-6.8597,-7.2113,-7.6356,-7.8741,-8.0946,-8.2911,-8.1708,-8.1577,-8.218,-8.0307,-7.9092,-7.8123,-7.3555,-6.9214,-6.5221,-6.2384,-6.0291,-5.8488,0.0,0.0,0.0,0.0,0.0,0.0,0.0,0.0,0.0,0.0,0.0,0.0,0.0,0.0,0.0,0.0,0.0,0.0,0.0,0.0,0.0,0.0,0.0,0.0,0.0,0.0,0.0,0.0,0.0,0.0,0.0,0.0,0.0,0.0,0.0,-6.2053,-6.2421,-6.2478,-6.0868,-5.6718,-5.5884,-5.5723,-5.6152,-5.7519,-5.9394,-6.1816,-6.2754,-6.4082,-6.5976,-6.6152,-6.668,-6.75,-6.75,-6.75,-6.75,-6.75,-6.7148,-6.6445,-6.6445,-6.6211,-6.5762,-6.5351,-6.4824,-6.4199,-6.3047,-6.1328,-5.9199,-5.7344,-5.6367,-5.5937,-5.5644,-5.5644,-5.5762,0.0,0.0,0.0,-5.1172,-5.1724,-5.2277,-5.2829,-5.3833,-5.4913,-5.6068,-5.9131,-6.2697,-6.6614,-7.0531,-7.3971,-7.6758,-7.5427,-7.3971,-7.2891,-6.7568,-6.3977,-6.2923,-6.2973,-6.4329,-6.7166,-7.2012,-7.5879,-7.8641,-8.1378,-8.3069,-8.3571,-8.2339,-8.175,-8.1768,-8.0612,-8.0036,-7.9916,-7.7799,-7.4216,-6.9598,-6.527,-6.3779,-6.361,0.0,0.0,0.0,0.0,0.0,0.0,0.0,0.0,0.0,0.0,0.0,0.0,0.0,0.0,0.0,0.0,0.0,0.0,0.0,0.0,0.0,0.0,0.0,0.0,0.0,0.0,0.0,0.0,0.0,0.0,0.0,0.0,0.0,-6.0243,-6.306,-6.4391,-6.2792,-6.4554,-6.3688,-5.8031,-5.9765,-6.1094,-6.0664,-6.2226,-6.373,-6.4941,-6.582,-6.6855,-6.8144,-6.8594,-6.8808,-6.8808,-6.8808,-6.8359,-6.75,-6.75,-6.7265,-6.6875,-6.6875,-6.6621,-6.6211,-6.5762,-6.5117,-6.4258,-6.3398,-6.2754,-6.2246,-6.0918,-6.0156,-5.9805,-5.9746,-5.9473,-5.8965,0.0,0.0,-5.0117,-5.1122,-5.1398,-5.1825,-5.2779,-5.3181,-5.4059,-5.5968,-5.9458,-6.3576,-6.8246,-7.2941,-7.6858,-7.9645,-7.6908,-7.4875,-7.4573,-6.7869,-6.3927,-6.4002,-6.5961,-6.8899,-7.2891,-7.5477,-7.8365,-8.1528,-8.3085,-8.4131,-8.4672,-8.428,-8.3894,-8.3454,-8.2264,-8.1401,-8.0493,-7.9531,-7.7919,-7.5515,-7.0128,-6.6424,-6.3827,0.0,0.0,0.0,0.0,0.0,0.0,0.0,0.0,0.0,0.0,0.0,0.0,0.0,0.0,0.0,0.0,0.0,0.0,0.0,0.0,0.0,0.0,0.0,0.0,0.0,0.0,0.0,0.0,0.0,0.0,0.0,-6.1013,-6.4115,-6.5173,-6.5309,-6.6183,-6.8606,-6.721,-6.5479,-6.3929,-6.4668,-6.5078,-6.4648,-6.5644,-6.6406,-6.6797,-6.7324,-6.7832,-6.8183,-6.8301,-6.8359,-6.8359,-6.8359,-6.8066,-6.75,-6.75,-6.7265,-6.6875,-6.6875,-6.6621,-6.6211,-6.6094,-6.541,-6.4258,-6.373,-6.3047,-6.2187,-6.0625,-5.9922,-5.9648,-5.8379,-5.7656,-5.7265,0.0,-4.959,-4.9866,-5.077,-5.1122,-5.1574,-5.2452,-5.2955,-5.3959,-5.5942,-6.0186,-6.4756,-6.93,-7.4021,-7.7712,-7.9796,-7.6657,-7.4046,-7.2891,-6.7518,-6.4705,-6.5484,-6.8848,-7.2464,-7.618,-7.8591,-8.0951,-8.3361,-8.4491,-8.5169,-8.5496,-8.4926,-8.4635,-8.4466,-8.3285,-8.252,-8.2032,-8.131,-8.0613,-7.9675,-7.537,-7.1835,-6.8733,-6.527,-6.3466,-6.2552,-6.082,-6.0628,-6.0917,-5.9161,0.0,0.0,0.0,0.0,0.0,0.0,0.0,0.0,0.0,0.0,0.0,0.0,0.0,0.0,0.0,0.0,0.0,0.0,0.0,0.0,0.0,0.0,0.0,0.0,-6.5221,-6.8949,-7.157,-6.9374,-6.886,-7.2211,-6.9088,-6.6914,-6.7265,-6.7383,-6.7324,-6.709,-6.75,-6.7851,-6.8027,-6.8301,-6.8594,-6.8984,-6.9004,-6.9004,-6.9004,-6.8808,-6.8418,-6.7773,-6.7383,-6.709,-6.6875,-6.6504,-6.6289,-6.6211,-6.582,-6.5176,-6.4258,-6.3672,-6.2988,0.0,0.0,0.0,0.0,0.0,-5.75,-5.7109,0.0,-4.959,-4.9766,-5.0318,-5.0896,-5.1473,-5.2026,-5.3005,-5.431,-5.5993,-6.104,-6.586,-6.9501,-7.3895,-7.7059,-7.8239,-7.5201,-7.2062,-6.9351,-6.6965,-6.6338,-6.7844,-7.1987,-7.5552,-7.839,-8.1403,-8.3487,-8.4592,-8.5596,-8.6098,-8.6174,-8.5048,-8.4817,-8.5081,-8.3881,-8.3567,-8.3836,-8.2898,-8.2489,-8.2345,-8.0324,-7.8136,-7.5563,-7.0681,-6.9262,-6.955,-6.6977,-6.5029,-6.3514,-6.2624,0.0,0.0,0.0,0.0,0.0,0.0,0.0,0.0,0.0,0.0,0.0,0.0,0.0,0.0,0.0,0.0,0.0,0.0,0.0,0.0,0.0,0.0,0.0,0.0,-6.943,-7.3518,-7.7944,-7.4629,-7.2419,-7.4661,-7.0522,-6.8077,-6.9178,-6.8664,-6.8359,-6.8418,-6.8359,-6.8476,-6.8867,0.0,0.0,0.0,0.0,-6.9922,-6.9863,-6.9453,-6.8808,-6.8027,-6.7207,-6.6758,-6.6699,-6.5937,-6.5762,-6.5976,-6.5234,-6.4648,-6.4082,-6.3281,-6.2578,-6.1953,-6.1211,-6.0625,-5.998,-5.8828,-5.8086,-5.7715,0.0,-4.959,-4.9766,-5.0318,-5.0896,-5.1473,-5.2026,-5.3005,-5.431,-5.5993,-6.104,-6.5258,-6.7392,-7.1962,-7.5527,-7.7059,-7.3343,-6.9928,-6.7618,-6.7794,-6.9677,-7.3468,-7.6607,-7.9771,-8.296,-8.414,-8.5219,-8.6274,-8.6525,-8.6851,-8.7278,-8.7051,-8.6417,-8.5597,-8.5391,-8.472,-8.3908,-8.3667,-8.3595,-8.3499,-8.2248,-7.9675,-7.6404,-7.4096,-7.2268,-7.0729,-6.8925,-6.9117,-6.9743,-6.664,-6.6111,-6.6208,-6.3105,-6.0796,0.0,0.0,0.0,0.0,0.0,0.0,0.0,0.0,0.0,0.0,0.0,0.0,0.0,0.0,0.0,0.0,0.0,0.0,0.0,-6.8324,-7.311,-7.715,-7.9386,-7.8557,-7.7815,-7.8316,-7.2517,-6.9618,-7.2313,-7.0502,-6.9336,-6.9687,-6.9394,-6.9219,-6.9316,-6.9316,-6.9394,-6.9551,-6.9219,-6.8887,-6.8535,-6.8125,-6.7617,-6.7109,0.0,0.0,-6.582,-6.5644,-6.5254,-6.4707,-6.4883,-6.4297,-6.3262,-6.2715,-6.1426,-5.9824,-5.998,-5.9355,-5.8262,-5.7695,-5.7207,-5.6777,0.0,-4.959,-4.969,-4.9967,-5.0469,-5.1046,-5.1599,-5.2377,-5.3607,-5.5541,-5.9633,-6.3149,-6.5107,-6.8547,-7.1033,-7.1861,-6.9125,-6.7141,-6.6589,-6.915,-7.2665,-7.7109,-8.0223,-8.301,-8.5496,-8.6098,-8.6651,-8.7178,-8.7178,-8.7354,-8.7605,-8.7288,-8.6929,-8.6675,-8.6341,-8.5786,-8.5198,-8.482,-8.4533,-8.422,-8.3427,-8.2032,-8.0156,-7.8016,-7.6212,-7.4697,-7.3639,-7.3086,-7.2532,-7.0368,-6.9502,-6.8877,-6.6472,-6.4452,-6.2528,0.0,0.0,0.0,0.0,0.0,0.0,0.0,0.0,0.0,0.0,0.0,0.0,0.0,0.0,-6.0147,-6.2528,0.0,-6.9093,-7.335,-7.6717,-7.9459,-8.131,-8.0634,-7.9856,-7.9626,-7.4377,-7.1493,-7.3315,-7.1072,-6.9551,-6.9746,-6.9551,-6.9433,-6.9433,-6.9433,-6.9336,-6.916,-6.8926,-6.8594,-6.8183,-6.7734,-6.7265,-6.6875,-6.623,-6.582,-6.5586,-6.4941,-6.4492,-6.4316,-6.4082,-6.3496,-6.2637,-6.2012,-6.0742,-5.918,-5.918,-5.8496,-5.7539,-5.7539,-5.7129,-5.6562,0.0,-4.959,-4.959,-4.959,-5.0042,-5.0619,-5.1197,-5.185,-5.298,-5.4963,-5.8027,-6.0713,-6.2521,-6.468,-6.5961,-6.586,-6.5107,-6.5308,-6.6965,-7.1133,-7.5678,-8.0474,-8.3537,-8.5847,-8.7379,-8.7755,-8.8006,-8.8107,-8.8107,-8.8132,-8.8258,-8.7583,-8.7576,-8.8007,-8.7323,-8.6997,-8.676,-8.6141,-8.5589,-8.5034,-8.4386,-8.398,-8.3667,-8.1479,-8.0012,-7.905,-7.8208,-7.614,-7.3735,-7.3278,-7.1739,-6.9863,-6.9117,-6.7843,-6.6111,-6.3442,-6.1855,0.0,0.0,0.0,0.0,0.0,0.0,0.0,0.0,-5.7213,-5.8343,-6.0869,-6.2432,-6.4404,-6.7939,-7.0368,-7.3302,-7.7655,-7.9627,-8.119,-8.2874,-8.2092,-8.1176,-8.0736,-7.6065,-7.3474,-7.4975,-7.215,-7.0219,-7.0318,-7.0259,-6.9938,-6.9453,-6.9433,-6.9258,-6.8808,-6.875,-6.8476,-6.8066,-6.75,-6.709,-6.6875,-6.5937,-6.541,-6.5293,-6.4199,-6.3789,-6.3906,-6.3105,-6.2461,-6.1894,-6.1074,-6.0,-5.8887,-5.8437,-5.7793,-5.7148,-5.7578,-5.7187,-5.6465,0.0,-4.959,-4.959,-4.959,-5.0042,-5.0619,-5.1197,-5.2176,-5.3281,-5.4486,-5.7148,-5.9006,-5.9257,-6.124,-6.237,-6.1868,-6.3902,-6.6714,-7.0305,-7.4222,-7.9068,-8.4993,-8.7027,-8.8534,-8.9714,-8.9287,-8.9362,-8.9839,-8.9839,-9.009,-9.0542,-8.9948,-8.9739,-8.9697,-8.9156,-8.8628,-8.7986,-8.7391,-8.6765,-8.6182,-8.5082,-8.4317,-8.3836,-8.3042,-8.2417,-8.1623,-7.9699,-7.6982,-7.4336,-7.4264,-7.2845,-7.1162,-7.1498,-7.0849,-6.943,-6.6737,-6.3586,-6.0484,-5.8247,-5.5938,-5.4471,-5.5674,-5.6011,-5.7045,0.0,-6.2167,-6.3153,-6.5342,-6.741,-6.9093,-7.0055,-7.3831,-7.715,-7.8208,-8.0853,-8.2874,-8.3114,-8.3361,-8.3486,-8.3414,-7.7487,-7.5463,-8.0597,-7.6247,-7.3156,-7.3526,-7.3218,-7.198,-6.9565,-6.9433,-6.9258,-6.8808,-6.8476,-6.8027,-6.7558,-6.6738,-6.6523,-6.6855,-6.5586,-6.4824,-6.4433,-6.3926,-6.3281,-6.2539,-6.207,-6.1426,-6.0605,-5.9746,-5.8848,-5.7969,-5.7539,-5.707,-5.6699,-5.7129,-5.6738,-5.6015,0.0,0.0,-4.959,-4.959,-4.9791,-5.0243,-5.1147,-5.1674,-5.2477,-5.3884,-5.5365,-5.642,-5.6746,-5.7901,-5.8278,-5.7399,-6.1341,-6.5634,-6.9853,-7.5276,-8.1051,-8.7178,-8.871,-8.994,-9.1045,-9.0542,-9.0367,-9.0593,-9.0593,-9.0693,-9.0944,-9.0693,-9.0575,-9.0564,-9.0238,-8.9801,-8.9172,-8.8894,-8.8483,-8.7968,-8.7049,-8.6276,-8.5291,-8.3814,-8.1723,-7.9386,-7.7871,-7.5491,0.0,-7.1979,-7.1498,-7.1306,-7.1522,-7.044,-6.8829,-6.7386,-6.4115,-6.0508,-5.8392,-5.6997,-5.6299,-5.6973,-5.856,-6.0628,-6.3322,-6.5077,-6.6881,-6.9598,-7.1619,-7.3639,-7.6044,-7.8112,-8.0012,-8.1791,-8.2898,-8.3595,-8.3595,-8.3763,-8.3451,-8.2248,-7.8394,-7.7162,-8.0532,-7.7254,-7.4968,-7.516,-7.3563,-7.219,-7.0953,-6.9468,-6.8515,-6.8066,-6.789,-6.7441,-6.6738,-6.6152,-6.582,-6.5742,-6.4707,-6.414,-6.3926,-6.3223,-6.2422,-6.1601,-6.1152,-6.0488,-5.9687,-5.9355,-5.8496,-5.7461,-5.7285,-5.6797,-5.6289,-5.6953,-5.668,-5.5937,0.0,0.0,0.0,-4.959,-4.959,-4.9916,-5.0896,-5.1172,-5.1749,-5.308,-5.3758,-5.431,-5.4863,-5.529,-5.5265,-5.4612,-5.8805,-6.355,-6.8447,-7.4724,-8.1102,-8.7529,-8.9287,-9.0794,-9.2225,-9.1798,-9.1697,-9.1848,-9.1848,-9.1848,-9.1848,-9.1522,-9.1547,-9.1848,-9.132,-9.1005,-9.0856,-9.038,-8.9747,-8.9324,-8.8371,-8.7058,-8.5342,-8.3026,-7.9359,-7.5339,-7.4753,-7.2316,-6.9238,-6.7963,-6.7819,-6.8324,-6.8901,-6.8228,-6.7073,-6.6232,-6.2985,-5.9329,-5.779,-5.7478,-5.7838,-5.8872,-6.1301,-6.4043,-6.6352,-6.8324,-7.0536,-7.3687,-7.5394,-7.7174,-8.006,-8.0926,-8.1888,-8.3908,-8.4052,-8.398,-8.4076,-8.3619,-8.2513,-8.0565,-7.8396,-7.7538,-7.8953,-7.7531,-7.6664,-7.6819,-7.5131,-7.383,-7.3081,-7.1276,-7.0079,-6.9722,-6.8945,-6.8188,-6.7314,-6.6036,-6.5234,-6.4941,-6.3965,-6.3515,-6.3457,-6.248,-6.1543,-6.0742,-6.0273,-5.9687,-5.9004,-5.873,-5.8027,-5.7031,-5.6914,-5.6406,-5.584,-5.6465,-5.623,-5.5605,0.0,0.0,0.0,0.0,-4.959,-4.9791,-5.0343,-5.0921,-5.1498,-5.2076,-5.2628,-5.3181,-5.3683,-5.3758,-5.3984,-5.4511,-5.6696,-6.0613,-6.6664,-7.2263,-7.8566,-8.5747,-8.8684,-9.112,-9.3304,-9.3304,-9.3556,-9.4133,-9.4133,-9.4133,-9.4108,-9.3053,-9.3078,-9.4058,-9.2476,-9.2375,-9.3133,-9.1454,-9.0442,-8.9777,-8.8095,-8.5818,-8.3076,-8.0376,-7.538,-7.0033,-7.0492,-6.7314,-6.2793,-6.2239,-6.135,-6.0869,-6.2937,-6.4235,-6.4716,-6.3177,-5.9714,-5.6371,-5.6299,-5.666,-5.7911,-6.1542,-6.4043,-6.6713,-7.0897,-7.2701,-7.4384,-7.7559,-7.8665,-7.9242,-7.9916,-8.1262,-8.2489,-8.3042,-8.3595,-8.4076,-8.4605,-8.2922,-8.1046,-7.9411,-7.7306,-7.6298,0.0,-7.7694,-7.8449,-7.8975,-7.9456,-7.8478,-7.5914,-7.5769,-7.5429,-7.5116,-7.2636,-7.0877,-6.9947,-6.6562,-6.4941,-6.4941,-6.3672,-6.3047,-6.3027,-6.1719,-6.0683,-5.9824,-5.9414,-5.8945,-5.8476,-5.7617,-5.7012,-5.6562,-5.6133,-5.5703,-5.5332,-5.5351,-5.5098,-5.4785,0.0,0.0,0.0,0.0,0.0,-4.9665,-4.9841,-5.0343,-5.1046,-5.1975,-5.2578,0.0,0.0,0.0,0.0,0.0,-5.6194,-5.9709,-6.3952,-7.0104,-7.6004,-8.1378,-8.5671,-8.8609,-9.0065,-9.1195,-9.1848,-9.2024,-9.2802,-9.3129,-9.3129,-9.2401,-9.2626,-9.3631,-9.2375,-9.22,-9.2802,-9.1834,-9.0889,-8.9864,-8.7408,-8.5175,-8.3005,-7.9091,-7.345,-6.7236,0.0,-6.1374,-5.8175,-5.6925,-5.6732,-5.7261,-5.8704,-5.8897,-5.8295,-5.6732,-5.6997,-5.779,-5.779,-5.9738,-6.2456,-6.5486,-6.8348,-7.1162,-7.4024,-7.6044,-7.7607,-7.8689,-7.8473,-7.816,-7.8376,-7.8833,-7.9603,-8.0853,-8.208,-8.2946,-8.3114,-8.22,-8.018,-7.6477,-7.5707,0.0,0.0,0.0,0.0,-8.0079,-7.8837,-7.7778,-7.7583,-7.5924,-7.4988,-7.4857,-7.3684,-7.1752,-6.9279,-6.7453,-6.5589,-6.3672,-6.2637,-6.1875,-6.1289,-6.0566,-5.9922,-5.9355,-5.8945,-5.832,-5.7617,-5.7031,-5.6543,-5.6113,-5.5683,-5.5254,-5.4883,-5.4883,-5.4433,-5.3867,0.0,0.0,0.0,0.0,0.0,0.0,0.0,0.0,0.0,0.0,0.0,0.0,0.0,0.0,0.0,0.0,0.0,-5.7725,-6.0864,-6.5986,-7.0983,-7.5628,-7.9269,-8.188,-8.3412,-8.4315,-8.5144,-8.5922,-8.7429,-8.8534,-8.9312,-8.9387,-9.0015,-9.0969,-9.0291,-9.0542,-9.1321,-9.0618,-8.9538,-8.8032,-8.4667,-8.1717,-7.8748,-7.4045,-6.8302,0.0,-5.8708,-5.5654,-5.3128,-5.2139,-5.2427,-5.3269,-5.3966,-5.3822,-5.3365,-5.3125,-5.5145,-5.7838,-5.9546,-6.2456,-6.5751,-6.8997,-7.1883,-7.4577,-7.6909,-7.8208,-7.8857,-7.8857,-7.7583,-7.6356,-7.5947,-7.5274,-7.5491,-7.7655,-7.8665,-7.9747,-8.131,-8.0397,-7.8449,-7.537,-7.4288,-7.335,0.0,0.0,0.0,-7.9386,-7.867,-7.8392,-7.9232,-7.7971,-7.712,-7.712,-7.5657,-7.3744,-7.1203,-6.9473,-6.7019,-6.3575,-6.2857,-6.1643,-6.0215,-5.9765,-5.9355,-5.8906,-5.8301,-5.7656,-5.6953,-5.6523,-5.6015,-5.5469,-5.5195,-5.4824,-5.4433,-5.4258,-5.3848,-5.3398,0.0,0.0,0.0,0.0,0.0,0.0,0.0,0.0,0.0,0.0,0.0,0.0,0.0,0.0,0.0,0.0,0.0,0.0,-5.7549,-6.0311,-6.3977,-6.8773,-7.0204,-7.1887,-7.4021,-7.3669,-7.4498,-7.6582,-7.8766,-8.0901,-8.296,-8.4014,-8.5094,-8.6123,-8.6098,-8.7002,-8.8509,-8.7354,-8.5922,-8.4064,-7.9721,-7.5427,-7.1033,-6.5685,-6.0651,-5.6153,-5.347,-5.0561,-4.8033,-4.8209,-4.8719,-4.9225,-4.9181,-4.9614,-5.0479,-5.262,-5.4447,-5.6804,-6.1542,-6.4789,-6.7819,-7.1955,-7.4553,-7.6765,-7.929,-7.9074,-7.8304,-7.8088,-7.5899,-7.3663,-7.246,-7.0705,-7.0488,-7.3639,-7.3951,-7.5274,-7.9459,-7.7847,-7.6188,-7.602,-7.335,-7.1667,0.0,0.0,0.0,-7.7246,0.0,-8.0156,-8.0781,-8.1262,-8.1527,-8.1527,-7.8623,-7.6573,-7.5425,-7.2427,-6.8829,-6.4809,-6.4128,-6.2466,-5.9932,-5.9428,-5.8887,-5.8418,-5.7558,-5.6933,-5.6523,-5.6055,-5.539,-5.4668,-5.4629,-5.4355,-5.3945,-5.3496,-5.332,-5.3301,0.0,0.0,0.0,0.0,0.0,0.0,0.0,0.0,0.0,0.0,0.0,0.0,0.0,0.0,0.0,0.0,0.0,0.0,-5.5315,-5.8001,-6.0487,-6.2546,-6.6086,-6.8472,-6.9476,-7.0958,-7.1987,-7.2565,-7.3946,-7.4925,-7.5502,-7.5352,-7.6105,-7.7536,-7.6707,-7.726,-7.8716,-7.7637,-7.6431,-7.5,-7.1811,-6.9351,-6.7179,-6.3785,-5.9985,-5.6278,-5.4794,-5.1537,-4.805,-4.8419,-4.9455,-5.0661,-5.0815,-5.1778,-5.3221,-5.5385,-5.8247,-6.1542,-6.5125,-6.8588,-7.1835,-7.4529,-7.6188,-7.7366,-7.804,-7.7992,-7.7006,-7.424,-7.0921,-6.7723,-6.5077,-6.5438,-6.7049,-6.9863,-7.3518,-7.7078,-8.0156,-8.0012,-7.8689,-7.6308,-7.5298,-7.424,-7.2749,-7.2989,0.0,0.0,-7.7535,-7.8978,-8.0709,-8.0926,-8.1022,-8.1022,-7.9858,-7.7625,-7.4345,-7.0715,-6.8125,-6.664,-6.4449,-6.2701,-6.1264,-5.9466,-5.8301,-5.7519,-5.6973,-5.6504,-5.6035,-5.5312,-5.4883,-5.4609,-5.3965,-5.3633,-5.3476,-5.3047,-5.2676,-5.2402,0.0,0.0,0.0,0.0,0.0,0.0,0.0,0.0,0.0,0.0,0.0,0.0,0.0,0.0,0.0,0.0,0.0,0.0,0.0,-5.5315,-5.6545,-5.7374,-5.9357,-6.0588,-6.0889,-6.1893,-6.2973,-6.4203,-6.5308,-6.6589,-6.8045,-6.797,-6.8572,-6.9727,-6.9803,-7.0506,-7.156,-7.1209,-7.0255,0.0,0.0,-6.355,-6.1788,-5.9098,-5.6451,-5.4081,-5.3226,-5.1407,-4.9618,-5.1004,-5.1861,-5.2478,-5.3325,-5.4768,-5.678,-5.9626,-6.2461,-6.5438,-6.9093,-7.2268,-7.5066,-7.6965,-7.7703,-7.7619,-7.6193,-7.5339,-7.3446,-6.8564,-6.5318,-6.248,-5.9522,-6.0339,-6.2552,-6.5919,-7.032,-7.4745,-7.8833,-7.9386,-7.8978,-7.7895,-7.7342,-7.6404,-7.4721,-7.5058,-7.5755,0.0,-7.7246,-7.8304,-8.0012,-8.0324,-8.0324,-8.0084,-7.9555,-7.7924,-7.4868,-7.222,-7.0121,-6.8637,-6.6533,-6.4832,-6.3249,-6.053,-5.9154,-5.8526,0.0,-5.6055,-5.5605,-5.4941,-5.457,-5.4336,-5.3633,-5.3242,-5.3027,-5.2598,-5.2051,-5.1523,0.0,0.0,0.0,0.0,0.0,0.0,0.0,0.0,0.0,0.0,-5.0519,-5.0619,0.0,0.0,0.0,0.0,0.0,0.0,0.0,0.0,-5.3105,-5.3482,-5.2603,-5.2076,-5.2,-5.1599,-5.2528,-5.4838,-5.5867,-5.7826,-6.0588,-6.1065,-6.1617,-6.222,-6.3626,-6.4605,-6.5258,-6.5735,-6.5082,-6.35,-6.0613,-5.8252,-5.6219,0.0,-5.2277,-5.1297,-5.0579,-5.0679,-5.1565,-5.4373,-5.4985,-5.4917,-5.6833,-5.896,-6.1413,-6.4999,-6.7197,-6.9262,-7.3091,-7.562,-7.7437,-7.8922,-7.8668,-7.7317,-7.4264,-7.2021,-6.8853,-6.2639,-5.9894,-5.7766,-5.5318,-5.589,-5.8247,-6.2624,-6.6592,-7.1138,-7.6982,-7.7871,-7.8449,-7.9916,-7.929,-7.8304,-7.7318,-7.7631,-7.7919,-7.7919,-7.7847,-7.8232,-7.9242,-7.9675,-7.9627,-7.9074,-7.8376,-7.7318,-7.602,-7.4817,-7.3019,-7.0495,-6.9076,-6.7345,-6.5277,-6.2253,-6.0782,-6.0426,-5.7486,0.0,-5.5592,-5.4869,-5.4336,-5.3887,-5.3437,-5.3008,-5.2558,-5.209,-5.1445,-5.0801,0.0,0.0,0.0,0.0,0.0,0.0,0.0,0.0,0.0,0.0,-5.0996,-5.0444,0.0,0.0,0.0,0.0,0.0,0.0,0.0,0.0,0.0,-5.2402,-5.2201,-5.19,-5.1448,-5.1774,-5.1975,-5.2,-5.2653,-5.303,-5.3155,-5.3231,-5.3582,-5.4135,-5.4411,-5.5089,-5.6018,-5.6093,-5.5968,-5.5666,-5.5089,-5.4361,-5.3582,-5.3105,0.0,0.0,-5.0464,-5.0074,-5.0804,-5.5041,-5.7393,-5.9291,-6.2981,-6.5615,-6.7986,-7.1317,-7.3453,-7.5045,-7.6525,-7.7926,-7.8922,-7.92,-7.7822,-7.5773,-7.3448,-6.967,-6.5283,-6.0447,-5.6648,-5.3755,-5.2235,-5.3999,-5.7357,-6.2504,-6.7194,-7.2244,-7.8064,-7.929,-7.9843,-8.0565,-8.0493,-8.0156,-7.9531,-7.9531,0.0,0.0,-7.9146,-7.917,-7.9843,-7.9531,-7.9074,-7.8545,-7.6741,-7.5851,-7.602,-7.4072,-7.2833,-7.2305,-6.8916,-6.6879,-6.6065,-6.3631,-6.2109,-6.1252,-5.9094,0.0,-5.7229,-5.5013,-5.3887,-5.3437,-5.2988,-5.2558,-5.209,-5.1308,-5.0937,-5.0762,0.0,0.0,0.0,0.0,0.0,0.0,0.0,-5.1071,-5.1473,-5.3155,-5.2904,-5.2251,-5.1398,-5.1021,-5.082,0.0,0.0,0.0,0.0,0.0,0.0,-5.1247,-5.1222,-5.0971,-5.0419,-5.067,-5.0946,-5.1272,0.0,-5.0971,-5.1272,-5.067,-5.0544,-5.082,-5.1096,-5.1674,-5.2452,-5.2754,-5.2879,-5.2879,-5.2879,-5.2553,-5.2101,-5.2402,0.0,0.0,-5.0197,-5.0106,-5.118,-5.4785,-5.8409,-6.2149,-6.6809,-7.0102,-7.2789,-7.5428,-7.6802,-7.7727,-7.9767,-8.0405,-8.0632,-8.1333,-7.8442,-7.4521,-7.0672,-6.5942,-6.0868,-5.5479,-5.2574,-5.0717,-4.9733,-5.1826,-5.5049,-5.8993,-6.2961,-6.7939,-7.4889,-7.6332,-7.7799,-8.0853,-8.1407,-8.1407,-8.0878,-8.0805,-8.0709,-8.0421,0.0,-7.9699,-7.9988,-7.893,-7.8232,-7.7968,-7.6188,-7.5226,-7.5202,-7.3903,-7.311,-7.2797,-7.0348,-6.895,-6.8433,-6.5642,-6.3756,-6.2718,-6.064,0.0,-5.8818,-5.6555,-5.5467,-5.5206,-5.3349,-5.2461,-5.1973,-5.1113,-5.0527,-5.0117,0.0,0.0,0.0,0.0,0.0,0.0,-5.2578,-5.2277,-5.2729,-5.529,-5.5516,-5.4863,-5.3331,-5.185,-5.077,0.0,0.0,0.0,0.0,0.0,0.0,0.0,0.0,0.0,-4.9615,0.0,0.0,-5.0921,-5.0142,0.0,0.0,0.0,0.0,0.0,-5.0042,-5.0569,-5.1122,-5.1699,-5.2,0.0,0.0,-5.195,-5.1498,0.0,0.0,0.0,0.0,-5.0268,-5.1373,-5.4386,-5.8199,-6.2539,-6.7313,-7.1935,-7.5848,-7.777,-7.8841,-7.9801,-8.1971,-8.2236,-8.2054,-8.2795,-7.8739,-7.3175,-6.8453,-6.2806,-5.7033,-5.159,-4.9528,-4.8643,-4.8342,-5.018,-5.274,-5.5746,-5.8608,-6.3153,-7.0897,-7.2821,-7.5298,-8.0324,-8.1647,0.0,-8.1647,-8.1575,0.0,-8.0853,0.0,0.0,-7.9843,-7.8376,-7.7535,-7.7414,-7.5875,-7.4793,-7.4264,-7.3639,-7.3086,-7.2629,-7.1474,-7.0657,-7.0103,-6.732,-6.5538,-6.4397,-6.2436,0.0,0.0,-5.8386,-5.7436,-5.7254,-5.4694,-5.319,-5.252,-5.1748,-5.0692,-4.9648,0.0,0.0,0.0,0.0,0.0,0.0,-5.2578,-5.3231,-5.4813,-5.8554,-5.8629,-5.7901,-5.6721,-5.426,-5.1875,0.0,0.0,0.0,0.0,0.0,0.0,0.0,0.0,0.0,0.0,0.0,0.0,-4.9741,-5.0142,0.0,0.0,0.0,0.0,0.0,0.0,-4.9967,-5.0544,-5.1122,0.0,0.0,0.0,0.0,0.0,0.0,0.0,0.0,0.0,-5.0092,-5.0318,-5.411,-5.6746,-5.8954,-6.2415,-6.9248,-7.618,-7.746,-7.9968,-8.2335,-8.26,-8.2512,-8.2377,-8.2084,-7.7067,-7.1468,-6.84,-6.1895,-5.543,-5.1886,-4.932,-4.7962,-4.9016,-4.9733,-5.1441,-5.5554,-5.7694,-6.1253,-6.8276,-7.1354,-7.4312,-7.8208,0.0,0.0,-8.1575,-8.1575,0.0,0.0,0.0,0.0,-7.9242,-7.8208,-7.7366,-7.6885,-7.5322,-7.4264,-7.3735,-7.2701,-7.2172,-7.2124,-7.0584,-6.955,-6.9021,-6.8253,-6.7295,-6.6196,-6.4542,0.0,0.0,-5.9806,-5.8573,-5.856,-5.7228,-5.5734,-5.4135,-5.3661,-5.2081,-5.0058,0.0,0.0,0.0,0.0,0.0,0.0,-5.3005,-5.303,-5.4361,-5.8905,-5.9307,-5.9006,-5.8554,-5.6646,-5.3959,-5.0393,0.0,0.0,0.0,0.0,0.0,0.0,0.0,0.0,0.0,0.0,-4.9816,-4.959,-4.9816,0.0,0.0,0.0,0.0,0.0,0.0,-5.0092,-5.0946,-5.1197,0.0,0.0,0.0,0.0,0.0,0.0,0.0,0.0,0.0,0.0,-4.9841,-5.1373,-5.3683,-5.5942,-5.6269,-6.1306,-6.8104,-7.3172,-7.6283,-7.8802,-8.1885,-8.263,-8.2574,-8.2818,-7.7295,-7.1084,-6.8043,-6.116,-5.4422,-5.112,-4.9224,-4.8231,-4.845,-4.884,-4.9806,-5.2043,-5.2549,-5.5037,-6.1734,-6.3586,-6.6929,-7.4168,-7.6645,0.0,0.0,0.0,-8.1238,0.0,0.0,0.0,-7.8713,-7.7992,-7.7198,-7.6356,-7.5106,-7.4192,-7.3663,-7.2893,-7.2364,-7.2051,-7.109,-7.02,-6.9358,-6.8492,-6.753,-6.6496,-6.5847,0.0,0.0,-6.2099,-6.1069,-6.0885,-5.8567,-5.7257,-5.6513,-5.5857,-5.3931,-5.1573,0.0,0.0,0.0,0.0,0.0,-5.0519,-5.3281,-5.3206,-5.4436,-5.8905,-5.9483,-5.9558,-5.9709,-5.7675,-5.5039,-5.1925,-5.0393,0.0,0.0,0.0,0.0,0.0,0.0,0.0,0.0,0.0,-4.959,-4.959,-4.959,-4.9866,0.0,0.0,-4.9891,-5.0393,0.0,0.0,0.0,0.0,0.0,0.0,0.0,0.0,0.0,0.0,0.0,0.0,0.0,0.0,0.0,0.0,0.0,-5.3105,-5.1774,-5.4637,-5.9985,-6.7568,-7.2031,-7.5335,-7.9767,-8.173,-8.2548,-8.2769,-7.7307,-7.0838,-6.7129,-6.0376,-5.3889,-5.0431,-4.9109,-4.8445,-4.8092,-4.8248,-4.8663,-4.9342,-4.9241,-5.1124,-5.6804,-5.8343,-6.1734,-6.955,0.0,-7.4408,0.0,-8.0012,0.0,0.0,0.0,0.0,-7.816,-7.7487,-7.6717,-7.5803,-7.4913,-7.4024,-7.3182,-7.2773,-7.2244,-7.1595,-7.121,-7.0392,-6.919,-6.8276,-6.7362,-6.6472,-6.6328,0.0,0.0,-6.3733,-6.3037,-6.2828,-6.0316,-5.9077,-5.8636,-5.7908,-5.5821,-5.3303,0.0,0.0,0.0,0.0,0.0,-5.0519,-5.3281,-5.4185,-5.5742,-5.9056,-5.9483,-5.9709,-6.0261,-5.6897,-5.4587,-5.4607,-5.1498,0.0,0.0,0.0,0.0,0.0,0.0,0.0,0.0,0.0,-4.959,-4.959,-4.959,-4.9866,-5.0419,-4.9841,-4.9891,-5.0393,0.0,0.0,0.0,0.0,0.0,0.0,0.0,0.0,-5.0368,0.0,0.0,0.0,0.0,0.0,0.0,0.0,0.0,0.0,0.0,-5.082,-5.3607,-6.0814,-6.7618,-7.3418,-7.618,-7.973,-8.2327,-8.1241,-7.6483,-7.0633,-6.5675,-5.9526,-5.379,-4.9933,-4.8837,-4.8445,-4.8092,-4.8026,-4.8064,-4.8286,-4.9181,-5.1153,-5.4904,-5.7718,-6.0772,0.0,0.0,-6.9045,-7.3302,-7.703,0.0,0.0,0.0,0.0,-7.7631,-7.6597,-7.5779,-7.525,-7.4721,-7.3663,-7.21,-7.2076,-7.1546,-7.0488,-7.0488,-6.9671,-6.8107,-6.7554,-6.7001,0.0,0.0,0.0,0.0,-6.4572,-6.405,-6.3954,-6.2921,-6.1629,-6.034,-5.9722,-5.7716,-5.5196,0.0,0.0,0.0,0.0,0.0,0.0,-5.1272,-5.195,-5.3381,-5.6294,-5.7022,-5.7901,-5.9583,-5.6646,-5.4561,-5.4561,-5.1523,0.0,0.0,0.0,0.0,0.0,0.0,0.0,0.0,-4.959,-4.9766,-5.0167,-5.0544,-5.1222,-5.2126,-5.1172,-5.1046,-5.1523,-5.0193,-4.9891,0.0,0.0,0.0,0.0,0.0,-5.0193,-4.9841,0.0,0.0,0.0,0.0,0.0,0.0,0.0,0.0,0.0,0.0,0.0,0.0,-5.4486,-6.0211,-6.5936,-6.8321,-7.0991,-7.2631,-7.1166,-6.7918,-6.4203,-6.0814,-5.6923,-5.3078,-4.9455,-4.9032,-4.8942,-4.7828,-4.8289,-4.9148,-5.0283,-5.0956,-5.2042,-5.4015,-5.7237,0.0,-6.4957,-7.1354,-7.6092,0.0,0.0,0.0,0.0,0.0,0.0,-7.6573,-7.6188,-7.5611,-7.4721,-7.4168,-7.3302,-7.2076,-7.2051,-7.1354,-6.9935,-6.9574,-6.8757,-6.7506,-6.6616,-6.6111,0.0,0.0,0.0,0.0,-6.4404,-6.4115,-6.4067,-6.337,-6.2609,-6.1888,-6.1722,-5.936,-5.6242,0.0,0.0,0.0,0.0,0.0,0.0,-5.0343,-5.0921,-5.1975,-5.3909,-5.4461,-5.5516,-5.77,-5.4988,-5.3331,-5.416,-5.1398,0.0,0.0,0.0,0.0,0.0,0.0,0.0,-4.959,-4.959,-5.0167,-5.1373,-5.1925,-5.298,-5.4461,-5.3557,-5.298,-5.2653,-5.1197,-5.0368,0.0,0.0,0.0,0.0,-5.0117,-4.9891,-4.959,0.0,0.0,0.0,0.0,0.0,0.0,0.0,0.0,0.0,0.0,0.0,0.0,0.0,-5.4687,-5.9031,-6.2471,-6.5509,-6.7229,-6.5689,-6.3493,-6.0914,-5.7775,-5.5017,-5.2223,-4.9199,-4.9032,-4.9072,-4.7894,-4.8223,-4.9026,-4.9987,-5.0591,-5.1343,-5.2716,-5.6155,0.0,-6.4861,0.0,0.0,0.0,0.0,0.0,0.0,0.0,0.0,-7.6068,-7.525,-7.4504,-7.3831,-7.3494,-7.2821,-7.1763,-7.1378,-7.0464,-6.9093,-6.854,-6.7723,-6.6664,-6.5799,-6.5414,0.0,0.0,0.0,0.0,-6.426,-6.4019,-6.3779,-6.3249,-6.2744,-6.2263,-6.2047,-6.0163,-5.779,0.0,0.0,0.0,0.0,0.0,0.0,0.0,-5.0845,-5.1398,-5.1925,-5.2026,-5.2829,-5.4863,-5.2302,-5.1247,-5.3356,-5.1147,0.0,0.0,0.0,0.0,0.0,0.0,0.0,-4.959,-4.964,-5.072,-5.2879,-5.3507,-5.4913,-5.6972,-5.6545,-5.539,-5.3658,-5.2628,-5.1197,-4.959,-4.959,-4.959,-4.959,-4.959,-4.959,0.0,0.0,0.0,0.0,0.0,0.0,0.0,0.0,0.0,0.0,0.0,0.0,0.0,0.0,0.0,0.0,0.0,-6.227,-6.4772,-6.3311,-6.1702,-5.9556,-5.6028,-5.3528,0.0,-4.9051,-4.8837,-4.8812,-4.814,-4.7984,-4.8033,-4.8227,-4.8807,-4.9806,-5.1441,-5.5097,0.0,0.0,-7.0079,0.0,-7.3062,0.0,0.0,0.0,0.0,0.0,-7.5803,-7.3903,-7.2773,-7.2701,-7.2653,-7.2196,-7.1234,-7.02,-6.9142,-6.8059,-6.7458,-6.6616,-6.5582,-6.5053,-6.4813,0.0,0.0,0.0,0.0,-6.4019,-6.3706,-6.3177,-6.272,-6.2191,-6.1614,-6.1133,-6.0267,-5.9402,0.0,0.0,0.0,0.0,0.0,0.0,0.0,0.0,0.0,0.0,-5.1197,-5.1674,-5.2201,-5.1147,-5.0795,0.0,0.0,0.0,0.0,0.0,0.0,0.0,0.0,0.0,-4.959,-5.0017,-5.0896,-5.2302,-5.411,-5.5465,-5.642,-5.7148,-5.6143,-5.3683,-5.303,-5.1574,-4.959,-4.959,-4.959,-4.959,-4.959,-4.959,0.0,0.0,0.0,0.0,-4.959,-4.959,0.0,0.0,0.0,0.0,0.0,0.0,0.0,0.0,-4.9967,-5.0469,-5.1774,0.0,-5.4967,-5.3064,-5.2914,-5.274,0.0,-5.0627,-5.0295,-4.8912,-4.8641,-4.8633,-4.8294,-4.8094,-4.8573,-5.0355,-5.0839,-5.1465,-5.3053,-5.9281,0.0,-7.0969,-7.4841,-7.6597,0.0,0.0,0.0,0.0,0.0,-7.5298,-7.3663,-7.3086,-7.246,-7.1667,-7.1234,-7.0921,-7.0681,-7.0007,-6.8949,-6.7458,-6.652,-6.551,-6.4476,-6.3947,-6.3706,0.0,0.0,0.0,-6.2937,-6.2937,-6.2648,-6.2143,-6.2023,-6.1398,-6.058,-6.0869,-6.0027,-5.88,0.0,0.0,0.0,0.0,0.0,0.0,0.0,0.0,0.0,0.0,-5.0318,-5.0494,-5.0494,-5.0218,-5.0167,0.0,0.0,0.0,0.0,0.0,0.0,0.0,0.0,-4.959,-4.959,-5.0142,-5.1348,-5.3231,-5.4938,-5.657,-5.8102,-5.873,-5.7374,-5.4386,-5.2327,-5.072,-4.959,-4.959,-4.959,-4.959,-4.959,0.0,0.0,0.0,0.0,0.0,-4.959,-4.959,0.0,-5.0193,-5.0368,-5.0368,0.0,0.0,0.0,0.0,-4.959,-4.959,-4.959,-5.0444,-5.098,-4.9476,-4.9693,-5.0116,-4.9271,-4.9282,-4.9264,-4.8698,-4.8445,-4.8255,-4.8216,-4.7955,-4.8318,-5.0011,-5.0572,-5.2235,0.0,0.0,-6.8035,-7.3374,-7.6164,0.0,0.0,0.0,0.0,0.0,0.0,-7.3927,-7.2532,-7.2003,-7.1498,-7.0921,-7.0152,-6.9863,-7.0128,-6.9093,-6.8035,-6.6905,-6.5606,-6.4668,-6.4115,-6.3586,-6.3346,0.0,0.0,0.0,-6.2576,-6.2576,-6.2263,-6.1782,-6.1518,-6.0917,-6.0219,-6.0508,-5.9738,-5.8632,0.0,0.0,0.0,0.0,0.0,0.0,0.0,0.0,0.0,0.0,0.0,0.0,0.0,0.0,0.0,0.0,0.0,0.0,0.0,0.0,0.0,0.0,-4.959,-4.964,-4.9715,-5.0268,-5.18,-5.431,-5.5917,-5.7901,-6.0211,-6.0814,-5.9131,-5.5491,-5.1925,-5.0067,-4.959,-4.959,-4.959,-4.959,-4.959,0.0,0.0,0.0,0.0,0.0,0.0,0.0,0.0,-5.0695,-5.1021,-5.1021,-5.1021,0.0,0.0,0.0,0.0,0.0,-4.9816,-5.0177,-5.0362,-4.9376,-4.942,-4.9644,-4.9107,-4.8772,-4.851,-4.851,-4.8182,-4.7918,-4.7991,-4.801,-4.8238,-4.9107,-5.028,0.0,-6.0676,-6.4668,-6.8709,-7.3711,-7.5779,0.0,0.0,0.0,0.0,0.0,0.0,-7.2508,-7.1859,-7.0969,-7.0416,-7.0248,-6.9382,-6.8997,-6.9214,-6.7843,-6.6929,-6.6472,-6.4885,-6.4115,-6.4115,-6.3586,-6.3298,-6.3225,0.0,0.0,-6.2336,-6.2336,-6.2023,-6.1494,-6.1037,-6.0532,-6.0075,-6.0147,-5.9546,-5.8776,0.0,0.0,0.0,0.0,0.0,0.0,0.0,0.0,0.0,0.0,0.0,0.0,0.0,0.0,0.0,0.0,0.0,0.0,0.0,0.0,0.0,-4.9615,-4.959,-4.9816,-5.0268,-5.0845,-5.1825,-5.3181,-5.7072,-5.9207,-5.9684,-6.2998,-6.1743,-5.6696,-5.4687,-5.2226,-4.959,-4.959,-4.959,-4.959,-4.959,0.0,0.0,0.0,0.0,0.0,0.0,0.0,0.0,-4.9791,-4.9866,-4.9866,-4.9866,0.0,0.0,0.0,0.0,0.0,-5.077,-5.1197,-5.0978,-4.951,-4.9122,-4.9107,-4.8731,-4.8379,-4.8092,-4.8092,-4.7828,-4.7708,-4.8141,-4.937,-5.0383,-5.0983,-5.4135,-5.856,0.0,0.0,-6.9839,-7.335,0.0,0.0,0.0,0.0,0.0,0.0,0.0,-7.2196,-7.0801,-7.056,-7.0079,-6.9166,-6.8997,-6.8276,-6.7001,-6.6737,-6.6568,-6.6472,-6.4885,-6.4115,-6.4115,-6.3586,-6.3105,-6.2696,0.0,-6.2143,-6.1205,-6.1205,-6.0893,-6.0412,-6.0339,-5.9979,-5.957,-6.0003,-5.9786,-5.9209,0.0,0.0,0.0,0.0,0.0,0.0,0.0,0.0,0.0,0.0,0.0,0.0,0.0,0.0,0.0,0.0,0.0,0.0,0.0,-5.0419,-5.082,-5.1774,-5.1272,-5.0795,-5.0419,-5.185,-5.3582,-5.5616,-5.9131,-6.1617,-6.3048,-6.2446,-6.0337,-5.6897,-5.3733,-5.1297,-4.959,-4.959,-4.959,-4.959,0.0,0.0,0.0,0.0,0.0,0.0,0.0,0.0,0.0,0.0,-5.0243,-5.0444,-5.0142,0.0,0.0,0.0,0.0,0.0,-4.9791,-4.9856,-4.9818,-4.9942,-4.9858,-4.9633,-4.9035,-4.8289,-4.7835,-4.8324,-4.8197,-4.8171,-4.8988,-5.0696,-5.2908,-5.5722,-5.8776,-6.2143,-6.6015,-6.8396,-7.0825,0.0,0.0,0.0,0.0,0.0,0.0,0.0,0.0,0.0,-7.0103,-6.9791,-6.9406,-6.8925,-6.8324,-6.7675,-6.6929,-6.6063,-6.5486,-6.5197,-6.4476,-6.3971,-6.3682,-6.3177,-6.2817,-6.2552,0.0,-6.1253,-6.0532,-6.0532,-6.0219,-5.9786,-6.0075,-6.0027,-5.981,-5.9762,-5.9426,-5.8872,0.0,0.0,0.0,0.0,0.0,0.0,0.0,0.0,0.0,0.0,0.0,0.0,0.0,0.0,0.0,0.0,0.0,0.0,0.0,-5.0343,-5.1172,-5.2854,-5.2653,-5.2377,-5.2176,-5.3833,-5.6118,-5.9056,-6.2195,-6.5107,-6.7568,-6.3249,-5.9935,-5.7424,-5.3381,-5.0845,-4.959,-4.959,-4.959,-4.959,0.0,0.0,0.0,0.0,0.0,0.0,0.0,0.0,0.0,0.0,0.0,0.0,0.0,0.0,0.0,-4.9314,-4.8862,-4.8837,-4.9088,-4.8743,-4.8695,-5.0257,-5.0266,-4.9981,-5.0154,-4.9346,-4.8879,-4.9935,-4.9869,-4.9806,-5.0479,-5.2668,-5.589,-6.0532,-6.3081,-6.5414,-6.818,-7.0103,-7.2124,0.0,0.0,0.0,0.0,0.0,0.0,0.0,0.0,0.0,-6.955,-6.9117,-6.8781,-6.854,-6.7723,-6.7097,-6.6737,-6.5654,-6.4909,-6.45,-6.4115,-6.373,-6.3322,-6.2817,-6.2456,-6.2167,-6.1326,-6.0676,-6.0171,-6.0171,-5.9931,-5.9618,-6.0027,-6.0171,-6.0123,-5.9714,-5.9233,-5.8704,0.0,0.0,0.0,0.0,0.0,0.0,0.0,0.0,0.0,0.0,0.0,0.0,0.0,0.0,0.0,0.0,0.0,0.0,0.0,-5.0117,-5.0494,-5.0645,-5.2528,-5.4762,-5.7298,-5.7524,-5.9207,-6.2471,-6.6789,-7.0054,-7.2163,-6.8271,-6.3902,-5.9182,-5.6319,-5.3005,-4.959,-4.959,-4.959,-4.959,-4.959,0.0,0.0,0.0,0.0,0.0,0.0,0.0,0.0,0.0,0.0,0.0,0.0,0.0,-4.9038,-4.9414,-4.9163,-4.8987,-5.0017,-4.9395,-4.878,-5.0122,-4.9553,-4.9523,-5.2548,-5.2476,-5.2114,-5.3825,-5.3774,-5.3293,-5.2908,-5.577,-5.9594,-6.3875,-6.6376,-6.8853,-7.1979,0.0,0.0,0.0,0.0,0.0,0.0,0.0,0.0,0.0,0.0,0.0,-6.9021,-6.8925,-6.8444,-6.7434,-6.7314,-6.6568,-6.5101,-6.5462,-6.563,-6.5582,-6.4091,-6.337,-6.3322,-6.2817,-6.2047,-6.1085,-6.0989,-6.0676,-6.0171,-6.0171,-6.0147,-6.0123,-6.0147,-6.0171,-6.0171,-6.0123,-5.9786,-5.9257,0.0,0.0,0.0,0.0,0.0,0.0,0.0,0.0,0.0,0.0,0.0,0.0,0.0,0.0,0.0,0.0,0.0,0.0,-4.959,-5.0117,-5.1021,-5.2402,-5.3607,-5.5541,-5.8353,-6.0085,-6.3099,-6.7442,-7.156,-7.3092,-7.2113,-6.7216,-6.2446,-5.7826,-5.4361,-5.2201,-5.1096,-5.0042,-5.0193,-5.1071,-5.0017,-4.959,0.0,0.0,0.0,0.0,0.0,0.0,0.0,0.0,-4.8636,-4.8887,-4.851,-4.9038,-4.964,-4.8786,-4.841,-4.8272,-4.8507,-4.8531,-4.8674,-4.9479,-4.9775,-5.0534,-5.2887,-5.3011,-5.3297,-5.5602,-5.6468,-5.6925,-5.7405,-5.945,-6.2143,-6.5366,-6.7963,-7.0464,-7.2989,0.0,0.0,0.0,0.0,0.0,0.0,0.0,0.0,0.0,0.0,0.0,-6.8925,-6.8276,-6.7699,-6.729,-6.664,-6.6015,-6.5414,-6.4957,-6.4572,-6.4235,-6.3971,-6.349,-6.2865,-6.2336,-6.1686,-6.0917,-6.0267,-5.9859,-5.969,-5.969,-5.969,-5.9714,-6.0051,-5.9979,-5.969,-5.969,-5.9137,-5.8416,0.0,0.0,0.0,0.0,0.0,0.0,0.0,0.0,0.0,0.0,0.0,0.0,0.0,0.0,0.0,0.0,0.0,0.0,-4.959,-5.0117,-5.1096,-5.2603,-5.3884,-5.5867,-5.8654,-6.2094,-6.5961,-7.0255,-7.4674,-7.5226,-7.2062,-6.6865,-6.2446,-5.8679,-5.4461,-5.298,-5.3507,-5.1322,-5.1046,-5.195,-5.0268,-4.959,0.0,0.0,0.0,0.0,0.0,0.0,0.0,0.0,-4.8058,-4.8485,-4.8033,-4.8686,-4.9439,-4.846,-4.8184,-4.8046,-4.7408,-4.7541,-4.8026,-4.8674,-4.9601,-5.1148,-5.423,-5.4999,-5.5914,-5.8897,-5.9426,-5.9666,-6.0748,-6.1831,-6.349,0.0,-6.8973,-7.1474,0.0,0.0,0.0,0.0,0.0,0.0,0.0,0.0,0.0,0.0,0.0,0.0,0.0,-6.7771,-6.7121,-6.6785,-6.6087,-6.5534,-6.5197,-6.4163,-6.337,-6.2865,-6.2865,-6.26,-6.2071,-6.1686,-6.1229,-6.0676,-5.9955,-5.9642,-5.9642,-5.9642,-5.9546,-5.9402,-5.9594,-5.945,-5.9137,-5.9137,-5.868,-5.8079,0.0,0.0,0.0,0.0,0.0,0.0,0.0,0.0,0.0,0.0,0.0,0.0,0.0,0.0,0.0,0.0,0.0,0.0,-4.959,-5.0117,-5.0419,-5.0419,-5.3055,-5.5842,-5.8604,-6.3525,-6.7442,-7.0305,-7.5804,-7.6482,-7.2565,-6.8145,-6.4906,-6.2571,-5.7625,-5.6018,-5.6821,-5.3507,-5.2126,-5.1975,-5.0293,-4.9615,-4.9615,0.0,0.0,0.0,0.0,0.0,0.0,0.0,-4.7682,-4.6702,-4.8887,-4.8812,-4.8033,-4.8611,-4.8825,-4.8472,-4.6998,-4.6576,-4.6786,-4.7558,-4.8663,-5.1141,-5.6964,-5.8877,-6.046,-6.4187,-6.2841,-6.135,-6.2432,-6.2624,-6.3634,-6.6761,-6.9526,0.0,0.0,0.0,0.0,0.0,0.0,0.0,0.0,0.0,0.0,0.0,0.0,0.0,0.0,-6.7578,-6.6785,-6.5727,-6.5678,-6.5173,-6.4115,-6.3105,-6.2312,-6.1758,-6.0676,-6.0436,-6.0941,-6.0965,-6.0676,-6.0147,-6.0171,-6.0171,-6.0147,-6.0147,-5.9859,-5.9329,-5.88,-5.8608,-5.8584,-5.8584,-5.8584,-5.8512,0.0,0.0,0.0,0.0,0.0,0.0,0.0,0.0,0.0,0.0,0.0,0.0,0.0,0.0,0.0,0.0,0.0,0.0,-4.959,-4.9741,-5.0017,-5.0393,-5.1975,-5.3231,-5.4059,-5.9709,-6.5911,-7.2615,-7.4649,-7.3042,-6.802,-6.5936,-6.2948,-5.9307,-5.8202,-5.7449,-5.6821,-5.3507,-5.2779,-5.3658,-5.1599,-5.0544,-5.0218,0.0,0.0,0.0,0.0,0.0,0.0,0.0,0.0,0.0,-4.7782,-4.8686,-4.9464,-4.846,-4.846,-4.8472,-4.6998,-4.6996,-4.7582,-4.86,-5.0968,-5.4241,-5.8491,-5.9698,-6.1326,-6.6159,-6.5943,-6.4957,-6.527,-6.5342,0.0,-6.6568,0.0,0.0,0.0,0.0,0.0,0.0,0.0,0.0,0.0,0.0,0.0,0.0,0.0,0.0,0.0,-6.6472,-6.5847,-6.5173,-6.4789,-6.4091,-6.3057,-6.236,-6.1374,-6.0099,-5.9786,-5.969,-5.9859,-6.0243,-5.9907,-5.9089,-5.945,-5.9402,-5.9065,-5.9065,-5.8969,-5.8824,-5.8656,-5.8367,-5.8055,-5.8055,-5.7814,-5.7526,0.0,0.0,0.0,0.0,0.0,0.0,0.0,0.0,0.0,0.0,-4.959,-4.959,0.0,0.0,0.0,-4.959,-4.959,0.0,-4.959,-4.959,-4.9841,-5.0393,-5.1297,-5.2603,-5.4361,-5.9508,-6.4078,-6.7995,-7.0079,-6.8848,-6.4479,-6.4705,-6.35,-6.1215,-6.2421,-6.1843,-5.9809,-5.7173,-5.5591,-5.4762,-5.3206,-5.2101,-5.1448,0.0,0.0,0.0,0.0,0.0,0.0,0.0,0.0,0.0,-4.723,-4.8033,-4.8899,-4.7971,-4.8033,-4.8109,-4.6612,-4.7203,-4.8493,-4.9547,-5.2793,-5.6921,-6.1172,-6.3137,-6.4981,-6.8612,-6.8011,-6.6929,-6.7362,-6.6761,0.0,-6.7314,0.0,0.0,0.0,0.0,0.0,0.0,0.0,0.0,0.0,0.0,0.0,0.0,0.0,0.0,0.0,-6.5799,-6.4957,-6.4019,-6.3875,-6.3201,-6.1951,-6.1205,-6.0339,-5.9378,-5.8752,-5.844,-5.8488,-5.9426,-5.9522,-5.8921,-5.9017,-5.8897,-5.8584,-5.8367,-5.8271,-5.8271,-5.8055,-5.779,-5.7502,-5.7502,-5.7285,-5.7069,0.0,0.0,-4.959,-4.959,0.0,0.0,0.0,0.0,0.0,-4.959,-4.959,-4.959,0.0,0.0,0.0,-4.959,-4.959,-4.959,-4.959,-4.959,-4.9866,-5.0469,-5.1247,-5.3557,-5.765,-6.1165,-6.1642,-5.8956,-6.3525,-6.4329,-6.1692,-6.4153,-6.5584,-6.6212,-6.8346,-6.7467,-6.4254,-6.2245,-5.9006,-5.5189,-5.4687,-5.3858,-5.2929,-5.298,0.0,0.0,0.0,0.0,0.0,0.0,0.0,0.0,-4.7179,-4.7143,-4.7182,-4.7296,-4.7571,-4.7558,-4.62,-4.7405,-4.9396,-5.0833,-5.4724,-5.9588,-6.4831,-6.7939,-7.0007,-7.0873,-6.919,-6.7867,-6.8877,-6.741,-6.6713,0.0,0.0,0.0,0.0,0.0,0.0,0.0,0.0,0.0,0.0,0.0,0.0,0.0,0.0,0.0,0.0,-6.5246,-6.4043,-6.2552,-6.2865,-6.2336,-6.0845,-5.981,-5.9257,-5.9161,-5.7718,-5.7045,-5.7141,-5.8584,-5.9233,-5.9209,-5.868,-5.8464,-5.8416,-5.7935,-5.7742,-5.7694,-5.7213,-5.7021,-5.7021,-5.7021,-5.7021,-5.7021,0.0,0.0,-4.959,-4.959,0.0,0.0,0.0,0.0,-4.959,-4.959,-4.959,-4.959,-4.959,-4.959,0.0,-4.959,-4.959,-4.959,-4.959,-4.959,-5.0042,-5.1046,-5.3281,-5.5164,-5.6545,-5.6972,-5.6445,-5.4938,-6.0286,-6.1492,-5.888,-6.3249,-6.5584,-6.6162,-6.7543,-6.6564,-6.355,-5.883,-5.5742,-5.4059,-5.3934,-5.3507,-5.298,-5.3381,-5.2528,0.0,0.0,0.0,0.0,0.0,0.0,0.0,-4.7606,-4.7732,-4.7682,-4.7282,-4.7358,-4.757,-4.764,-4.851,-5.0328,-5.3884,-5.9384,-6.4686,-6.7554,-6.931,-7.0152,-6.9526,-6.9622,-6.9863,-7.0103,-6.943,-6.8997,0.0,0.0,0.0,0.0,0.0,0.0,0.0,0.0,0.0,0.0,0.0,0.0,0.0,0.0,0.0,-6.4091,-6.3418,-6.2744,-6.1999,-6.1253,-6.0484,-5.9738,-5.9089,-5.8343,0.0,-5.7189,-5.7237,-5.7646,-5.7983,-5.8151,-5.8127,-5.7598,-5.7357,-5.7357,-5.7237,-5.7189,-5.7189,-5.7069,-5.7021,-5.7021,-5.7021,-5.7021,-5.7021,0.0,0.0,0.0,0.0,0.0,0.0,0.0,0.0,-4.9891,-4.9615,-4.959,-4.959,-4.959,-4.959,0.0,0.0,-4.959,-4.959,-4.959,-4.959,-5.0218,-5.1624,-5.3808,-5.4888,-5.4637,-5.4863,-5.4059,-5.2126,-5.5315,-5.6947,-5.7173,-6.1366,-6.4329,-6.6212,-6.8396,-6.6815,-6.2345,-5.996,-5.7223,-5.4587,-5.539,-5.5064,-5.4135,-5.4411,-5.3005,-5.077,-4.9916,0.0,0.0,0.0,0.0,0.0,0.0,0.0,-4.7093,-4.6884,-4.7084,-4.7359,-4.7671,-4.9309,-5.2329,-5.8016,-6.2952,-6.6953,-6.8853,-6.9719,-6.9887,-6.9069,-6.9743,-7.0392,-7.0152,-6.9887,0.0,0.0,0.0,0.0,0.0,0.0,0.0,0.0,0.0,0.0,0.0,0.0,0.0,0.0,0.0,-6.3682,-6.3346,-6.236,-6.1446,-6.0676,-6.0339,-5.969,-5.8632,-5.8367,-5.7935,-5.7381,-5.7141,-5.7165,-5.743,-5.7694,-5.7814,-5.779,-5.7237,-5.7021,-5.7021,-5.7021,-5.7021,-5.7021,-5.7021,-5.7021,-5.7021,-5.7021,-5.7021,-5.7021,0.0,0.0,0.0,0.0,0.0,0.0,0.0,0.0,0.0,-4.9665,-4.959,-4.959,-4.959,-4.959,-4.959,0.0,0.0,0.0,-4.959,-4.9766,-5.0594,-5.2176,-5.3733,-5.4185,-5.3381,-5.3959,-5.3105,-5.072,-5.0996,-5.303,-5.6721,-5.9759,-6.3099,-6.6639,-6.8924,-6.6789,-6.1466,-6.1316,-5.8704,-5.4813,-5.6294,-5.6068,-5.4813,-5.4813,-5.3055,-5.0469,-4.9816,-4.959,-4.9515,-4.9063,0.0,0.0,0.0,0.0,-4.6466,-4.6512,-4.6673,-4.6947,-4.7228,-5.0206,-5.4885,-6.1724,-6.539,-6.7699,-6.9334,-6.9622,-6.943,-6.8997,-6.9671,-7.0152,-6.9526,0.0,0.0,0.0,0.0,0.0,0.0,0.0,0.0,0.0,0.0,0.0,0.0,0.0,0.0,0.0,0.0,-6.2095,-6.2768,-6.1446,-6.0243,-5.9281,-5.9498,-5.9041,-5.7814,-5.7718,-5.7622,-5.7526,-5.6997,-5.678,-5.69,-5.7333,-5.7598,-5.7646,-5.7117,-5.6925,-5.7021,-5.7021,-5.7021,-5.7021,-5.7021,-5.7021,-5.7021,-5.7021,-5.7021,-5.7021,0.0,0.0,0.0,0.0,0.0,0.0,0.0,0.0,0.0,0.0,-4.959,-4.959,-4.959,-4.959,-4.959,-4.959,-4.959,-4.959,-4.959,0.0,0.0,-5.2754,-5.3934,-5.4712,-5.5039,-5.3808,-5.2729,-5.1875,-5.0971,-5.3231,-5.8428,-6.0311,-6.3726,-6.8196,-6.6237,-6.4329,-6.227,-5.7123,-5.3733,-5.19,-5.2603,-5.2754,-5.2553,-5.2553,-5.1975,-5.1021,-4.9967,-4.959,-4.959,-4.9515,-4.9113,0.0,0.0,0.0,-4.6892,-4.6466,-4.6184,-4.6203,-4.7322,-5.1894,-5.7606,-6.272,-6.5654,-6.7699,-6.9334,-6.9334,-6.8997,0.0,-6.9382,-6.9502,0.0,0.0,0.0,0.0,0.0,0.0,0.0,0.0,0.0,0.0,0.0,0.0,0.0,0.0,0.0,0.0,-6.2504,-6.1446,-6.0628,-5.9955,-5.9329,-5.8728,-5.7886,-5.755,-5.7814,-5.7357,-5.69,-5.6444,-5.589,-5.5866,-5.6347,-5.6419,-5.6684,-5.7093,-5.6564,-5.6588,-5.7021,-5.7021,-5.7021,-5.7021,-5.7021,-5.7021,-5.7021,-5.7021,-5.7021,-5.7021,0.0,0.0,0.0,0.0,0.0,0.0,0.0,0.0,0.0,0.0,0.0,-4.959,-4.959,-4.959,-4.959,-4.959,-4.959,-4.959,-4.959,-5.0067,-5.0845,-5.195,-5.2477,-5.2829,-5.308,-5.2377,-5.1574,-5.0695,-5.0193,-5.3432,-6.0111,-6.0839,-6.3852,-6.8497,-6.571,-6.3324,-6.1115,-5.657,-5.3708,-5.2226,-5.2477,-5.2578,-5.2528,-5.2226,-5.1574,-5.0695,-4.9891,-4.9389,-4.9188,-4.949,-4.9012,-4.8234,-4.7983,0.0,0.0,0.0,-4.6406,-4.7159,-5.0069,-5.3351,-5.7187,-6.2336,-6.4837,-6.6448,-6.8372,-6.8396,-6.7915,-6.7626,-6.7747,0.0,0.0,0.0,0.0,0.0,0.0,0.0,0.0,0.0,0.0,0.0,0.0,0.0,0.0,0.0,0.0,0.0,-6.0941,-6.0051,-6.0171,-5.9113,-5.8392,-5.8175,-5.7694,-5.7285,-5.6925,-5.6708,-5.6299,-5.577,-5.5506,-5.5698,-5.6227,-5.5914,-5.6059,-5.6588,-5.666,-5.6804,-5.7021,-5.7021,-5.7021,-5.7021,-5.7021,-5.7021,-5.7021,-5.7021,-5.7021,-5.7021,0.0,0.0,0.0,0.0,0.0,0.0,0.0,0.0,0.0,0.0,0.0,-4.959,-4.959,0.0,0.0,0.0,-4.959,-4.959,-4.959,-4.959,-4.9967,-5.082,-5.0845,-5.0845,-5.0845,-5.0845,-5.0444,-4.959,-5.0017,-5.4135,-6.1617,-6.2019,-6.5258,-7.0556,-6.694,-6.3776,-6.0939,-5.7198,-5.4963,-5.3858,-5.2578,-5.2076,-5.2076,-5.195,-5.1197,-5.0167,-4.9891,-4.9364,-4.8812,-4.9063,-4.8611,-4.7883,-4.7757,-4.7431,0.0,0.0,0.0,-4.7346,-5.0974,-5.2789,-5.4924,-6.0315,-6.2624,-6.4332,-6.6761,-6.6977,-6.6568,0.0,0.0,0.0,0.0,0.0,0.0,0.0,0.0,0.0,0.0,0.0,0.0,0.0,0.0,0.0,0.0,0.0,0.0,0.0,-5.957,-5.8872,-5.9546,-5.8464,-5.7742,-5.7622,-5.7478,-5.7093,-5.6444,-5.6299,-5.6083,-5.5794,-5.553,-5.5698,-5.6203,-5.565,-5.5626,-5.6035,-5.6444,-5.6756,-5.6997,-5.6732,-5.678,-5.6997,-5.6876,-5.69,-5.7021,-5.7021,-5.7021,-5.7021,0.0,0.0,0.0,0.0,0.0,0.0,0.0,0.0,0.0,0.0,0.0,-4.959,-4.959,-4.959,-4.959,-4.959,-4.959,-4.959,-4.959,-4.959,-4.9615,-4.969,-4.969,0.0,-4.969,-4.969,-4.9665,-4.959,-5.1197,-5.5666,-6.2772,-6.4329,-6.915,-7.618,-7.0255,-6.6086,-6.3199,-5.8252,-5.642,-5.642,-5.1674,-4.9766,-4.9891,-5.0921,-5.0619,-4.969,-5.0193,-4.969,-4.8686,-4.8184,-4.7958,-4.7832,-4.733,-4.7093,-4.6968,0.0,0.0,0.0,-4.7866,-4.9107,-5.095,-5.5848,-5.8781,-6.1229,-6.438,0.0,-6.5029,-6.5005,0.0,0.0,0.0,0.0,0.0,0.0,0.0,0.0,0.0,0.0,0.0,0.0,0.0,0.0,0.0,0.0,0.0,0.0,-5.8945,-5.8392,-5.7959,-5.7862,-5.7574,-5.7069,-5.6588,-5.654,-5.6973,-5.6492,-5.6468,-5.6925,-5.589,-5.5698,-5.6203,-5.565,-5.5409,-5.5433,-5.5458,-5.6059,-5.6949,-5.5914,-5.6083,-5.6973,-5.6468,-5.6588,-5.7021,-5.7021,-5.7021,-5.7021,0.0,0.0,0.0,0.0,0.0,0.0,0.0,0.0,0.0,0.0,0.0,0.0,0.0,-4.959,-4.959,-4.959,-4.959,-4.959,-4.959,-4.959,-4.959,-4.959,-4.959,-4.959,-4.959,-4.959,-4.959,-4.959,-5.0193,-5.3984,-6.0738,-6.2395,-6.5986,-7.0932,-6.8396,-6.6714,-6.5333,-5.8177,-5.5064,-5.4612,-5.1423,-5.0569,-5.1122,-5.0469,-5.0393,-5.0594,-5.0067,-4.9414,-4.8786,-4.8937,-4.851,-4.7883,-4.7682,-4.7405,-4.6968,-4.6476,-4.6055,-4.6159,-4.7755,-4.8689,-4.9983,-5.3327,-5.6062,-5.837,-5.9931,-6.1686,-6.2817,-6.2456,0.0,0.0,0.0,0.0,0.0,0.0,0.0,0.0,0.0,0.0,0.0,0.0,0.0,0.0,0.0,0.0,0.0,0.0,0.0,-5.8007,-5.7814,-5.7478,-5.7213,-5.7021,-5.6516,-5.5987,-5.5482,-5.464,-5.4471,-5.4952,-5.4231,-5.4351,-5.5193,-5.4977,-5.5073,-5.5385,-5.5049,-5.5313,-5.5938,-5.5554,-5.5842,-5.6492,-5.6299,-5.6564,-5.7021,-5.7021,-5.7021,-5.7021,0.0,0.0,0.0,-4.959,0.0,-4.959,-4.959,-4.959,-4.959,-4.959,0.0,0.0,0.0,0.0,-4.959,-4.959,-4.959,-4.959,-4.959,-4.959,-4.959,-4.959,-4.959,-4.959,-4.959,-4.9967,-4.9967,-4.959,-5.0519,-5.3607,-5.8704,-6.0763,-6.3902,-6.7719,-6.566,-6.5886,-6.7392,-6.0914,-5.7725,-5.6721,-5.2829,-5.1925,-5.2854,-5.2101,-5.2051,-5.2327,-5.195,-5.0996,-4.9841,-4.9439,-4.8686,-4.7883,-4.7707,-4.728,-4.6717,-4.6305,-4.6055,-4.6215,-4.7047,-4.737,-4.8238,-5.1498,-5.2938,-5.4265,-5.69,-5.8488,-5.9426,0.0,0.0,0.0,0.0,0.0,0.0,0.0,0.0,0.0,0.0,0.0,0.0,0.0,0.0,0.0,0.0,0.0,0.0,0.0,0.0,0.0,-5.7285,-5.7117,-5.6852,-5.6492,-5.6131,-5.5506,-5.4616,-5.4111,-5.3918,-5.4087,-5.375,-5.3942,-5.4592,-5.4423,-5.464,-5.5097,-5.4568,-5.4736,-5.5361,-5.5001,-5.5289,-5.5963,-5.5963,-5.6275,-5.678,-5.6949,-5.7021,-5.7021,-4.959,-4.959,-4.959,-4.9565,-4.959,-4.959,-4.9565,-4.959,-4.959,-4.959,0.0,0.0,0.0,0.0,0.0,-4.9665,-4.9665,-4.964,-4.959,-4.959,-4.959,-4.959,-4.959,-4.959,-4.959,-5.067,-5.0695,-4.959,-5.2251,-5.4712,-5.6947,-5.9684,-6.3299,-6.7292,-6.2496,-6.3651,-6.8949,-6.6112,-6.4379,-6.2973,-5.5792,-5.3632,-5.4813,-5.5767,-5.5516,-5.4762,-5.5817,-5.4486,-5.19,-4.969,-4.856,-4.7958,-4.7294,-4.6778,-4.6266,-4.5878,-4.5625,-4.5497,0.0,0.0,0.0,-5.0234,-4.9417,-4.9084,-5.5265,0.0,-5.4928,0.0,0.0,0.0,0.0,0.0,0.0,0.0,0.0,0.0,0.0,0.0,0.0,0.0,0.0,0.0,0.0,0.0,0.0,0.0,-5.6973,-5.6756,-5.6251,-5.6708,-5.6468,-5.5385,-5.5337,-5.5073,-5.4568,-5.5049,-5.5073,-5.4592,-5.4544,-5.4544,-5.4544,-5.4039,-5.4087,-5.4544,-5.4039,-5.4399,-5.5265,-5.4255,-5.4423,-5.5385,-5.5385,-5.5746,-5.6299,-5.6828,-5.7021,-5.7021,-4.9515,-4.959,-4.9464,-4.9063,-4.9339,-4.9464,-4.9063,-4.9339,-4.959,0.0,0.0,0.0,-4.964,-5.0318,-5.0971,-5.1373,-5.1046,-5.0469,-4.964,-4.959,-4.959,-4.959,-4.959,-4.959,-4.959,-4.9891,-4.9916,-4.959,-4.9967,-5.1272,-5.3507,-5.5064,-5.7499,-6.0663,-6.1266,-6.1793,-6.1969,-5.76,-5.7876,-6.0738,-5.4737,-5.4662,-5.7851,-5.534,-5.5214,-5.6294,-5.5792,-5.539,-5.4863,-5.3432,-5.2327,-5.103,-4.8283,-4.7145,-4.6706,-4.5698,-4.5597,-4.5579,-4.4942,0.0,0.0,0.0,0.0,0.0,-4.8195,-4.9993,-5.185,0.0,0.0,0.0,0.0,0.0,0.0,0.0,0.0,0.0,0.0,0.0,0.0,0.0,0.0,0.0,0.0,0.0,0.0,0.0,-5.6083,-5.5963,-5.6227,-5.5987,-5.5361,-5.4303,-5.3894,-5.3654,-5.351,-5.3269,-5.3437,-5.4015,-5.3269,-5.3125,-5.3485,-5.3341,-5.3365,-5.351,-5.3726,-5.3991,-5.4231,-5.3942,-5.4207,-5.4856,-5.5241,-5.5746,-5.6299,-5.6828,-5.7021,-5.7021,-4.949,-4.959,-4.9565,-4.9464,-4.9916,-5.0193,-4.9866,-5.0092,-5.0218,0.0,0.0,0.0,-5.0293,-5.1699,-5.2402,-5.18,-5.1473,-5.0795,-4.9665,-4.959,-4.959,-4.959,-4.959,-4.959,-4.959,-5.0067,-5.0067,-4.959,-4.9741,-5.0243,-5.1071,-5.2176,-5.3683,-5.5541,-5.6922,-5.7499,-5.7148,-5.2879,-5.426,-5.9081,-5.6545,-5.7549,-6.0362,-5.8805,-5.9131,-6.0387,-5.9734,-5.9433,-5.9031,-5.6997,-5.4637,0.0,-4.8529,-4.7458,-4.7282,-4.6279,-4.618,-4.6266,-4.5392,-4.5306,-4.5415,-4.5521,0.0,0.0,-4.5958,-4.7003,-4.8155,0.0,0.0,0.0,0.0,0.0,0.0,0.0,0.0,0.0,0.0,0.0,0.0,0.0,0.0,0.0,0.0,-5.6059,-5.589,-5.589,-5.5794,-5.5794,-5.5866,-5.5106,-5.4286,-5.3534,-5.3004,-5.274,-5.274,-5.2427,-5.2572,-5.3173,-5.2572,-5.2548,-5.3077,-5.3077,-5.3173,-5.3389,-5.3702,-5.3822,-5.3822,-5.3822,-5.3991,-5.4351,-5.5097,-5.5602,-5.5987,-5.6732,-5.7021,-5.7021,0.0,-4.959,-4.9766,-5.0318,-5.0896,-5.1322,-5.1448,-5.1423,-5.1272,0.0,-5.0594,-5.0795,-5.2051,-5.3733,-5.3959,-5.2,-5.1548,-5.0896,-4.9766,-4.9565,-4.954,-4.959,-4.959,-4.959,-4.959,-5.0569,-5.0594,-4.959,-5.0544,-5.0519,-4.9615,-5.0569,-5.1297,-5.18,-5.1373,-5.2251,-5.3833,-5.1247,-5.2929,-5.7499,-5.9182,-6.0864,-6.2521,-6.3927,-6.4931,-6.5559,-6.5434,-6.4806,-6.355,-6.0136,-5.6093,0.0,0.0,0.0,0.0,-4.7167,-4.7143,-4.7145,-4.6363,-4.5952,-4.6124,-4.7918,-4.5861,0.0,-4.6415,-4.5645,-4.4683,-4.5573,0.0,0.0,0.0,0.0,0.0,0.0,0.0,0.0,0.0,0.0,0.0,0.0,0.0,0.0,-5.5385,-5.5289,-5.5241,-5.5313,-5.5722,-5.5824,-5.5318,-5.4149,-5.335,-5.2958,-5.2452,-5.2115,-5.2115,-5.2163,-5.2259,-5.2379,-5.2307,-5.2548,-5.3077,-5.3077,-5.3317,-5.375,-5.3798,-5.3822,-5.3822,-5.3822,-5.3846,-5.4015,-5.5001,-5.5433,-5.5602,-5.6636,-5.7021,-5.7021,-4.949,-4.959,-4.9766,-5.0318,-5.0896,-5.1574,-5.2477,-5.2226,-5.2528,-5.421,-5.4712,-5.5691,-5.7675,-5.6696,-5.5717,-5.529,-5.3231,-5.1473,-5.0318,-4.9414,-4.9138,-4.9565,-4.959,-4.959,-4.959,-4.9816,-4.9816,-4.959,-4.9364,-4.9364,-4.959,-4.9364,-4.9565,-5.0092,-5.0444,-5.0569,-5.0695,-5.2729,-5.3708,-5.4084,-5.6168,-6.0085,-6.463,-6.4505,-6.566,-6.7191,-6.6287,-6.6112,-6.576,-6.1969,-5.8052,-5.4265,0.0,0.0,0.0,-4.7428,0.0,-4.6904,-4.6426,-4.6399,0.0,0.0,0.0,0.0,-4.4227,-4.4532,-4.5237,0.0,0.0,0.0,0.0,0.0,0.0,0.0,0.0,0.0,0.0,0.0,0.0,0.0,0.0,0.0,-5.5361,-5.4616,-5.4303,-5.4736,-5.4724,-5.4708,-5.4587,-5.3521,-5.2792,-5.2307,-5.1416,-5.1008,-5.1008,-5.1441,-5.2067,-5.2908,-5.2475,-5.2548,-5.3077,-5.3077,-5.3125,-5.3245,-5.3654,-5.3822,-5.3822,-5.3822,-5.4063,-5.452,-5.5145,-5.5674,-5.6155,-5.678,-5.7021,-5.7021,-4.954,-4.9816,-5.0268,-5.1122,-5.1724,-5.2578,-5.3959,-5.416,-5.4536,-5.5666,-5.6771,-5.7549,-5.7826,-5.7123,-5.6068,-5.4687,-5.2804,-5.1222,-5.0092,-4.949,-4.9314,-4.959,-4.959,-4.9866,-5.0419,-4.9891,-4.9866,-5.0444,-4.959,-4.9314,-4.959,-4.9314,-4.9339,-4.9615,-4.9891,-4.9841,-4.9715,-5.1373,-5.2251,-5.2955,-5.7926,-6.1918,-6.5057,-6.6714,-6.8396,-6.9727,-6.8899,-6.7894,-6.6287,-6.1843,-5.888,0.0,0.0,-5.1765,-5.1356,0.0,-4.8969,-4.8363,0.0,0.0,0.0,-4.731,0.0,0.0,0.0,-4.4253,-4.4049,0.0,0.0,0.0,0.0,0.0,0.0,0.0,0.0,0.0,0.0,0.0,0.0,0.0,0.0,0.0,-5.3613,-5.3252,-5.3252,-5.405,-5.3787,-5.3522,-5.3254,-5.262,-5.1886,-5.0871,-5.0371,-5.0111,-4.9902,-5.0407,-5.1081,-5.1874,-5.1874,-5.2307,-5.3077,-5.3077,-5.3197,-5.3437,-5.3437,-5.3582,-5.3798,-5.3558,-5.4063,-5.5025,-5.5289,-5.5578,-5.5914,-5.6732,-5.7021,-5.7021,-4.9565,-4.9967,-5.0619,-5.1749,-5.2477,-5.3482,-5.5139,-5.5767,-5.6219,-5.6646,-5.8052,-5.8554,-5.7298,-5.7198,-5.6394,-5.4361,-5.2402,-5.1071,-5.0594,-4.9841,-4.949,-4.959,-4.959,-5.0017,-5.0946,-5.0067,-5.0042,-5.0946,-5.0042,-4.959,-4.9525,-4.9525,-4.9525,-4.9525,-4.9525,-4.9651,-4.9916,-4.9791,-5.0921,-5.3331,-6.0136,-6.3073,-6.3802,-6.7894,-7.0003,-7.0782,-7.0656,-6.8899,-6.6011,-6.1743,-5.9659,-5.8177,-5.4285,-5.3507,0.0,0.0,0.0,0.0,0.0,0.0,0.0,0.0,0.0,-4.725,0.0,0.0,0.0,0.0,0.0,0.0,0.0,0.0,0.0,0.0,0.0,0.0,0.0,0.0,0.0,0.0,0.0,0.0,0.0,-5.1795,-5.2111,-5.3084,-5.2717,-5.235,-5.1988,-5.1705,-5.1014,-4.9859,-4.9699,-4.9446,-4.9121,-4.968,-5.0283,-5.0932,-5.1368,-5.2115,-5.3056,-5.3103,-5.3293,-5.3654,-5.3341,-5.3437,-5.3798,-5.3389,-5.3966,-5.5121,-5.5313,-5.553,-5.5818,-5.6684,-5.7021,-5.7021,-4.949,-4.964,-5.0042,-5.1172,-5.2226,-5.3482,-5.5139,-5.544,-5.6194,-5.8177,-5.9433,-6.0261,-6.0588,-5.893,-5.8052,-5.8704,-5.416,-5.2051,-5.3884,-5.077,-4.9088,-4.9565,-4.959,-4.9665,-4.9791,-4.9665,-4.9665,-4.9791,-4.9665,-4.9461,-4.9137,-4.9137,-4.9137,-4.9137,-4.9137,-4.9881,-5.1046,-5.0544,-5.2126,-5.5315,-5.8629,-5.9734,-5.991,-6.4756,-6.6664,-6.6965,-6.8396,-6.7417,-6.5258,0.0,-6.1517,-5.9056,0.0,-5.5892,-5.5064,-5.4461,0.0,0.0,0.0,0.0,0.0,0.0,-5.1601,0.0,0.0,0.0,0.0,0.0,0.0,0.0,0.0,0.0,0.0,0.0,0.0,0.0,0.0,0.0,0.0,0.0,0.0,0.0,0.0,-5.0825,-5.0801,-5.1455,-5.1132,-5.1234,-5.18,-5.1185,-5.0769,-5.0578,-4.9946,-4.9523,-4.926,-4.9991,-5.077,-5.1681,-5.1842,-5.2258,-5.2841,-5.2984,-5.3101,-5.3173,-5.3558,-5.3774,-5.3822,-5.375,-5.3846,-5.4087,-5.5025,-5.5987,-5.6852,-5.6973,-5.7021,-5.7021,-4.949,-4.959,-4.9941,-5.1096,-5.1674,-5.2754,-5.5039,-5.7022,-5.8704,-5.9985,-6.0537,-6.1291,-6.2496,-6.0085,-5.8679,-5.9433,-5.5917,-5.3507,0.0,-5.1322,-5.0167,-5.0067,-4.9766,-5.0067,-5.1021,-5.0092,-4.9786,-5.0215,-4.9631,-4.9137,-4.8837,-4.8837,-4.8902,-4.9112,-4.8749,-4.9616,-5.1247,-5.067,-5.1599,-5.3733,-5.647,-5.7273,-5.7575,-6.4806,-6.7769,-6.8045,-6.812,-6.7116,-6.5409,0.0,-6.1441,0.0,0.0,0.0,0.0,0.0,0.0,0.0,0.0,0.0,0.0,0.0,0.0,0.0,-4.8406,0.0,-4.6271,0.0,0.0,0.0,0.0,0.0,0.0,0.0,-4.3675,0.0,0.0,0.0,0.0,0.0,0.0,0.0,0.0,0.0,0.0,0.0,-4.9914,-4.9981,-5.0171,-5.0248,-5.0066,-4.9768,-4.9479,-4.9183,-4.892,-4.9456,-5.0117,-5.0886,-5.1264,-5.1834,-5.2665,-5.2525,-5.2841,-5.3348,-5.303,-5.3269,-5.3798,-5.351,-5.3726,-5.4327,-5.476,-5.5409,-5.6155,-5.678,-5.7021,-5.7021,-4.9414,-4.959,-4.9866,-5.067,-5.1071,-5.2101,-5.4561,-5.6972,-5.893,-6.0136,-6.0136,-6.0914,-6.3199,-6.1014,-5.9985,-6.1416,-5.8453,-5.5892,0.0,0.0,-5.1348,-5.0469,-4.9891,0.0,-5.1239,-5.0087,-4.9666,-5.0132,-4.9339,-4.8772,-4.8445,-4.8445,-4.8576,-4.8812,-4.8969,-5.0099,-5.1815,-5.1622,-5.2641,-5.4536,-5.652,-5.7725,-5.8956,-6.4806,-6.7668,-6.8396,-6.7442,-6.6388,-6.5057,-6.2496,-6.1542,0.0,-5.9156,0.0,0.0,0.0,0.0,0.0,-5.4017,0.0,0.0,0.0,0.0,0.0,0.0,0.0,0.0,0.0,0.0,0.0,0.0,0.0,0.0,0.0,0.0,-4.3953,0.0,0.0,0.0,0.0,0.0,0.0,0.0,0.0,0.0,-4.8561,-4.8655,-4.8689,-4.8809,-4.9287,-4.9516,-4.9267,-4.9137,-4.9007,-4.8902,-4.929,-4.9833,-5.0468,-5.0944,-5.164,-5.2552,-5.225,-5.2595,-5.3278,-5.2962,-5.3203,-5.388,-5.3588,-5.3852,-5.4551,-5.462,-5.4928,-5.5506,-5.6444,-5.69,-5.7021,-4.9289,-4.959,-4.9615,-4.964,-5.0544,-5.185,-5.3507,-5.3833,-5.4913,-5.765,-5.7524,-5.8629,-6.2446,-6.1818,-6.2621,-6.6413,0.0,-5.9583,-6.006,0.0,-5.2151,0.0,0.0,-4.9486,0.0,0.0,-4.8967,-4.8649,-4.86,-4.8379,-4.8026,-4.8026,-4.8026,-4.8123,-5.0166,-5.1828,-5.3172,-5.4191,-5.6701,-6.006,-6.0161,-6.2421,-6.5559,0.0,-6.4354,-6.6137,-6.5584,0.0,0.0,-6.2998,-6.2421,0.0,0.0,0.0,0.0,0.0,0.0,0.0,0.0,0.0,0.0,-5.2664,0.0,0.0,0.0,0.0,-5.0283,0.0,0.0,0.0,0.0,0.0,0.0,-4.4457,0.0,0.0,0.0,0.0,0.0,0.0,0.0,0.0,0.0,0.0,0.0,-4.7394,-4.7283,-4.752,-4.8277,-4.8646,-4.9063,-4.9565,-4.9267,-4.9267,-4.9525,-4.9816,-5.0364,-5.1297,-5.1394,-5.183,-5.2402,-5.2527,-5.2561,-5.2659,-5.369,-5.4157,-5.423,-5.4327,-5.4397,-5.4395,-5.4551,-5.4928,-5.5458,-5.6035,-5.6588,-5.7021,-4.8937,-4.9339,-4.959,-4.959,-4.9916,-5.0845,-5.2879,-5.4411,-5.662,-6.0161,-6.109,-6.3199,-6.7794,-6.7317,-6.7317,0.0,0.0,-6.345,-6.1065,-5.8629,0.0,0.0,0.0,-5.2484,0.0,0.0,0.0,-4.8942,-4.8942,-4.8616,-4.8026,-4.8026,-4.8026,-4.8075,-4.9145,-5.0749,-5.275,-5.4563,-5.6401,-5.8328,0.0,-6.355,-6.6513,0.0,-6.4931,-6.5484,-6.4931,-6.4279,0.0,-6.3475,-6.2772,-6.1943,-6.1567,-6.0914,-6.0161,-5.9433,-5.9106,0.0,0.0,0.0,-5.7874,-5.3472,0.0,0.0,0.0,0.0,0.0,0.0,0.0,0.0,0.0,0.0,-4.6609,-4.6162,-4.5797,0.0,0.0,0.0,0.0,0.0,0.0,0.0,0.0,0.0,0.0,-4.667,-4.6906,-4.7394,-4.7996,-4.8497,-4.9038,-4.9565,-4.9461,-4.9461,-4.959,-4.9636,-5.0212,-5.1272,-5.1314,-5.1822,-5.2723,-5.2551,-5.2614,-5.2985,-5.3441,-5.391,-5.4206,-5.4647,-5.4645,-5.4421,-5.4466,-5.4844,-5.5458,-5.6035,-5.6564,-5.7021,-4.8837,-4.9063,-4.9364,-4.9565,-4.9916,-5.067,-5.2126,-5.4712,-5.76,-6.0713,-6.2948,-6.6011,-7.0581,0.0,-7.0782,0.0,-7.0003,-6.6915,-6.2621,-6.1843,0.0,-5.6646,-5.6018,0.0,0.0,0.0,0.0,0.0,-4.9413,-4.8984,-4.7828,-4.7828,-4.7828,-4.7877,-4.899,-5.0592,-5.2684,-5.5386,-5.7397,0.0,0.0,-6.463,0.0,0.0,-6.5233,-6.5459,0.0,-6.3852,-6.3375,-6.3375,-6.2898,-6.227,-6.2069,-6.1366,-6.0512,-5.9935,-5.9533,-5.9079,-5.8096,-5.8374,0.0,-5.4795,-5.4422,0.0,-5.017,0.0,0.0,0.0,0.0,0.0,0.0,0.0,0.0,-4.7558,-4.6858,0.0,0.0,-4.5147,0.0,0.0,0.0,0.0,0.0,0.0,-4.61,-4.6301,-4.6451,-4.6778,0.0,0.0,-4.8636,-4.8987,-4.9389,-4.959,-4.959,-4.959,-5.0067,-5.0971,-5.1197,-5.1749,-5.2628,-5.2554,-5.2759,-5.3039,-5.3375,-5.3802,-5.4347,-5.4745,-5.4844,-5.4794,-5.4472,-5.4927,-5.5612,-5.5794,-5.6395,-5.7021,-4.8937,-4.8761,-4.8987,-4.9515,-5.0494,-5.1272,-5.1348,-5.4587,-5.7675,-5.9508,-6.3124,-6.7015,-7.0857,-7.1786,-7.2966,-7.505,-7.3268,-6.9978,-6.5157,-6.5258,0.0,0.0,-5.7976,-5.7249,-5.5181,0.0,0.0,0.0,0.0,-4.9514,-4.7617,-4.7545,-4.7497,-4.7593,-4.971,-5.1362,-5.285,-5.6666,-5.9752,-6.227,-6.4957,-6.5735,-6.5233,-6.4655,-6.5107,-6.586,-6.4228,-6.3299,-6.2822,-6.2822,-6.2822,-6.2747,-6.222,-6.1667,-6.0914,-5.9357,-5.9583,-5.9932,-5.7996,-5.855,-5.9028,-5.6647,0.0,0.0,0.0,0.0,-5.5088,0.0,0.0,0.0,0.0,0.0,0.0,0.0,0.0,0.0,0.0,0.0,0.0,0.0,0.0,0.0,0.0,-4.5799,-4.5698,-4.6225,-4.5773,-4.5723,0.0,0.0,-4.7908,-4.7908,-4.9012,-4.959,-4.959,-4.959,-4.9866,-5.0419,-5.0971,-5.1548,-5.2126,-5.2653,-5.2904,-5.2955,-5.3507,-5.4059,-5.4612,-5.4758,-5.516,-5.5558,-5.4794,-5.5078,-5.5974,-5.5612,-5.6131,-5.7021,-4.836,-4.8812,-4.9439,-4.9565,-5.0167,-5.1071,-5.2327,0.0,0.0,0.0,-6.6564,-7.0305,-7.3795,-7.4649,-7.505,-7.5226,-7.4347,0.0,0.0,0.0,0.0,-6.4555,-6.3375,-6.1416,-5.8351,-5.6949,0.0,-5.2643,0.0,-4.9909,-4.964,-4.8452,-4.7762,-4.7569,-4.9301,-5.0562,-5.1718,-5.5952,-5.9628,-6.2747,-6.4279,-6.5057,-6.5183,0.0,-6.4555,-6.5283,-6.3651,-6.2948,-6.2822,-6.2822,-6.2822,-6.2797,-6.2672,-6.2245,-6.1718,-6.1291,-6.1065,-6.0864,-6.0358,-6.0459,-6.0358,-5.8666,-5.7874,-5.6874,0.0,0.0,0.0,0.0,0.0,0.0,0.0,0.0,0.0,0.0,0.0,0.0,0.0,0.0,0.0,-4.5497,0.0,0.0,0.0,-4.5573,-4.5547,-4.5698,-4.5573,-4.5723,0.0,0.0,0.0,-4.7908,-4.9012,-4.959,-4.959,-4.959,-4.9866,-5.0419,-5.0569,-5.1147,-5.2101,-5.2251,-5.2528,-5.298,-5.3934,-5.4436,-5.4637,-5.5519,-5.5728,-5.5558,-5.5386,-5.5755,-5.6455,-5.6535,-5.678,-5.7021,-4.8134,-4.9213,-5.0318,-5.0318,0.0,0.0,-5.426,-5.5892,0.0,-6.2496,-6.684,0.0,-7.2464,-7.4925,-7.6281,-7.5979,-7.5452,0.0,-7.1359,0.0,0.0,-6.7116,-6.6312,-6.4354,-6.1014,-5.8855,0.0,-5.3271,0.0,-5.0001,-4.9363,-4.824,-4.7696,-4.7545,-4.8676,-4.9911,-5.139,-5.5854,-5.9736,-6.2873,-6.3249,-6.3726,0.0,-6.3274,-6.3174,-6.34,-6.2722,-6.2471,-6.2496,-6.2747,-6.2672,-6.2496,-6.2747,-6.2295,-6.1692,-6.1943,-6.1441,-6.0864,-6.1115,-6.0989,-6.0584,-5.9801,-5.9078,-5.8151,-5.6426,-5.69,-5.715,0.0,0.0,0.0,0.0,0.0,0.0,0.0,0.0,0.0,0.0,0.0,0.0,0.0,-4.6075,0.0,0.0,-4.5347,-4.5497,-4.5497,-4.5497,-4.5522,0.0,0.0,0.0,-4.723,-4.9464,-5.0343,-4.9615,-5.0318,-5.0469,-5.0067,-5.0569,-5.1122,-5.1749,-5.2251,-5.2628,-5.298,-5.3833,-5.4336,-5.4708,-5.5491,-5.5847,-5.5902,-5.6154,-5.6548,-5.7029,-5.7418,-5.7418,-5.7259,-4.8234,-4.9841,-5.1348,0.0,0.0,0.0,0.0,-5.775,0.0,-6.1918,0.0,-6.9702,-7.0255,-7.4171,-7.6783,-7.6783,0.0,-7.4598,-7.1133,-7.3117,-7.2414,-6.7919,-6.797,-6.6589,-6.3324,-6.0387,0.0,0.0,0.0,-5.0014,-4.822,-4.7696,-4.7467,-4.7425,-4.7954,-4.9382,-5.162,-5.5906,-5.9448,-6.2169,-6.1893,-6.2169,-6.2672,-6.2195,-6.1743,-6.1466,-6.1943,-6.2069,-6.2094,-6.2647,-6.2496,-6.2195,-6.2672,-6.2169,-6.1492,-6.1969,-6.1366,-6.0663,-6.114,-6.0864,-6.0437,-6.0437,-6.001,-5.928,-5.8023,-5.7672,-5.7622,-5.7622,-5.5605,-5.4156,0.0,0.0,0.0,0.0,0.0,0.0,0.0,0.0,0.0,0.0,0.0,0.0,0.0,0.0,-4.5497,-4.5497,-4.5497,0.0,0.0,0.0,0.0,-4.6451,-4.9916,-5.1172,-4.9941,0.0,-5.1147,-4.9941,-5.077,-5.1197,-5.1322,-5.2352,-5.2904,-5.3055,-5.3582,-5.4135,-5.4712,-5.5265,-5.5817,-5.6346,-5.7,-5.7442,-5.7756,-5.8167,-5.8129,-5.771,-4.8761,-5.0419,-5.1674,0.0,0.0,-5.8478,-6.0663,-6.34,-6.5911,-6.7744,-7.156,-7.4297,-7.4849,-7.5678,-7.6205,-7.6205,-7.6105,0.0,0.0,0.0,0.0,-7.1811,-7.0506,-6.8472,-6.5609,-6.1918,-5.88,0.0,0.0,-5.0284,-4.9315,-4.7911,-4.7109,-4.6872,-4.7401,-4.9179,-5.1919,-5.4658,0.0,-5.888,-6.0111,-6.124,-6.2144,-6.2044,-6.222,-6.2546,-6.2647,-6.2395,-6.2094,-6.2647,-6.2772,-6.2697,-6.2797,-6.2697,-6.2546,-6.2647,-6.222,-6.1743,-6.1843,-6.1466,-6.104,-6.104,-6.0588,-6.0136,-5.9857,-5.9456,-5.913,-5.913,-5.8051,-5.6722,-5.5616,0.0,0.0,0.0,0.0,0.0,0.0,0.0,0.0,0.0,0.0,0.0,0.0,0.0,0.0,0.0,0.0,0.0,0.0,0.0,0.0,0.0,-4.8962,0.0,0.0,0.0,-5.0569,-5.1649,-5.0921,-5.082,-5.1297,-5.195,-5.2729,-5.3607,-5.416,-5.4737,-5.529,-5.5842,-5.6394,-5.6873,-5.755,-5.8076,-5.855,-5.8688,-5.8731,-5.8575,-5.0921,-5.2,-5.3231,0.0,0.0,0.0,0.0,-6.7643,-6.9526,-6.8321,-7.0305,-7.2012,-7.2565,-7.4423,-7.5628,-7.5628,-7.5377,-7.4975,-7.4423,-7.4146,-7.3494,-7.2339,-7.0983,0.0,-6.6162,-6.2295,-5.9004,-5.6275,0.0,0.0,-4.8631,-4.7458,-4.6689,-4.6343,-4.7623,-4.9621,0.0,0.0,0.0,-5.7976,-5.8755,-5.9885,-6.109,-6.0814,-6.0864,-6.119,-6.1768,-6.1617,-6.1266,-6.2119,-6.2395,-6.2395,-6.2395,-6.2195,-6.1969,-6.1969,-6.1567,-6.1065,-6.0788,-6.0713,-6.0663,-6.0387,-6.0085,-5.9885,-5.9885,-5.9684,-5.9483,-5.9483,-5.8403,-5.6771,-5.4511,-5.2126,0.0,0.0,0.0,0.0,0.0,0.0,0.0,0.0,0.0,0.0,0.0,0.0,0.0,0.0,0.0,0.0,0.0,0.0,0.0,0.0,0.0,0.0,0.0,0.0,0.0,-5.0795,-5.0845,-5.1021,-5.1297,-5.2151,-5.2955,-5.3733,-5.431,-5.4888,-5.544,-5.6294,-5.6972,-5.7549,-5.8102,-5.8654,-5.9156,-5.9175,-5.9095,-5.8809,-5.3331,-5.416,0.0,0.0,-6.1341,0.0,-6.6789,-7.033,-7.1686,-6.8773,-6.925,-7.0029,-7.0455,-7.3242,-7.5075,-7.5075,-7.4674,-7.4171,-7.3619,-7.3594,-7.3092,-7.1962,-7.0958,-6.9125,-6.6363,-6.2722,-5.9106,0.0,0.0,0.0,0.0,-4.7288,-4.6811,0.0,0.0,0.0,0.0,0.0,-5.5226,-5.7549,-5.7801,-5.8855,-6.0261,-5.9834,-5.9734,-5.996,-6.0864,-6.0964,-6.0788,-6.1567,-6.1843,-6.1843,-6.1843,-6.1542,-6.1215,-6.1316,-6.0864,-6.0261,-5.9935,-5.9985,-6.0035,-5.9608,-5.9483,-5.9483,-5.9483,-5.9483,-5.9483,-5.9483,-5.8177,-5.6294,-5.3884,-5.2452,0.0,0.0,0.0,0.0,0.0,0.0,0.0,0.0,0.0,0.0,0.0,0.0,0.0,0.0,0.0,0.0,0.0,0.0,0.0,0.0,0.0,-5.1122,-5.0142,0.0,-5.1071,-5.0142,-5.0921,-5.1272,-5.1322,-5.2528,-5.3381,-5.3909,-5.4486,-5.5039,-5.5641,-5.662,-5.7374,-5.7951,-5.8504,-5.9031,-5.9483,-5.9483,-5.9276,-5.8965,0.0,0.0,0.0,0.0,0.0,0.0,-6.7618,-7.0581,-7.2791,-7.2966,-7.3494,-7.3895,-7.3946,-7.4272,-7.4498,-7.4498,-7.4448,-7.4171,-7.3619,-7.3594,-7.3092,-7.1962,-7.1334,-6.9727,-6.6965,-6.4078,-6.0462,0.0,0.0,0.0,0.0,0.0,0.0,0.0,0.0,0.0,0.0,-5.2398,-5.429,-5.647,-5.7474,-5.8855,-6.0311,-6.0261,-6.0563,-6.104,-6.114,-6.1466,-6.1793,-6.1391,-6.1266,-6.1266,-6.1266,-6.1215,-6.1291,-6.1793,-6.1165,-6.0412,-6.0889,-6.0311,-5.9558,-5.9508,-5.9483,-5.9483,-5.9483,-5.9483,-5.9483,-5.9483,-5.8177,-5.6646,-5.539,-5.3858,-5.2427,0.0,0.0,0.0,0.0,0.0,0.0,0.0,0.0,0.0,0.0,-4.5347,0.0,0.0,0.0,0.0,0.0,0.0,0.0,-4.7832,0.0,-5.0494,-5.185,-5.0519,-5.0519,-5.1875,-5.1473,-5.1272,-5.1322,-5.2904,-5.3934,-5.4511,-5.5064,-5.5616,-5.6168,-5.6796,-5.7374,-5.7951,-5.8504,-5.9031,-5.9483,-5.9483,-5.9508,-5.9405,0.0,0.0,0.0,0.0,0.0,0.0,0.0,-7.1184,-7.2439,-7.2991,-7.3569,-7.4046,-7.4372,-7.4121,-7.392,-7.392,-7.3594,-7.3167,-7.2615,-7.259,-7.2087,-7.0958,-7.0405,-6.9125,-6.7015,-6.4605,-6.1341,0.0,0.0,0.0,0.0,0.0,0.0,0.0,0.0,-5.0124,-5.1172,-5.3086,-5.4813,-5.6319,-5.7449,-5.8679,-5.9834,-5.9834,-5.996,-6.0261,-6.0939,-6.0889,-6.0563,-6.104,-6.1391,-6.1617,-6.1291,-6.0939,-6.0713,-6.0939,-6.0663,-6.0286,-6.0186,-6.0085,-5.991,-5.9583,-5.9483,-5.9483,-5.9483,-5.9483,-5.9483,-5.9483,-5.8453,-5.7223,-5.6093,-5.4511,-5.3155,0.0,0.0,0.0,0.0,0.0,0.0,0.0,0.0,0.0,0.0,0.0,0.0,0.0,0.0,0.0,0.0,0.0,0.0,-4.841,0.0,-4.9916,-5.0594,-4.9916,-5.0092,-5.1096,-5.1222,-5.1448,-5.1825,-5.3105,-5.421,-5.5089,-5.5641,-5.6194,-5.6746,-5.7323,-5.7876,-5.8453,-5.8981,-5.9307,-5.9483,-5.9483,-5.9483,-5.9483,-6.1818,0.0,-6.2546,0.0,-6.6413,-6.7543,-7.0606,-7.156,-7.2037,-7.2439,-7.2991,-7.3494,-7.387,-7.3569,-7.3343,-7.3343,-7.2816,-7.2313,-7.1937,-7.1761,-7.1259,-7.0305,-6.9727,0.0,-6.7015,-6.4982,-6.2169,-5.8604,-5.6149,0.0,0.0,0.0,0.0,0.0,-5.0389,-5.1347,-5.2352,-5.4084,-5.5541,-5.6796,-5.775,-5.8679,-5.9508,-5.9684,-5.9734,-5.9859,-6.0839,-6.0763,-6.0362,-6.114,-6.1692,-6.1843,-6.0964,-6.0412,-6.0111,-6.0261,-6.0211,-6.0035,-5.9809,-5.991,-5.9985,-5.9583,-5.9483,-5.9483,-5.9483,-5.9483,-5.9458,-5.9307,-5.8529,-5.76,-5.662,-5.534,-5.416,-5.3306,0.0,0.0,0.0,0.0,0.0,0.0,-4.7983,-4.7431,-4.6928,0.0,0.0,0.0,0.0,0.0,0.0,0.0,0.0,0.0,0.0,0.0,0.0,-4.959,-4.9866,-5.0419,-5.0996,-5.1649,-5.2377,-5.3632,-5.4813,-5.5892,-5.6294,-5.6771,-5.7323,-5.7901,-5.8378,-5.878,-5.9282,-5.9483,-5.9483,-5.9483,-5.9483,-5.9483,-6.3324,-6.4078,-6.5308,-6.8095,-6.9024,-6.9777,-7.0907,-7.156,-7.1912,-7.1912,-7.2389,-7.274,-7.274,-7.274,-7.274,-7.274,-7.2238,-7.1912,-7.1912,-7.1384,-7.0857,0.0,0.0,-6.8673,-6.7015,-6.5308,-6.3073,-6.0286,0.0,0.0,-5.2372,0.0,-5.1163,-5.2101,-5.2653,-5.3507,-5.4561,-5.5139,-5.6344,-5.7926,-5.8478,-5.9031,-5.9558,-6.0111,-6.0311,-6.0387,-6.0964,-6.1517,-6.1969,-6.1994,-6.1994,-6.1718,-6.0035,-5.9508,-5.9608,-6.0161,-5.9935,-5.9608,-6.0161,-5.991,-5.9508,-5.9483,-5.9483,-5.9483,-5.9483,-5.9483,-5.9357,-5.883,-5.8278,-5.7725,-5.7123,-5.657,-5.5641,-5.3959,0.0,0.0,0.0,0.0,0.0,0.0,-4.841,-4.8109,-4.6476,0.0,0.0,0.0,0.0,0.0,0.0,0.0,0.0,-4.8761,-4.9314,0.0,-4.959,-4.959,-4.9866,-5.0419,-5.0996,-5.185,-5.298,-5.4612,-5.5968,-5.7022,-5.7022,-5.7349,-5.7926,-5.8478,-5.8704,-5.878,-5.9282,-5.9483,-5.9483,-5.9483,-5.9483,-5.9483,-6.5411,-6.7061,-6.8408,-6.8071,-6.8823,-6.9702,-7.0405,-7.0681,-7.0907,-7.1309,-7.1485,-7.1761,-7.2138,-7.2514,-7.274,0.0,-7.2238,-7.1736,0.0,-7.0832,-7.0104,-6.9175,-6.8974,-6.8296,-6.7015,-6.571,-6.4053,-6.2019,0.0,0.0,0.0,-5.3718,-5.3312,-5.3231,-5.4185,-5.4787,-5.5189,-5.6118,-5.7474,-5.9006,-5.9182,-5.9809,-6.0663,-6.0839,-6.0914,-6.0989,-6.1542,-6.1617,-6.1492,-6.1893,-6.1492,-6.0763,-6.0211,-6.006,-6.0085,-6.0261,-5.9935,-5.9533,-5.9709,-5.9633,-5.9483,-5.9483,-5.9483,-5.9483,-5.9483,-5.9483,-5.9458,-5.9282,-5.883,-5.8403,-5.8227,-5.6796,-5.534,-5.4436,-5.2754,0.0,0.0,0.0,0.0,0.0,-4.8661,-4.841,0.0,-4.7405,0.0,0.0,0.0,0.0,0.0,0.0,0.0,0.0,-4.9515,0.0,-4.959,-4.9967,-5.0444,-5.1021,-5.195,-5.3181,-5.4637,-5.5541,-5.6344,-5.6973,-5.7449,-5.7951,-5.8478,-5.8654,-5.893,-5.9257,-5.9433,-5.9483,-5.9483,-5.9483,-5.9483,-5.9483,-6.7095,-6.7989,-6.8776,-6.8805,-6.8789,-6.9074,-6.9828,-7.0129,-7.038,-7.0732,-7.0958,-7.1209,-7.156,-7.2087,0.0,-7.2414,-7.1736,-7.1133,-7.0807,-7.0054,-6.9325,-6.8648,-6.8221,-6.7693,-6.699,0.0,0.0,-6.3751,-6.1115,-5.873,-5.662,-5.6068,-5.5742,-5.5616,-5.652,-5.6922,-5.6997,-5.7876,-5.8855,-5.9834,-6.0035,-6.0537,-6.1215,-6.1416,-6.1492,-6.1567,-6.2119,-6.2094,-6.1843,-6.2195,-6.1843,-6.1266,-6.1266,-6.0964,-6.0563,-6.0136,-5.9759,-5.9483,-5.9483,-5.9483,-5.9483,-5.9483,-5.9483,-5.9483,-5.9483,-5.9332,-5.9257,-5.9458,-5.8905,-5.8403,-5.8403,-5.6922,-5.5365,-5.4411,-5.2754,-5.1322,-5.0519,0.0,0.0,0.0,0.0,0.0,0.0,-4.7908,-4.7908,0.0,0.0,0.0,0.0,0.0,0.0,-4.9565,-4.959,0.0,-4.9891,-5.0469,-5.1021,-5.1599,-5.2904,-5.4185,-5.5415,-5.6168,-5.6821,-5.7399,-5.7951,-5.8504,-5.9006,-5.9006,-5.9207,-5.9483,-5.9483,-5.9483,-5.9483,-5.9483,-5.9483,-5.9483,-6.8607,-6.7646,-6.7374,0.0,-6.902,0.0,-6.93,-6.9853,-7.0154,-7.0204,-7.0606,-7.0932,-7.1008,-7.146,-7.1761,-7.1786,0.0,0.0,0.0,-6.9225,-6.8622,-6.8622,-6.7593,-6.7015,-6.6965,-6.586,-6.5258,-6.5183,-6.2044,-6.001,-5.8981,-5.8403,-5.8353,-5.8805,-5.9332,-5.9558,-5.9583,-6.0111,-6.0362,-6.0487,-6.1014,-6.1266,-6.1366,-6.1868,-6.2069,-6.2119,-6.2647,-6.2822,-6.2822,-6.2822,-6.2797,-6.2772,-6.2772,-6.2019,-6.0914,-5.991,-5.9558,-5.9483,-5.9483,-5.9483,-5.9483,-5.9483,-5.9483,-5.9483,-5.9483,-5.9131,-5.8905,-5.9382,-5.8679,-5.7951,-5.7951,-5.6972,-5.5616,-5.3959,-5.2779,-5.1649,-5.0519,0.0,0.0,0.0,0.0,0.0,0.0,-4.8008,-4.8033,0.0,0.0,0.0,0.0,0.0,-4.9038,-4.9515,-4.9615,-4.9916,-5.0469,-5.1096,-5.1699,-5.2352,-5.3934,-5.4963,-5.5541,-5.6646,-5.7449,-5.8001,-5.8529,-5.9056,-5.9483,-5.9483,-5.9483,-5.9483,-5.9483,-5.9483,-5.9483,-5.9483,-5.9483,-5.9483,0.0,0.0,-7.1199,-7.0474,-6.9684,-6.915,-6.9401,-6.92,-6.915,-6.9577,-6.9401,-6.9526,-7.0355,-7.0204,-7.0204,-7.0606,-7.0807,-7.0706,-7.028,-6.9225,-6.8622,-6.8622,-6.797,-6.7417,-6.699,-6.586,-6.4881,-6.4078,-6.2847,-6.2119,-6.1843,-6.0864,-6.0236,-5.9935,-6.006,-6.0111,-6.0136,-6.0261,-6.0814,-6.1617,-6.1743,-6.2069,-6.2446,-6.2571,-6.2621,-6.2647,-6.2772,-6.2822,-6.2822,-6.2822,-6.2546,-6.2195,-6.2195,-6.1441,-6.0563,-6.0738,-6.0161,-5.9483,-5.9483,-5.9483,-5.9483,-5.9483,-5.9483,-5.9483,-5.9483,-5.9408,-5.9357,-5.9458,-5.8981,-5.8529,-5.8529,-5.6922,-5.5164,-5.3909,-5.2452,-5.1071,-4.9941,-4.9665,0.0,0.0,-4.9138,-4.9188,-4.8611,-4.8962,-4.9188,0.0,0.0,0.0,0.0,-4.9314,-4.9264,-4.8987,-4.9791,-5.0494,-5.1071,-5.2051,-5.3231,-5.4612,-5.544,-5.6118,-5.6671,-5.7826,-5.8403,-5.8554,-5.9081,-5.9382,-5.9483,-5.9483,-5.9483,-5.9483,-5.9483,-5.9483,-5.9483,-5.9483,-5.9483,-5.9483,-7.1744,-7.2233,-7.2306,-7.1012,-7.0513,-7.0083,-6.9491,-6.92,-6.91,-6.9401,-6.9175,-6.9225,-6.9828,-6.9853,-6.9828,-6.9878,-7.0154,-7.0204,-6.9903,-6.91,-6.8622,-6.8622,-6.7844,-6.7166,-6.6589,-6.5735,-6.4881,-6.4053,-6.3977,-6.3827,-6.355,-6.2973,-6.2395,-6.1868,-6.1868,-6.1718,-6.1466,-6.1466,-6.1818,-6.2395,-6.2395,-6.2571,-6.2822,-6.2822,-6.2822,-6.2822,-6.2822,-6.2822,-6.2822,-6.2822,-6.2621,-6.2395,-6.2395,-6.1793,-6.1165,-6.1466,-6.0588,-5.9483,-5.9483,-5.9483,-5.9483,-5.9483,-5.9483,-5.9483,-5.9483,-5.9483,-5.9483,-5.9483,-5.9081,-5.8654,-5.8403,-5.652,-5.4637,-5.3532,-5.1975,-5.0594,-4.9715,-4.9389,0.0,-4.9163,-4.8962,-4.8912,-4.9113,-4.9188,-4.9314,-4.9565,-4.959,0.0,-4.9238,-4.969,-4.9841,-4.954,-5.0368,-5.1197,-5.2026,-5.313,-5.4511,-5.6143,-5.6194,-5.6646,-5.7449,-5.8328,-5.873,-5.8755,-5.9282,-5.9483,-5.9483,-5.9483,-5.9483,-5.9483,-5.9483,-5.9483,-5.9483,-5.9483,-5.9483,-5.9483,-7.2772,-7.283,-7.2613,-7.2122,-7.1873,-7.1505,-7.0401,-6.989,-6.9685,-6.9761,-6.9531,-6.9351,-6.9336,-6.9853,-6.9953,-6.9476,-6.9361,-6.9401,-6.9235,-6.8798,-6.8447,-6.8371,-6.7392,-6.6589,-6.5986,-6.5358,-6.4856,-6.4454,-6.4856,-6.4881,-6.458,-6.4505,-6.4228,-6.3802,-6.3802,-6.35,-6.2948,-6.2948,-6.2898,-6.2822,-6.2822,-6.2822,-6.2822,-6.2822,-6.2822,-6.2822,-6.2822,-6.2822,-6.2822,-6.2822,-6.2822,-6.2822,-6.2822,-6.2395,-6.1893,-6.1994,-6.0864,-5.9608,-5.9608,-5.9558,-5.9483,-5.9483,-5.9483,-5.9483,-5.9483,-5.9483,-5.9483,-5.9483,-5.9081,-5.8529,-5.7876,-5.6018,-5.4185,-5.3005,-5.1473,-5.0193,-4.9565,0.0,-4.9012,-4.9314,-4.8636,-4.851,-4.9389,-4.9188,-4.9213,-4.969,-4.9791,-4.964,-4.9163,-5.0117,-5.072,-5.0795,-5.1272,-5.2101,-5.3281,-5.4386,-5.5641,-5.7022,-5.6721,-5.7097,-5.8052,-5.8579,-5.883,-5.8855,-5.9307,-5.9483,-5.9483,-5.9483,-5.9483,-5.9483,-5.9483,-5.9483,-5.9483,-5.9483,-5.9483,-5.9483,-7.6454,-7.5802,-7.5331,-7.5676,-7.4963,-7.4249,-7.4101,-7.2328,-7.1183,-7.1676,-6.9955,-6.8924,-6.9311,-6.9526,-6.9526,-6.9451,-6.9361,-6.925,-6.8773,-6.8246,-6.7719,-6.7267,-6.6589,-6.5986,-6.5434,-6.4454,-6.4103,-6.4454,-6.4103,-6.4354,-6.5157,-6.468,-6.4429,-6.4354,-6.4354,-6.4053,-6.355,-6.355,-6.3274,-6.2822,-6.2822,-6.2822,-6.2822,-6.2822,-6.2822,-6.2822,-6.2822,-6.2822,-6.2822,-6.2822,-6.2822,-6.2822,-6.2822,-6.2119,-6.1391,-6.1868,-6.114,-6.0186,-6.0186,-5.9859,-5.9483,-5.9483,-5.9483,-5.9483,-5.9483,-5.9483,-5.9483,-5.9483,-5.9081,-5.8403,-5.7349,-5.5742,-5.4059,-5.2477,-5.1222,-5.0067,-4.9038,0.0,-4.9138,-4.8284,-4.8862,-4.9213,-4.8937,-4.9665,-5.0193,-5.0293,-5.0745,-5.0971,-5.0896,-5.1498,-5.2051,-5.2528,-5.2628,-5.3432,-5.4988,-5.6093,-5.6771,-5.7047,-5.7926,-5.8428,-5.8604,-5.9131,-5.9382,-5.9382,-5.9458,-5.9483,-5.9483,-5.9483,-5.9483,-5.9483,-5.9483,-5.9483,-5.9483,-5.9483,-5.9483,-5.9483,-7.6441,-7.6878,-7.6861,-7.5874,-7.6041,-7.6068,-7.5035,-7.3116,-7.1853,-7.2114,-7.0311,-6.9275,-6.9828,-6.9627,-6.9551,-6.9853,-6.9627,-6.9074,-6.8246,-6.8221,-6.7869,-6.7015,-6.6714,-6.6036,-6.4881,-6.4078,-6.3952,-6.4454,-6.453,-6.4957,-6.571,-6.5157,-6.4906,-6.4906,-6.4605,-6.4329,-6.4078,-6.3802,-6.3525,-6.3274,-6.2948,-6.2822,-6.2822,-6.2822,-6.2822,-6.2822,-6.2822,-6.2822,-6.2822,-6.2822,-6.2822,-6.2822,-6.2822,-6.2471,-6.2119,-6.237,-6.1667,-6.0713,-6.0412,-6.0136,-5.9859,-5.9558,-5.9483,-5.9483,-5.9483,-5.9483,-5.9483,-5.9483,-5.9307,-5.8805,-5.77,-5.5892,-5.431,-5.3557,-5.1498,0.0,0.0,-4.9816,-4.9515,-4.9289,-4.9715,-5.0167,-5.0519,-5.1021,-5.1448,-5.1749,-5.2026,-5.2176,-5.2176,-5.2678,-5.3231,-5.3783,-5.411,-5.4913,-5.6269,-5.6771,-5.7349,-5.7951,-5.8478,-5.8855,-5.9156,-5.9382,-5.9483,-5.9483,-5.9483,-5.9483,-5.9483,-5.9483,-5.9483,-5.9483,-5.9483,-5.9483,-5.9483,-5.9483,-5.9483,-5.9483,-7.6208,-7.7419,-7.7978,-7.6427,-7.7308,-7.7745,-7.6401,-7.4611,-7.3442,-7.3442,-7.149,-7.0362,-7.1308,-7.0219,-6.9782,-7.0638,-6.9948,-6.9024,-6.8045,-6.8271,-6.7869,-6.6639,-6.6338,-6.5609,-6.4304,-6.3751,-6.3802,-6.4454,-6.4881,-6.5434,-6.6112,-6.5685,-6.5484,-6.5459,-6.5032,-6.4705,-6.4429,-6.4053,-6.3726,-6.345,-6.2998,-6.2822,-6.2822,-6.2822,-6.2822,-6.2822,-6.2822,-6.2822,-6.2822,-6.2822,-6.2822,-6.2822,-6.2822,-6.2747,-6.2672,-6.2797,-6.222,-6.1416,-6.0713,-6.0512,-6.0412,-5.9985,-5.9784,-5.9684,-5.9684,-5.9583,-5.9483,-5.9483,-5.9483,-5.9156,-5.8102,-5.6294,-5.4787,-5.426,0.0,0.0,0.0,-5.0444,-5.0193,-5.0745,-5.0921,-5.1348,-5.2201,-5.2402,-5.2653,-5.308,-5.3231,-5.3306,-5.3306,-5.3934,-5.4612,-5.5315,-5.5616,-5.6168,-5.7022,-5.7298,-5.7851,-5.873,-5.8855,-5.9106,-5.9483,-5.9483,-5.9483,-5.9483,-5.9483,-5.9483,-5.9483,-5.9483,-5.9483,-5.9483,-5.9483,-5.9483,-5.9483,-5.9483,-5.9483,-5.9483,-7.7848,-7.833,-7.8736,-7.9747,-8.0028,-8.0057,-7.9949,-7.8342,-7.7226,-7.7226,-7.4186,-7.269,-7.4325,-7.1516,-7.0145,-7.1868,-7.0388,-6.92,-6.8597,-6.812,-6.7141,-6.5484,-6.4454,-6.3877,-6.3751,-6.3174,-6.34,-6.4454,-6.4505,-6.5082,-6.6112,-6.6061,-6.6061,-6.6036,-6.6011,-6.5434,-6.4454,-6.4429,-6.3827,-6.2898,-6.2847,-6.2822,-6.2822,-6.2822,-6.2822,-6.2822,-6.2822,-6.2822,-6.2822,-6.2822,-6.2822,-6.2822,-6.2822,-6.2471,-6.2169,-6.2672,-6.2772,-6.2471,-6.1416,-6.1115,-6.1115,-6.1065,-6.0663,-6.0261,-6.0261,-5.9859,-5.9483,-5.9483,-5.9483,-5.9156,-5.8102,-5.6897,-5.5415,-5.3381,0.0,0.0,-5.0544,-5.087,-5.1348,-5.1925,-5.2427,-5.2779,-5.2854,-5.3306,-5.3607,-5.3632,-5.4135,-5.4436,-5.4436,-5.544,-5.652,-5.7625,-5.7173,-5.6947,-5.7022,-5.8077,-5.8629,-5.873,-5.9207,-5.9458,-5.9483,-5.9483,-5.9483,-5.9483,-5.9483,-5.9483,-5.9483,-5.9483,-5.9483,-5.9483,-5.9483,-5.9483,-5.9483,-5.9483,-5.9483,-5.9483,-7.7391,-7.8117,-7.8669,-7.954,-8.0033,-8.0294,-8.0294,-7.8774,-7.7582,-7.7582,-7.5455,-7.4235,-7.5296,-7.3507,-7.2182,-7.2202,-7.1154,-6.9736,-6.7756,-6.7719,-6.7041,-6.5358,-6.4254,-6.3701,-6.3701,-6.3124,-6.3199,-6.3977,-6.3977,-6.4354,-6.5082,-6.5082,-6.5283,-6.5609,-6.5609,-6.5383,-6.4982,-6.4982,-6.453,-6.3827,-6.35,-6.3375,-6.3324,-6.2973,-6.2822,-6.2822,-6.2822,-6.2822,-6.2873,-6.3249,-6.3124,-6.2898,-6.3249,-6.2973,-6.2546,-6.2772,-6.2822,-6.2747,-6.232,-6.1943,-6.1617,-6.1266,-6.0738,-6.0311,-6.0311,-5.9885,-5.9483,-5.9483,-5.9483,-5.9282,-5.8554,-5.7474,-5.6445,-5.5616,0.0,-5.2829,-5.298,-5.2879,-5.2854,-5.308,-5.3607,-5.4084,-5.4411,-5.4637,-5.5039,-5.5717,-5.5968,-5.6244,-5.662,-5.7349,-5.7801,-5.7901,-5.8328,-5.8403,-5.8077,-5.8504,-5.888,-5.9207,-5.9408,-5.9483,-5.9483,-5.9483,-5.9483,-5.9483,-5.9483,-5.9483,-5.9483,-5.9483,-5.9483,-5.9483,-5.9483,-5.9483,-5.9483,-5.9483,-5.9483,-5.9483,-7.7014,-7.7769,-7.8291,-7.8901,-7.9394,-7.9714,-7.9714,-7.8853,-7.811,-7.811,-7.6509,-7.582,-7.6761,-7.4881,-7.3608,-7.3608,-7.1959,-7.0205,-6.8427,-6.7868,-6.6789,-6.5107,-6.4178,-6.3601,-6.3425,-6.3023,-6.3124,-6.3701,-6.3852,-6.4203,-6.4731,-6.4731,-6.4931,-6.5283,-6.5283,-6.5183,-6.5032,-6.5208,-6.4982,-6.4429,-6.3902,-6.3701,-6.3626,-6.3048,-6.2822,-6.2822,-6.2822,-6.2822,-6.2898,-6.3299,-6.3149,-6.2898,-6.3299,-6.3149,-6.2822,-6.2822,-6.2822,-6.2822,-6.2822,-6.2546,-6.2169,-6.1793,-6.1266,-6.0839,-6.0839,-6.0412,-5.9985,-5.9784,-5.9759,-5.9583,-5.9056,-5.8202,-5.7449,-5.7097,-5.5616,-5.4637,-5.5013,-5.4737,-5.4612,-5.4988,-5.5365,-5.5767,-5.6143,-5.6168,-5.6495,-5.7248,-5.7298,-5.7549,-5.8127,-5.8504,-5.8629,-5.8403,-5.9106,-5.9332,-5.8956,-5.8956,-5.9156,-5.9483,-5.9483,-5.9483,-5.9483,-5.9483,-5.9483,-5.9483,-5.9483,-5.9483,-5.9483,-5.9483,-5.9483,-5.9483,-5.9483,-5.9483,-5.9483,-5.9483,-5.9483,-5.9483,-7.7014,-7.7391,-7.7624,-7.8291,-7.8407,-7.8407,-7.8407,-7.893,-7.9307,-7.9307,-7.7696,-7.7298,-7.9122,-7.5529,-7.3979,-7.6381,-7.2845,-7.0703,-7.1252,-6.8565,-6.6212,-6.4555,-6.3977,-6.3425,-6.2847,-6.2847,-6.3124,-6.3701,-6.4203,-6.4731,-6.5283,-6.5283,-6.5283,-6.5283,-6.5283,-6.4982,-6.4505,-6.5057,-6.4957,-6.4404,-6.3902,-6.3701,-6.3626,-6.3048,-6.2822,-6.2847,-6.2822,-6.2822,-6.2847,-6.2847,-6.2822,-6.2822,-6.2822,-6.2822,-6.2822,-6.2822,-6.2822,-6.2822,-6.2822,-6.2822,-6.2822,-6.2822,-6.2421,-6.1994,-6.1994,-6.1592,-6.1014,-6.0437,-6.0337,-6.0161,-5.9608,-5.9081,-5.8378,-5.7223,-5.6595,-5.6219,-5.6219,-5.6219,-5.6646,-5.7775,-5.7901,-5.7901,-5.7901,-5.7901,-5.7901,-5.7901,-5.7901,-5.8152,-5.8704,-5.873,-5.8956,-5.9483,-5.9483,-5.9483,-5.9483,-5.9483,-5.9483,-5.9483,-5.9483,-5.9483,-5.9483,-5.9483,-5.9483,-5.9483,-5.9483,-5.9483,-5.9483,-5.9483,-5.9483,-5.9483,-5.9483,-5.9483,-5.9483,-5.9483,-5.9483,-5.9483,-7.655,-7.7101,-7.7478,-7.7653,-7.8088,-7.8553,-7.8959,-7.9191,-7.9307,-7.9307,-7.9213,-7.9221,-7.9258,-7.7763,-7.6555,-7.6088,-7.4431,-7.245,-7.016,-6.7749,-6.5986,-6.5082,-6.453,-6.3977,-6.345,-6.3425,-6.3525,-6.3701,-6.3852,-6.3802,-6.3576,-6.3977,-6.4178,-6.4178,-6.4555,-6.4429,-6.3952,-6.4479,-6.4404,-6.3902,-6.3751,-6.3701,-6.3626,-6.3048,-6.3073,-6.3375,-6.2973,-6.3099,-6.3425,-6.3425,-6.3174,-6.2822,-6.2822,-6.2822,-6.2822,-6.2822,-6.2822,-6.2822,-6.2822,-6.2822,-6.2822,-6.2822,-6.2421,-6.1994,-6.1994,-6.1592,-6.114,-6.0964,-6.124,-6.1215,-6.0261,-6.0286,-5.996,-5.8453,-5.8077,-5.7826,-5.7449,-5.7399,-5.7524,-5.7851,-5.7901,-5.7901,-5.7901,-5.7901,-5.8052,-5.8453,-5.8805,-5.9081,-5.9257,-5.9257,-5.9332,-5.9483,-5.9483,-5.9483,-5.9483,-5.9483,-5.9483,-5.9483,-5.9483,-5.9483,-5.9483,-5.9483,-5.9483,-5.9483,-5.9483,-5.9483,-5.9483,-5.9483,-5.9483,-5.9483,-5.9483,-5.9483,-5.9483,-5.9483,-5.9483,-5.9483,-7.6346,-7.6985,-7.7391,-7.7391,-7.774,-7.8117,-7.8494,-7.8553,-7.8553,-7.8553,-7.8901,-7.8988,-7.8582,-7.8001,-7.7443,-7.6864,-7.5814,-7.3719,-7.0461,-6.8255,-6.6916,-6.6354,-6.558,-6.468,-6.3701,-6.3701,-6.3576,-6.335,-6.3576,-6.3626,-6.3475,-6.3827,-6.4002,-6.4002,-6.4329,-6.4178,-6.3726,-6.4254,-6.4279,-6.4002,-6.4002,-6.3877,-6.3676,-6.3525,-6.3576,-6.3676,-6.3525,-6.3701,-6.4002,-6.4002,-6.3626,-6.3124,-6.2898,-6.2822,-6.2822,-6.2822,-6.2822,-6.2873,-6.3099,-6.3174,-6.3174,-6.3174,-6.2747,-6.2345,-6.2345,-6.2069,-6.1768,-6.1542,-6.1768,-6.1718,-6.0814,-6.0763,-6.0512,-5.9508,-5.9156,-5.8905,-5.8579,-5.8529,-5.8529,-5.8529,-5.8529,-5.8529,-5.8529,-5.8529,-5.8679,-5.9006,-5.9307,-5.9483,-5.9483,-5.9483,-5.9483,-5.9483,-5.9483,-5.9483,-5.9483,-5.9483,-5.9483,-5.9483,-5.9483,-5.9483,-5.9483,-5.9483,-5.9483,-5.9483,-5.9483,-5.9483,-5.9483,-5.9483,-5.9483,-5.9483,-5.9483,-5.9483,-5.9483,-5.9483,-5.9483,-5.9483,-7.6404,-7.7072,-7.7507,-7.7507,-7.7507,-7.7507,-7.7507,-7.7507,-7.7478,-7.742,-7.7449,-7.7478,-7.742,-7.6898,-7.7014,-7.8204,-7.67,-7.4445,-7.1687,-6.9903,-6.8621,-6.8015,-6.689,-6.5553,-6.3877,-6.3877,-6.3626,-6.3048,-6.3525,-6.4002,-6.4454,-6.4404,-6.4404,-6.4404,-6.4404,-6.4103,-6.3651,-6.4178,-6.4404,-6.4404,-6.4454,-6.4178,-6.3802,-6.4279,-6.4203,-6.3877,-6.4304,-6.4505,-6.453,-6.4479,-6.4153,-6.3651,-6.3099,-6.2898,-6.2898,-6.2847,-6.2873,-6.3023,-6.355,-6.3726,-6.3751,-6.3751,-6.3324,-6.2898,-6.2847,-6.2822,-6.2697,-6.2195,-6.2119,-6.1969,-6.1366,-6.0864,-6.0487,-6.0337,-5.991,-5.9558,-5.9508,-5.9483,-5.9483,-5.9483,-5.9483,-5.9483,-5.9483,-5.9483,-5.9483,-5.9483,-5.9483,-5.9483,-5.9483,-5.9483,-5.9483,-5.9483,-5.9483,-5.9483,-5.9483,-5.9483,-5.9483,-5.9483,-5.9483,-5.9483,-5.9483,-5.9483,-5.9483,-5.9483,-5.9483,-5.9483,-5.9483,-5.9483,-5.9483,-5.9483,-5.9483,-5.9483,-5.9483,-5.9483,-5.9483,-5.9483,-7.7072,-7.774,-7.8175,-7.8175,-7.8175,-7.8175,-7.8175,-7.8175,-7.8001,-7.7478,-7.7856,-7.7972,-7.7449,-7.7275,-7.7304,-7.7595,-7.5617,-7.3997,-7.3404,-7.1685,-7.0095,-6.859,-6.8305,-6.7125,-6.4957,-6.5358,-6.5308,-6.4756,-6.4454,-6.4354,-6.4454,-6.4053,-6.3852,-6.3852,-6.3852,-6.355,-6.3048,-6.3626,-6.3852,-6.3902,-6.4304,-6.4404,-6.4304,-6.4429,-6.4655,-6.4906,-6.458,-6.4756,-6.5032,-6.4605,-6.4379,-6.4203,-6.3676,-6.35,-6.3425,-6.2948,-6.3149,-6.3525,-6.3651,-6.3977,-6.4304,-6.4304,-6.3902,-6.34,-6.2923,-6.2822,-6.2797,-6.2672,-6.2998,-6.3023,-6.2019,-6.2069,-6.1843,-6.0537,-6.0211,-5.9985,-5.9558,-5.9483,-5.9483,-5.9483,-5.9483,-5.9483,-5.9483,-5.9483,-5.9483,-5.9483,-5.9483,-5.9483,-5.9483,-5.9483,-5.9483,-5.9483,-5.9483,-5.9483,-5.9483,-5.9483,-5.9483,-5.9483,-5.9483,-5.9483,-5.9483,-5.9483,-5.9483,-5.9483,-5.9483,-5.9483,-5.9483,-5.9483,-5.9483,-5.9483,-5.9483,-5.9483,-5.9483,-5.9483,-5.9483,-5.9483,-7.7275,-7.7943,-7.8494,-7.8785,-7.8843,-7.8727,-7.8436,-7.8146,-7.7682,-7.7043,-7.7275,-7.7333,-7.6985,-7.6956,-7.6956,-7.6956,-7.6109,-7.5478,-7.5192,-7.3533,-7.1765,-6.9985,-6.9368,-6.8035,-6.5685,-6.6237,-6.5986,-6.4906,-6.4605,-6.4605,-6.4856,-6.4304,-6.4053,-6.4053,-6.3802,-6.3525,-6.3249,-6.3274,-6.345,-6.3726,-6.4254,-6.4329,-6.4178,-6.4957,-6.5258,-6.5283,-6.5258,-6.5434,-6.5559,-6.4731,-6.463,-6.4731,-6.3927,-6.3701,-6.3626,-6.3324,-6.3249,-6.34,-6.3927,-6.4254,-6.4454,-6.4454,-6.4254,-6.3927,-6.3375,-6.3023,-6.2822,-6.2822,-6.3073,-6.3099,-6.2496,-6.2421,-6.2069,-6.0914,-6.0512,-6.0136,-5.9583,-5.9483,-5.9483,-5.9483,-5.9483,-5.9483,-5.9483,-5.9483,-5.9483,-5.9483,-5.9483,-5.9483,-5.9483,-5.9483,-5.9483,-5.9483,-5.9483,-5.9483,-5.9483,-5.9483,-5.9483,-5.9483,-5.9483,-5.9483,-5.9483,-5.9483,-5.9483,-5.9483,-5.9483,-5.9483,-5.9483,-5.9483,-5.9483,-5.9483,-5.9483,-5.9483,-5.9483,-5.9483,-5.9483,-5.9483,-7.7671,-7.8339,-7.8872,-7.9394,-7.9365,-7.9104,-7.8494,-7.7827,-7.7159,-7.655,-7.6538,-7.6538,-7.6538,-7.6538,-7.6538,-7.6538,-7.6956,-7.7014,-7.6567,-7.5164,-7.3533,-7.1845,-7.0793,-6.9103,-6.6601,-6.6995,-6.648,-6.4756,-6.4655,-6.4881,-6.5409,-6.4781,-6.4454,-6.4454,-6.3927,-6.3626,-6.3525,-6.3149,-6.3299,-6.3877,-6.4404,-6.4404,-6.4254,-6.5609,-6.5835,-6.5484,-6.5936,-6.6112,-6.5961,-6.4957,-6.4982,-6.5233,-6.4053,-6.3827,-6.3902,-6.3626,-6.335,-6.3299,-6.4228,-6.453,-6.4605,-6.4605,-6.453,-6.4354,-6.3927,-6.3299,-6.2822,-6.2822,-6.2822,-6.2822,-6.2822,-6.2446,-6.1969,-6.1416,-6.0914,-6.0387,-5.9734,-5.9633,-5.9608,-5.9508,-5.9483,-5.9483,-5.9483,-5.9483,-5.9483,-5.9483,-5.9483,-5.9483,-5.9483,-5.9483,-5.9483,-5.9483,-5.9483,-5.9483,-5.9483,-5.9483,-5.9483,-5.9483,-5.9483,-5.9483,-5.9483,-5.9483,-5.9483,-5.9483,-5.9483,-5.9483,-5.9483,-5.9483,-5.9483,-5.9483,-5.9483,-5.9483,-5.9483,-5.9483,-5.9483,-5.9483,-7.9441,-7.9803,-8.0062,-8.0149,-7.9685,-7.9104,-7.8494,-7.7827,-7.7159,-7.655,-7.6538,-7.6538,-7.6538,-7.6538,-7.6538,-7.6538,-7.6521,-7.655,-7.6538,-7.6283,-7.5393,-7.3611,-7.3382,-7.1767,-6.8466,-6.8461,-6.7653,-6.5886,-6.5409,-6.5459,-6.5986,-6.4957,-6.4454,-6.4454,-6.3927,-6.3425,-6.2973,-6.34,-6.3877,-6.4404,-6.4957,-6.5434,-6.581,-6.6036,-6.6061,-6.6011,-6.6086,-6.6112,-6.6011,-6.5383,-6.5534,-6.5735,-6.4178,-6.4329,-6.4781,-6.3375,-6.355,-6.4279,-6.4429,-6.4806,-6.5183,-6.5183,-6.4831,-6.4454,-6.4379,-6.3576,-6.2822,-6.2822,-6.2822,-6.2822,-6.2822,-6.2772,-6.2546,-6.1994,-6.1818,-6.1416,-6.0362,-6.0211,-6.0035,-5.9558,-5.9483,-5.9483,-5.9483,-5.9483,-5.9483,-5.9483,-5.9483,-5.9483,-5.9483,-5.9483,-5.9483,-5.9483,-5.9483,-5.9483,-5.9483,-5.9483,-5.9483,-5.9483,-5.9483,-5.9483,-5.9483,-5.9483,-5.9483,-5.9483,-5.9483,-5.9483,-5.9483,-5.9483,-5.9483,-5.9483,-5.9483,-5.9483,-5.9483,-5.9483,-5.9483,-5.9483,-7.9501,-7.9865,-8.0034,-8.0356,-7.9948,-7.9385,-7.8802,-7.798,-7.7159,-7.655,-7.6538,-7.6538,-7.6538,-7.6538,-7.6538,-7.6538,-7.6538,-7.6538,-7.6538,-7.6538,-7.5725,-7.395,-7.3873,-7.2747,-7.023,-6.9188,-6.8299,-6.7569,-6.6347,-6.5886,-6.6086,-6.4982,-6.4454,-6.4429,-6.3576,-6.3249,-6.3324,-6.3576,-6.4178,-6.4957,-6.5183,-6.5609,-6.6112,-6.6112,-6.6112,-6.6112,-6.6112,-6.6112,-6.6036,-6.5484,-6.566,-6.5886,-6.4555,-6.4655,-6.5032,-6.3701,-6.3852,-6.4454,-6.4454,-6.4881,-6.5283,-6.5283,-6.4881,-6.4379,-6.4103,-6.34,-6.2923,-6.3249,-6.3299,-6.3199,-6.2898,-6.2822,-6.2647,-6.2094,-6.1994,-6.1718,-6.0914,-6.0512,-6.0111,-5.9558,-5.9483,-5.9608,-5.9935,-5.9684,-5.9633,-5.9935,-5.9659,-5.9483,-5.9483,-5.9483,-5.9483,-5.9483,-5.9483,-5.9483,-5.9483,-5.9483,-5.9483,-5.9483,-5.9483,-5.9483,-5.9483,-5.9483,-5.9483,-5.9483,-5.9483,-5.9483,-5.9483,-5.9483,-5.9483,-5.9483,-5.9483,-5.9483,-5.9483,-5.9483,-5.9483,-5.9483]},{"header":{"parameterUnit":"m.s-1","parameterCategory":1,"la1":30.6,"la2":28.766,"lo1":-90.7593,"lo2":-88.6598,"dy":0.0162,"dx":0.0183,"nx":116,"ny":114,"refTime":"2024-04-07T18:00:00:Z","depth":0,"parameterNumber":3,"parameterNumberName":"V-component_of_WINDS"},"data":[0.0,0.0,0.0,0.0,0.0,0.0,0.0,0.0,0.0,0.0,0.0,0.0,0.0,0.0,0.0,0.0,0.0,0.0,0.0,0.0,0.0,0.0,0.0,0.0,0.0,0.0,0.0,0.0,0.0,0.0,0.0,0.0,0.0,0.0,0.0,0.0,0.0,0.0,0.0,0.0,0.0,0.0,0.0,0.0,0.0,0.0,0.0,0.0,0.0,0.0,0.0,0.0,0.0,0.0,0.0,0.0,0.0,0.0,0.0,0.0,0.0,0.0,0.0,0.0,0.0,0.0,0.0,0.0,0.0,0.0,0.0,0.0,0.0,0.0,0.0,0.0,0.0,0.0,0.0,0.0,0.0,0.0,0.0,0.0,0.0,0.0,0.0,0.0,0.0,0.0,0.0,0.0,0.0,0.0,0.0,0.0,0.0,0.0,0.0,0.0,0.0,0.0,0.0,0.0,0.0,0.0,0.0,0.0,0.0,0.0,0.0,0.0,0.0,0.0,0.0,0.0,0.0,0.0,0.0,0.0,0.0,0.0,0.0,0.0,0.0,0.0,0.0,0.0,0.0,0.0,0.0,0.0,0.0,0.0,0.0,0.0,0.0,0.0,0.0,0.0,0.0,0.0,0.0,0.0,0.0,0.0,0.0,0.0,0.0,0.0,0.0,0.0,0.0,0.0,0.0,0.0,0.0,0.0,0.0,0.0,0.0,0.0,0.0,0.0,0.0,0.0,0.0,0.0,0.0,0.0,0.0,0.0,0.0,0.0,0.0,0.0,0.0,0.0,0.0,0.0,0.0,0.0,0.0,0.0,0.0,0.0,0.0,0.0,0.0,0.0,0.0,0.0,0.0,0.0,0.0,0.0,0.0,0.0,0.0,0.0,0.0,0.0,0.0,0.0,0.0,0.0,0.0,0.0,0.0,0.0,0.0,0.0,0.0,0.0,0.0,0.0,0.0,0.0,0.0,0.0,0.0,0.0,0.0,0.0,0.0,0.0,0.0,0.0,0.0,0.0,0.0,0.0,0.0,0.0,0.0,0.0,0.0,0.0,0.0,0.0,0.0,0.0,0.0,0.0,0.0,0.0,0.0,0.0,0.0,0.0,0.0,0.0,0.0,0.0,0.0,0.0,0.0,0.0,0.0,0.0,0.0,0.0,0.0,0.0,0.0,0.0,0.0,0.0,0.0,0.0,0.0,0.0,0.0,0.0,0.0,0.0,0.0,0.0,0.0,0.0,0.0,0.0,0.0,0.0,0.0,0.0,0.0,0.0,0.0,0.0,0.0,0.0,0.0,0.0,0.0,0.0,0.0,0.0,0.0,0.0,0.0,0.0,0.0,0.0,0.0,0.0,0.0,0.0,0.0,0.0,0.0,0.0,0.0,0.0,0.0,0.0,0.0,0.0,0.0,0.0,0.0,0.0,0.0,0.0,0.0,0.0,0.0,0.0,0.0,0.0,0.0,0.0,0.0,0.0,0.0,0.0,0.0,0.0,0.0,0.0,0.0,0.0,0.0,0.0,0.0,0.0,0.0,0.0,0.0,0.0,0.0,0.0,0.0,0.0,0.0,0.0,0.0,0.0,0.0,0.0,0.0,0.0,0.0,0.0,0.0,0.0,0.0,0.0,0.0,0.0,0.0,0.0,0.0,0.0,0.0,0.0,0.0,0.0,0.0,0.0,0.0,0.0,0.0,0.0,0.0,0.0,0.0,0.0,0.0,0.0,0.0,0.0,0.0,0.0,0.0,0.0,0.0,0.0,0.0,0.0,0.0,0.0,0.0,0.0,0.0,0.0,0.0,0.0,0.0,0.0,0.0,0.0,0.0,0.0,0.0,0.0,0.0,0.0,0.0,0.0,0.0,0.0,0.0,0.0,0.0,0.0,0.0,0.0,0.0,0.0,0.0,0.0,0.0,0.0,0.0,0.0,0.0,0.0,0.0,0.0,0.0,0.0,0.0,0.0,0.0,0.0,0.0,0.0,0.0,0.0,0.0,0.0,0.0,0.0,0.0,0.0,0.0,0.0,0.0,0.0,0.0,0.0,0.0,0.0,0.0,0.0,0.0,0.0,0.0,0.0,0.0,0.0,0.0,0.0,0.0,0.0,0.0,0.0,0.0,0.0,0.0,0.0,0.0,0.0,0.0,0.0,0.0,0.0,0.0,0.0,0.0,0.0,0.0,0.0,0.0,0.0,0.0,0.0,0.0,0.0,0.0,0.0,0.0,0.0,0.0,0.0,0.0,0.0,0.0,0.0,0.0,0.0,0.0,0.0,0.0,0.0,0.0,0.0,0.0,0.0,0.0,0.0,0.0,0.0,0.0,0.0,0.0,0.0,0.0,0.0,0.0,0.0,0.0,0.0,0.0,0.0,0.0,0.0,0.0,0.0,0.0,0.0,0.0,0.0,0.0,0.0,0.0,0.0,0.0,0.0,0.0,0.0,0.0,0.0,0.0,0.0,0.0,0.0,0.0,0.0,0.0,0.0,0.0,0.0,0.0,0.0,0.0,0.0,0.0,0.0,0.0,0.0,0.0,0.0,0.0,0.0,0.0,0.0,0.0,0.0,0.0,0.0,0.0,0.0,0.0,0.0,0.0,0.0,0.0,0.0,0.0,0.0,0.0,0.0,0.0,0.0,0.0,0.0,0.0,0.0,0.0,0.0,0.0,0.0,0.0,0.0,0.0,0.0,0.0,0.0,0.0,0.0,0.0,0.0,0.0,0.0,0.0,0.0,0.0,0.0,0.0,0.0,0.0,0.0,0.0,0.0,0.0,0.0,0.0,0.0,0.0,0.0,0.0,0.0,0.0,0.0,0.0,0.0,0.0,0.0,0.0,0.0,0.0,0.0,0.0,0.0,0.0,0.0,0.0,0.0,0.0,0.0,0.0,0.0,0.0,0.0,0.0,0.0,0.0,0.0,0.0,0.0,0.0,0.0,0.0,0.0,0.0,0.0,0.0,0.0,0.0,0.0,0.0,0.0,0.0,0.0,0.0,0.0,0.0,0.0,0.0,0.0,0.0,0.0,0.0,0.0,0.0,0.0,0.0,0.0,0.0,0.0,0.0,0.0,0.0,0.0,0.0,0.0,0.0,0.0,0.0,0.0,0.0,0.0,0.0,0.0,0.0,0.0,0.0,0.0,0.0,0.0,0.0,0.0,0.0,0.0,0.0,0.0,0.0,0.0,0.0,0.0,0.0,0.0,0.0,0.0,0.0,0.0,0.0,0.0,0.0,0.0,0.0,0.0,0.0,0.0,0.0,0.0,0.0,0.0,0.0,0.0,0.0,0.0,0.0,0.0,0.0,0.0,0.0,0.0,0.0,0.0,0.0,0.0,0.0,0.0,0.0,0.0,0.0,0.0,0.0,0.0,0.0,0.0,0.0,0.0,0.0,0.0,0.0,0.0,0.0,0.0,0.0,0.0,0.0,0.0,0.0,0.0,0.0,0.0,0.0,0.0,0.0,0.0,0.0,0.0,0.0,0.0,0.0,0.0,0.0,0.0,0.0,0.0,0.0,0.0,0.0,0.0,0.0,0.0,0.0,0.0,0.0,0.0,0.0,0.0,0.0,0.0,0.0,0.0,0.0,0.0,0.0,0.0,0.0,0.0,0.0,0.0,0.0,0.0,0.0,0.0,0.0,0.0,0.0,0.0,0.0,0.0,0.0,0.0,0.0,0.0,0.0,0.0,0.0,0.0,0.0,0.0,0.0,0.0,0.0,0.0,0.0,0.0,0.0,0.0,0.0,0.0,0.0,0.0,0.0,0.0,0.0,0.0,0.0,0.0,0.0,0.0,0.0,0.0,0.0,0.0,0.0,0.0,0.0,0.0,0.0,0.0,0.0,0.0,0.0,0.0,0.0,0.0,0.0,0.0,0.0,0.0,0.0,0.0,0.0,0.0,0.0,0.0,0.0,0.0,0.0,0.0,0.0,0.0,0.0,0.0,0.0,0.0,0.0,0.0,0.0,0.0,0.0,0.0,0.0,0.0,0.0,0.0,0.0,0.0,0.0,0.0,0.0,0.0,0.0,0.0,0.0,0.0,0.0,0.0,0.0,0.0,0.0,0.0,0.0,0.0,0.0,0.0,0.0,0.0,0.0,0.0,0.0,0.0,0.0,0.0,0.0,0.0,0.0,0.0,0.0,0.0,0.0,0.0,0.0,0.0,0.0,0.0,0.0,0.0,0.0,0.0,0.0,0.0,0.0,0.0,0.0,0.0,0.0,0.0,0.0,0.0,0.0,0.0,0.0,0.0,0.0,0.0,0.0,0.0,0.0,0.0,0.0,0.0,0.0,0.0,0.0,0.0,0.0,0.0,0.0,0.0,0.0,0.0,0.0,0.0,0.0,0.0,0.0,0.0,0.0,0.0,0.0,0.0,0.0,0.0,0.0,0.0,0.0,0.0,0.0,0.0,0.0,0.0,0.0,0.0,0.0,0.0,0.0,0.0,0.0,0.0,0.0,0.0,0.0,0.0,0.0,0.0,0.0,0.0,0.0,0.0,0.0,0.0,0.0,0.0,0.0,0.0,0.0,0.0,0.0,0.0,0.0,0.0,0.0,0.0,0.0,0.0,0.0,0.0,0.0,0.0,0.0,0.0,0.0,0.0,0.0,0.0,0.0,0.0,0.0,0.0,0.0,0.0,0.0,0.0,0.0,0.0,0.0,0.0,0.0,0.0,0.0,0.0,0.0,0.0,0.0,0.0,0.0,0.0,0.0,0.0,0.0,0.0,0.0,0.0,0.0,0.0,0.0,0.0,0.0,0.0,0.0,0.0,0.0,0.0,0.0,0.0,0.0,0.0,0.0,0.0,0.0,0.0,0.0,0.0,0.0,0.0,0.0,0.0,0.0,0.0,0.0,0.0,0.0,0.0,0.0,0.0,0.0,0.0,0.0,0.0,0.0,0.0,0.0,0.0,0.0,0.0,0.0,0.0,0.0,0.0,0.0,0.0,0.0,0.0,0.0,0.0,0.0,0.0,0.0,0.0,0.0,0.0,0.0,0.0,0.0,0.0,0.0,0.0,0.0,0.0,0.0,0.0,0.0,0.0,0.0,0.0,0.0,0.0,0.0,0.0,0.0,0.0,0.0,0.0,0.0,0.0,0.0,0.0,0.0,0.0,0.0,0.0,0.0,0.0,0.0,0.0,0.0,0.0,0.0,0.0,0.0,0.0,0.0,0.0,0.0,0.0,0.0,0.0,0.0,0.0,0.0,0.0,0.0,0.0,0.0,0.0,0.0,0.0,0.0,0.0,0.0,0.0,0.0,0.0,0.0,0.0,0.0,0.0,0.0,0.0,0.0,0.0,0.0,0.0,0.0,0.0,0.0,0.0,0.0,0.0,0.0,0.0,0.0,0.0,0.0,0.0,0.0,0.0,0.0,0.0,0.0,0.0,0.0,0.0,0.0,0.0,0.0,0.0,0.0,0.0,0.0,0.0,0.0,0.0,0.0,0.0,0.0,0.0,0.0,0.0,0.0,0.0,0.0,0.0,0.0,0.0,0.0,0.0,0.0,0.0,0.0,0.0,0.0,0.0,0.0,0.0,0.0,0.0,0.0,0.0,0.0,0.0,0.0,0.0,0.0,0.0,0.0,0.0,0.0,0.0,0.0,0.0,0.0,0.0,0.0,0.0,0.0,0.0,0.0,0.0,0.0,0.0,0.0,0.0,0.0,0.0,0.0,0.0,0.0,0.0,0.0,0.0,0.0,0.0,0.0,0.0,0.0,0.0,0.0,0.0,0.0,0.0,0.0,0.0,0.0,0.0,0.0,0.0,0.0,0.0,0.0,0.0,0.0,0.0,0.0,0.0,0.0,0.0,0.0,0.0,0.0,0.0,0.0,0.0,0.0,0.0,0.0,0.0,0.0,0.0,0.0,0.0,0.0,0.0,0.0,0.0,0.0,0.0,0.0,0.0,0.0,0.0,0.0,0.0,0.0,0.0,0.0,0.0,0.0,0.0,0.0,0.0,0.0,0.0,0.0,0.0,0.0,0.0,0.0,0.0,0.0,0.0,0.0,0.0,0.0,0.0,0.0,0.0,0.0,0.0,0.0,0.0,0.0,0.0,0.0,0.0,0.0,0.0,0.0,0.0,0.0,0.0,7.4851,0.0,0.0,0.0,0.0,0.0,0.0,0.0,0.0,0.0,0.0,0.0,0.0,0.0,0.0,0.0,0.0,0.0,0.0,0.0,0.0,0.0,0.0,0.0,0.0,6.8256,6.9004,7.032,7.041,7.0949,7.2295,7.1757,0.0,0.0,0.0,0.0,7.2385,7.1398,7.1218,7.1876,7.0889,7.059,7.0859,7.0889,7.038,6.9453,0.0,0.0,0.0,0.0,0.0,0.0,0.0,0.0,0.0,0.0,0.0,0.0,0.0,0.0,0.0,0.0,0.0,0.0,0.0,0.0,0.0,0.0,0.0,0.0,0.0,0.0,0.0,0.0,0.0,0.0,0.0,0.0,0.0,0.0,0.0,0.0,0.0,0.0,0.0,0.0,0.0,0.0,0.0,0.0,0.0,0.0,0.0,0.0,0.0,0.0,0.0,0.0,0.0,0.0,0.0,0.0,0.0,0.0,0.0,0.0,0.0,0.0,0.0,0.0,0.0,0.0,0.0,0.0,0.0,0.0,0.0,7.7917,0.0,0.0,0.0,0.0,0.0,0.0,0.0,0.0,0.0,0.0,0.0,0.0,0.0,0.0,0.0,0.0,0.0,0.0,0.0,0.0,0.0,6.7418,6.8076,6.8764,6.9632,7.0799,7.1398,7.1996,7.2684,7.2624,7.2684,7.2894,7.2924,7.2954,7.3073,7.2415,7.2624,7.3732,7.2415,7.2176,7.2954,7.3919,7.3537,7.1918,7.0265,0.0,0.0,0.0,0.0,0.0,0.0,0.0,0.0,0.0,0.0,0.0,0.0,0.0,0.0,0.0,0.0,0.0,0.0,0.0,0.0,0.0,0.0,0.0,0.0,0.0,0.0,0.0,0.0,0.0,0.0,0.0,0.0,0.0,0.0,0.0,0.0,0.0,0.0,0.0,0.0,0.0,0.0,0.0,0.0,0.0,0.0,0.0,0.0,0.0,0.0,0.0,0.0,0.0,0.0,0.0,0.0,0.0,0.0,0.0,0.0,0.0,0.0,0.0,8.6432,8.8182,8.8713,9.0394,9.1271,9.1068,8.5384,8.2408,8.1426,7.9803,0.0,0.0,0.0,0.0,0.0,0.0,0.0,0.0,0.0,0.0,0.0,0.0,0.0,0.0,0.0,0.0,0.0,0.0,0.0,6.8106,6.8794,6.9453,7.0141,7.0829,7.0979,7.1308,7.1966,7.1487,7.1697,7.2864,7.2924,7.3193,7.3762,7.3103,7.2864,7.3043,7.454,7.5856,7.7053,7.9238,8.0176,7.9694,7.4054,7.2475,7.3911,0.0,0.0,0.0,0.0,0.0,0.0,0.0,0.0,0.0,0.0,0.0,0.0,0.0,0.0,0.0,0.0,0.0,0.0,0.0,0.0,0.0,0.0,0.0,0.0,0.0,0.0,0.0,0.0,0.0,0.0,0.0,0.0,0.0,0.0,0.0,0.0,0.0,0.0,0.0,0.0,0.0,6.6143,6.5334,0.0,0.0,0.0,0.0,0.0,0.0,0.0,0.0,0.0,0.0,0.0,0.0,0.0,8.3788,8.8272,9.1117,9.1994,9.1,9.4669,9.5473,9.3799,9.4662,9.5398,9.5905,9.4417,0.0,8.6805,8.464,0.0,0.0,0.0,0.0,0.0,0.0,0.0,0.0,0.0,0.0,0.0,0.0,0.0,0.0,0.0,0.0,0.0,0.0,0.0,0.0,0.0,7.0231,7.1457,7.2505,7.427,7.4839,7.3642,7.433,7.424,7.2954,7.2924,7.3043,7.3343,7.3073,7.3821,7.5647,7.84,8.0434,8.1721,8.3041,8.3718,8.3701,8.0381,7.8057,7.6516,7.4704,0.0,0.0,0.0,0.0,0.0,0.0,0.0,0.0,0.0,0.0,0.0,0.0,0.0,0.0,0.0,0.0,0.0,0.0,0.0,0.0,0.0,0.0,0.0,0.0,0.0,0.0,0.0,0.0,0.0,0.0,0.0,0.0,0.0,0.0,0.0,0.0,0.0,0.0,0.0,6.765,6.9179,6.7577,6.9367,6.9681,0.0,0.0,0.0,0.0,0.0,0.0,0.0,0.0,0.0,8.7224,8.8845,9.1178,9.4552,9.6717,9.851,9.9965,10.1622,10.2299,10.2198,10.2502,10.2603,10.2468,10.169,9.9424,9.5702,9.0087,8.6196,8.3422,0.0,0.0,0.0,0.0,7.6352,7.7435,0.0,0.0,0.0,0.0,0.0,0.0,0.0,0.0,0.0,0.0,0.0,0.0,6.9632,7.1637,7.3522,7.5018,7.7233,7.7771,7.5976,7.6305,7.5467,7.3013,7.2744,7.2654,7.2654,7.3642,7.5707,7.8819,8.232,8.4941,8.6637,8.7471,8.8062,8.8446,8.759,8.4561,8.0042,7.8161,7.6105,7.3894,0.0,0.0,0.0,0.0,0.0,0.0,0.0,0.0,0.0,0.0,0.0,0.0,0.0,0.0,0.0,0.0,0.0,0.0,0.0,0.0,0.0,0.0,0.0,0.0,0.0,0.0,0.0,0.0,0.0,0.0,0.0,0.0,0.0,0.0,0.0,0.0,0.0,7.0428,7.2152,6.9883,7.3421,7.4197,0.0,0.0,0.0,0.0,0.0,0.0,8.5195,8.7313,9.0121,9.4045,9.6379,9.8713,10.1115,10.2401,10.4498,10.7204,10.7407,10.8016,10.8896,10.9099,10.8625,10.7712,10.7204,10.5716,10.3009,9.5364,9.056,8.7685,8.393,8.2137,8.1629,8.1257,8.1697,8.2678,0.0,0.0,0.0,0.0,0.0,0.0,0.0,0.0,0.0,0.0,0.0,6.9662,7.1547,7.4121,7.6485,7.837,7.813,7.8071,7.8549,7.5198,7.3073,7.2924,7.2295,7.1936,7.1936,7.5617,7.8878,8.1572,8.5521,8.8996,9.1932,9.3676,9.5034,9.5969,9.5148,9.1449,8.5618,8.052,7.8831,7.9181,7.4015,0.0,0.0,0.0,0.0,0.0,0.0,0.0,0.0,0.0,0.0,0.0,0.0,0.0,0.0,0.0,0.0,0.0,0.0,0.0,0.0,0.0,0.0,0.0,0.0,0.0,0.0,0.0,0.0,0.0,0.0,0.0,0.0,0.0,0.0,0.0,0.0,0.0,0.0,7.1798,7.8121,0.0,0.0,0.0,0.0,8.0451,8.4686,8.834,9.0763,9.3706,9.7326,10.1792,10.4092,10.6697,10.9708,11.0418,11.0892,11.1095,11.1805,11.1805,11.1298,11.1974,11.1501,11.0114,11.0114,10.8794,10.6189,10.01,9.6277,9.3876,9.0121,8.8598,8.8429,8.7042,8.7414,8.8564,0.0,0.0,0.0,0.0,0.0,6.2929,6.3348,6.4156,6.5114,6.6221,6.8286,7.0709,7.3492,7.7322,8.0464,8.2439,8.3576,8.3547,8.208,7.8669,7.6305,7.5467,7.3163,7.3073,7.5647,7.834,8.208,8.6868,8.995,9.3147,9.6318,9.7585,9.8422,9.888,9.8352,9.642,9.32,8.7264,8.3163,8.0395,7.6717,7.3652,0.0,0.0,0.0,0.0,0.0,0.0,0.0,0.0,0.0,0.0,0.0,0.0,0.0,0.0,0.0,0.0,0.0,0.0,0.0,0.0,0.0,0.0,0.0,0.0,0.0,0.0,0.0,0.0,0.0,0.0,0.0,0.0,0.0,0.0,0.0,0.0,0.0,8.1918,8.789,0.0,8.5024,8.6626,8.826,8.8966,9.1942,9.5533,9.9694,10.1792,10.4802,10.8794,10.9674,11.1298,11.3801,11.4105,11.4511,11.4917,11.5188,11.468,11.3496,11.3801,11.3395,11.2414,11.1906,11.0993,10.9505,10.5919,10.2028,9.7901,9.4146,9.2421,9.1846,9.0831,9.1102,9.2015,0.0,0.0,0.0,0.0,6.1642,6.2331,6.2989,6.3797,6.4814,6.6161,6.9034,7.2385,7.6155,8.0674,8.4414,8.6838,8.7646,8.7077,8.4863,8.0584,7.7532,7.6215,7.4061,7.4659,7.84,8.1751,8.594,9.0997,9.384,9.6682,9.9468,10.0005,10.0515,10.1032,10.0734,10.0103,9.8877,9.3724,8.8589,8.348,7.9847,7.7169,7.4861,0.0,0.0,0.0,0.0,0.0,0.0,0.0,0.0,0.0,0.0,0.0,0.0,0.0,0.0,0.0,0.0,0.0,0.0,0.0,0.0,0.0,0.0,0.0,0.0,0.0,0.0,0.0,0.0,0.0,0.0,0.0,0.0,0.0,0.0,0.0,8.7398,8.9147,9.5522,9.8123,9.393,9.5109,9.6514,9.7258,9.9627,10.2874,10.7069,10.8693,11.0993,11.4274,11.4579,11.5492,11.6913,11.6913,11.6913,11.6913,11.6913,11.6304,11.5086,11.5086,11.468,11.3902,11.3192,11.2279,11.1196,10.92,10.6223,10.2536,9.9322,9.7631,9.6886,9.6379,9.6379,9.6582,0.0,0.0,0.0,6.0984,6.1642,6.2301,6.2959,6.4156,6.5443,6.6819,7.047,7.4719,7.9387,8.4055,8.8155,9.1476,8.989,8.8155,8.6868,8.0524,7.6245,7.4988,7.5048,7.6664,8.0045,8.5821,9.0429,9.3721,9.6982,9.9438,10.1154,10.1003,10.1631,10.2567,10.2486,10.2441,10.2287,9.9578,9.4992,8.9082,8.3541,8.1633,8.1417,0.0,0.0,0.0,0.0,0.0,0.0,0.0,0.0,0.0,0.0,0.0,0.0,0.0,0.0,0.0,0.0,0.0,0.0,0.0,0.0,0.0,0.0,0.0,0.0,0.0,0.0,0.0,0.0,0.0,0.0,0.0,0.0,0.0,7.7108,8.5221,9.1534,9.2874,10.0601,10.4185,10.0008,10.3517,10.5817,10.5073,10.7779,11.0384,11.2482,11.4004,11.5797,11.803,11.8808,11.918,11.918,11.918,11.8402,11.6913,11.6913,11.6507,11.5831,11.5831,11.5391,11.468,11.3902,11.2786,11.1298,10.9809,10.8693,10.7813,10.5513,10.4193,10.3585,10.3483,10.3009,10.213,0.0,0.0,5.9727,6.0924,6.1253,6.1762,6.2899,6.3378,6.4425,6.67,7.0859,7.5766,8.1332,8.6928,9.1596,9.4917,9.1656,8.9232,8.8873,8.0883,7.6185,7.6275,7.8609,8.211,8.6868,8.995,9.3391,9.7162,9.9017,10.0485,10.1356,10.224,10.291,10.3518,10.342,10.3257,10.3026,10.1795,9.9732,9.6654,8.9759,8.5019,8.1694,0.0,0.0,0.0,0.0,0.0,0.0,0.0,0.0,0.0,0.0,0.0,0.0,0.0,0.0,0.0,0.0,0.0,0.0,0.0,0.0,0.0,0.0,0.0,0.0,0.0,0.0,0.0,0.0,0.0,0.0,0.0,7.8093,8.2064,8.3418,9.0929,9.789,10.2193,10.8346,11.1717,11.045,11.2008,11.2718,11.1974,11.3699,11.5019,11.5695,11.6609,11.7488,11.8097,11.83,11.8402,11.8402,11.8402,11.7894,11.6913,11.6913,11.6507,11.5831,11.5831,11.5391,11.468,11.4477,11.3293,11.1298,11.0384,10.92,10.7712,10.5005,10.3787,10.3314,10.1115,9.9863,9.9187,0.0,5.9099,5.9428,6.0505,6.0924,6.1463,6.251,6.3109,6.4306,6.667,7.1727,7.7173,8.2589,8.8215,9.2613,9.5097,9.1357,8.8245,8.6868,8.0464,7.7113,7.8041,8.205,8.6359,9.0788,9.3661,9.6473,9.9346,10.0693,10.1501,10.189,10.3024,10.3818,10.4307,10.4704,10.4911,10.4996,10.4073,10.318,10.1979,9.647,9.1945,8.7974,8.3541,8.1233,8.0063,7.7847,7.76,7.797,7.5723,0.0,0.0,0.0,0.0,0.0,0.0,0.0,0.0,0.0,0.0,0.0,0.0,0.0,0.0,0.0,0.0,0.0,0.0,0.0,0.0,0.0,0.0,0.0,0.0,8.348,8.8251,9.1606,9.7483,10.3057,10.7817,11.2741,11.5898,11.6507,11.671,11.6609,11.6203,11.6913,11.7522,11.7827,11.83,11.8808,11.9484,11.9518,11.9518,11.9518,11.918,11.8503,11.7387,11.671,11.6203,11.5831,11.5188,11.4816,11.468,11.4004,11.2888,11.1298,11.0283,10.9099,0.0,0.0,0.0,0.0,0.0,9.9593,9.8916,0.0,5.9099,5.9308,5.9967,6.0655,6.1343,6.2002,6.3169,6.4725,6.6729,7.2744,7.8489,8.2828,8.8065,9.1835,9.3242,8.9621,8.5881,8.2649,7.9806,7.9058,8.0853,8.5791,9.004,9.3421,9.7012,9.9496,10.0812,10.2009,10.2608,10.2698,10.3631,10.4274,10.5066,10.5927,10.6721,10.7305,10.6104,10.5581,10.5396,10.2811,10.0009,9.6716,9.0467,8.8651,8.902,8.5727,8.3233,8.1294,8.0155,0.0,0.0,0.0,0.0,0.0,0.0,0.0,0.0,0.0,0.0,0.0,0.0,0.0,0.0,0.0,0.0,0.0,0.0,0.0,0.0,0.0,0.0,0.0,0.0,8.8866,9.4099,9.9763,10.3666,10.7113,11.017,11.452,11.7617,11.892,11.8631,11.8402,11.8503,11.8402,11.8605,11.9281,0.0,0.0,0.0,0.0,12.1108,12.1006,12.0296,11.918,11.7827,11.6406,11.5628,11.5526,11.4207,11.3902,11.4274,11.2989,11.1974,11.0993,10.9606,10.8388,10.7306,10.602,10.5005,10.3889,10.1893,10.0608,9.9965,0.0,5.9099,5.9308,5.9967,6.0655,6.1343,6.2002,6.3169,6.4725,6.6729,7.2744,7.7771,8.0315,8.5761,9.001,9.1835,8.7407,8.3337,8.0584,8.0794,8.3038,8.7556,9.1297,9.5067,9.8867,10.0274,10.1561,10.2817,10.3117,10.3506,10.4014,10.4204,10.4832,10.5704,10.5921,10.6508,10.7397,10.7089,10.6997,10.6874,10.5273,10.1979,9.7793,9.4838,9.2499,9.0529,8.822,8.8466,8.9267,8.5296,8.4619,8.4742,8.0771,7.7816,0.0,0.0,0.0,0.0,0.0,0.0,0.0,0.0,0.0,0.0,0.0,0.0,0.0,0.0,0.0,0.0,0.0,0.0,0.0,8.7451,9.3576,9.8747,10.161,10.568,10.8591,10.929,11.4933,11.8482,11.8004,11.9094,12.0093,12.0702,12.0195,11.989,12.0059,12.0059,12.0195,12.0465,11.989,11.9315,11.8706,11.7996,11.7116,11.6237,0.0,0.0,11.4004,11.3699,11.3023,11.2076,11.238,11.1365,10.9572,10.8625,10.6392,10.3618,10.3889,10.2806,10.0912,9.9931,9.9085,9.8341,0.0,5.9099,5.9219,5.9548,6.0146,6.0835,6.1493,6.2421,6.3887,6.6191,7.1068,7.5258,7.7592,8.1691,8.4654,8.5641,8.238,8.0016,7.9357,8.2409,8.6599,9.1895,9.5606,9.8927,10.189,10.2608,10.3266,10.3895,10.3895,10.4104,10.4403,10.4719,10.522,10.6086,10.686,10.7607,10.8073,10.832,10.8197,10.7797,10.6781,10.4996,10.2595,9.9856,9.7547,9.5608,9.4253,9.3545,9.2837,9.0067,8.8959,8.8159,8.508,8.2495,8.0032,0.0,0.0,0.0,0.0,0.0,0.0,0.0,0.0,0.0,0.0,0.0,0.0,0.0,0.0,7.6985,8.0032,0.0,8.8436,9.3884,9.8193,10.1702,10.4073,10.7737,10.9912,10.9596,11.4531,11.7817,11.7614,11.9165,12.0465,12.0803,12.0465,12.0262,12.0262,12.0262,12.0093,11.9789,11.9383,11.8808,11.8097,11.7319,11.6507,11.5831,11.4714,11.4004,11.3598,11.2482,11.1703,11.1399,11.0993,10.9978,10.849,10.7407,10.5208,10.2502,10.2502,10.1318,9.966,9.966,9.895,9.7969,0.0,5.9099,5.9099,5.9099,5.9638,6.0326,6.1014,6.1792,6.3139,6.5503,6.9153,7.2355,7.451,7.7083,7.8609,7.8489,7.7592,7.7831,7.9806,8.4773,9.019,9.5905,9.9556,10.2309,10.4134,10.4583,10.4882,10.5002,10.5002,10.5032,10.5181,10.5541,10.6003,10.6761,10.8076,10.8639,10.8828,10.9269,10.9057,10.8351,10.7767,10.7489,10.7089,10.4288,10.241,10.1179,10.0102,9.7455,9.4376,9.3792,9.1822,8.9421,8.8466,8.6835,8.4619,8.1202,7.917,0.0,0.0,0.0,0.0,0.0,0.0,0.0,0.0,7.3229,7.4676,7.7908,7.9909,8.2433,8.6958,9.0067,9.3822,9.9394,10.1918,10.3919,10.6073,10.8693,11.0205,10.9607,11.384,11.6731,11.6841,11.8607,11.9805,11.9974,11.9873,11.9924,12.0296,12.0262,11.9958,11.918,11.9078,11.8605,11.7894,11.6913,11.6203,11.5831,11.4207,11.3293,11.309,11.1196,11.0486,11.0689,10.9302,10.8185,10.7204,10.5783,10.3923,10.1995,10.1216,10.01,9.8984,9.9728,9.9051,9.78,0.0,5.9099,5.9099,5.9099,5.9638,6.0326,6.1014,6.2181,6.3498,6.4934,6.8106,7.032,7.062,7.2984,7.433,7.3732,7.6155,7.9507,8.3786,8.8454,9.4229,10.1291,10.3715,10.551,10.6917,10.6408,10.6498,10.7066,10.7066,10.7366,10.7904,10.7434,10.766,10.8811,10.8396,10.8475,10.8896,10.9374,10.9323,10.8589,10.8412,10.792,10.7305,10.6289,10.5489,10.4473,10.201,9.8532,9.5146,9.5054,9.3237,9.1083,9.1514,9.0683,8.8866,8.5419,8.1387,7.7416,7.4553,7.1598,6.972,7.1259,7.169,7.3014,0.0,7.957,8.0832,8.3634,8.6281,8.8436,8.9667,9.45,9.8747,10.0102,10.3488,10.6073,10.6381,10.7179,10.7824,10.7731,11.3539,11.648,11.4042,11.6296,11.8219,11.8817,11.8318,11.8619,12.0186,12.0262,11.9958,11.918,11.8605,11.7827,11.7015,11.5594,11.5222,11.5797,11.3598,11.2279,11.1602,11.0722,10.9606,10.8321,10.7509,10.6392,10.4971,10.3483,10.1927,10.0405,9.966,9.8848,9.8206,9.895,9.8273,9.7022,0.0,0.0,5.9099,5.9099,5.9338,5.9877,6.0954,6.1583,6.254,6.4216,6.5981,6.7238,6.7627,6.9004,6.9453,6.8405,7.3103,7.822,8.3247,8.9711,9.6593,10.3895,10.572,10.7186,10.8503,10.7904,10.7695,10.7964,10.7964,10.8084,10.8383,10.8084,10.8183,10.865,10.9225,10.918,10.9141,11.002,11.0001,10.9362,10.8947,10.8464,10.7949,10.608,10.3898,10.161,9.9671,9.6623,0.0,9.2129,9.1514,9.1267,9.1544,9.0159,8.8097,8.625,8.2064,7.7447,7.4738,7.2952,7.206,7.2922,7.4953,7.76,8.1048,8.3295,8.5604,8.9082,9.1668,9.4253,9.7331,9.9979,10.241,10.4688,10.6104,10.6997,10.6997,10.7212,10.6812,10.5273,10.8896,11.1488,11.1352,11.3462,11.4892,11.5186,11.6028,11.6657,11.7505,11.8525,11.8672,11.7894,11.759,11.6812,11.5594,11.4579,11.4004,11.3869,11.2076,11.1095,11.0722,10.9505,10.8118,10.6697,10.5919,10.4769,10.3382,10.2806,10.1318,9.9525,9.9221,9.8375,9.7495,9.8645,9.8172,9.6886,0.0,0.0,0.0,5.9099,5.9099,5.9488,6.0655,6.0984,6.1672,6.3258,6.4066,6.4725,6.5383,6.5892,6.5862,6.5084,7.0081,7.5736,8.1572,8.9052,9.6653,10.4313,10.6408,10.8204,10.9909,10.94,10.9281,10.946,10.946,10.946,10.946,10.9071,10.9101,10.946,10.98,10.9909,10.9728,11.0373,11.0335,10.9571,10.8886,10.7989,10.6811,10.3912,9.9991,9.5998,9.5465,9.256,8.862,8.6989,8.6804,8.7451,8.8189,8.7327,8.585,8.4773,8.0617,7.5938,7.3968,7.3568,7.403,7.5353,7.8462,8.1971,8.4926,8.7451,9.0282,9.4315,9.65,9.8778,10.2472,10.358,10.4811,10.7397,10.7582,10.7489,10.7612,10.7028,10.5612,10.3118,10.3799,10.5025,10.6699,10.9704,11.1547,11.1772,11.3242,11.4233,11.4714,11.6028,11.6344,11.5465,11.5885,11.5471,11.3991,11.3518,11.2989,11.2482,11.079,11.0012,10.9911,10.8219,10.6595,10.5208,10.4396,10.3382,10.2198,10.1724,10.0506,9.8781,9.8578,9.7698,9.6717,9.78,9.7394,9.6311,0.0,0.0,0.0,0.0,5.9099,5.9338,5.9997,6.0685,6.1373,6.2061,6.272,6.3378,6.3977,6.4066,6.4336,6.4964,6.7567,7.2235,7.9447,8.612,9.3631,10.2189,10.569,10.8593,11.1196,11.1196,11.1495,11.2183,11.2183,11.2183,11.2153,11.0897,11.0927,11.2094,11.0208,11.0089,11.1238,11.045,10.9715,10.915,10.8305,10.5977,10.2819,9.9477,9.3921,8.8043,8.9821,8.6158,8.0371,7.9663,7.8524,7.7908,8.0555,8.2218,8.2833,8.0863,7.6431,7.2152,7.206,7.2521,7.4122,7.877,8.1971,8.5388,9.0744,9.3053,9.5207,9.9271,10.0687,10.1425,10.2287,10.4011,10.5581,10.6289,10.6997,10.7612,10.829,10.6135,10.3734,10.1641,9.917,9.7876,0.0,10.452,10.8472,10.92,10.9865,11.1044,11.2812,11.2863,11.2621,11.189,11.3469,11.3702,11.2211,11.2439,11.2482,11.2482,11.0283,10.92,10.9166,10.69,10.5107,10.3618,10.2908,10.2096,10.1284,9.9796,9.8747,9.7969,9.7225,9.648,9.5838,9.5872,9.5432,9.489,0.0,0.0,0.0,0.0,0.0,5.9189,5.9398,5.9997,6.0835,6.1942,6.266,0.0,0.0,0.0,0.0,0.0,6.6969,7.1158,7.6215,8.3547,9.0579,9.6982,10.2099,10.56,10.7336,10.8682,10.946,10.967,11.0597,11.0986,11.0986,11.0119,11.0388,11.1585,11.0089,10.9879,11.0597,10.993,10.904,10.781,10.533,10.3325,10.1367,9.7451,9.1312,8.4528,0.0,7.8555,7.4461,7.286,7.2614,7.3291,7.5138,7.5384,7.4615,7.2614,7.2952,7.3968,7.3968,7.6461,7.994,8.3818,8.7481,9.1083,9.4746,9.7331,9.9332,10.0717,10.044,10.004,10.0317,10.0902,10.1887,10.3488,10.5058,10.6166,10.6381,10.5212,10.2626,9.7885,9.69,0.0,0.0,0.0,0.0,10.5072,10.6542,10.8041,10.9524,11.0728,11.1175,11.0981,11.1061,11.1018,11.0601,10.9804,10.97,11.0283,10.849,10.717,10.6156,10.4904,10.3787,10.2806,10.2096,10.1014,9.9796,9.8781,9.7935,9.7191,9.6447,9.5702,9.506,9.506,9.4282,9.33,0.0,0.0,0.0,0.0,0.0,0.0,0.0,0.0,0.0,0.0,0.0,0.0,0.0,0.0,0.0,0.0,0.0,6.8794,7.2535,7.8639,8.4594,9.013,9.4469,9.7581,9.9406,10.0483,10.1471,10.2398,10.4194,10.551,10.6438,10.6528,10.7276,10.8413,10.7605,10.7904,10.8832,10.7994,10.6707,10.4912,10.0902,9.7819,9.5106,9.0023,8.3971,0.0,7.3642,7.0281,6.7696,6.6735,6.7104,6.8181,6.9074,6.8889,6.8304,6.7997,7.0582,7.403,7.6215,7.994,8.4157,8.8312,9.2006,9.5454,9.844,10.0102,10.0933,10.0933,9.9301,9.7732,9.7208,9.6346,9.6623,9.9394,10.0687,10.2072,10.4073,10.2903,10.041,9.647,9.5084,9.3884,0.0,0.0,0.0,10.161,10.369,10.5219,10.6346,10.7564,10.8368,10.8368,10.83,10.8054,10.7831,10.7235,10.6993,10.7126,10.5916,10.491,10.4295,10.3517,10.2806,10.2028,10.098,9.9863,9.8645,9.7901,9.7022,9.6074,9.5601,9.4958,9.4282,9.3977,9.3267,9.2489,0.0,0.0,0.0,0.0,0.0,0.0,0.0,0.0,0.0,0.0,0.0,0.0,0.0,0.0,0.0,0.0,0.0,0.0,6.8585,7.1876,7.6245,8.1961,8.3666,8.5671,8.8215,8.7796,8.8783,9.1267,9.387,9.6414,9.8867,10.0124,10.1411,10.2638,10.2608,10.3685,10.548,10.4104,10.2398,10.0184,9.5007,8.989,8.4654,7.828,7.2763,6.7968,6.4865,6.2299,6.0521,6.1427,6.2218,6.2864,6.2948,6.3502,6.4611,6.735,6.969,7.2706,7.877,8.2926,8.6804,9.2099,9.5423,9.8255,10.1487,10.121,10.0225,9.9948,9.7147,9.4284,9.2745,9.0498,9.0221,9.4253,9.4653,9.6346,10.1702,9.964,9.7516,9.7301,9.3884,9.1729,0.0,0.0,0.0,9.887,0.0,10.2595,10.3395,10.4011,10.435,10.435,10.529,10.5152,10.3813,10.4646,10.4484,10.3214,10.2627,10.2688,10.3285,10.2674,10.1995,10.1183,9.9694,9.8612,9.7901,9.7089,9.5939,9.4687,9.462,9.4146,9.3436,9.2658,9.2353,9.2319,0.0,0.0,0.0,0.0,0.0,0.0,0.0,0.0,0.0,0.0,0.0,0.0,0.0,0.0,0.0,0.0,0.0,0.0,6.5922,6.9123,7.2086,7.454,7.8759,8.1601,8.2798,8.4564,8.5791,8.6479,8.8125,8.9292,8.998,8.9801,9.0698,9.2404,9.1416,9.2075,9.381,9.2524,9.1087,8.9382,8.5581,8.2649,8.0238,7.6864,7.2606,6.8271,6.7214,6.4071,6.0407,6.0463,6.2035,6.412,6.4894,6.6273,6.812,7.089,7.4553,7.877,8.3357,8.7789,9.1945,9.5392,9.7516,9.9024,9.9886,9.9825,9.8563,9.5023,9.0775,8.6681,8.3295,8.3757,8.5819,8.9421,9.4099,9.8655,10.2595,10.241,10.0717,9.767,9.6377,9.5023,9.3114,9.3422,0.0,0.0,9.924,10.1087,10.3303,10.358,10.3703,10.3703,10.3371,10.3011,10.2328,10.2173,10.1716,10.0921,10.1409,10.1077,10.0219,10.1205,10.098,9.9627,9.8679,9.7867,9.7056,9.5804,9.506,9.4586,9.347,9.2895,9.2624,9.188,9.1237,9.0763,0.0,0.0,0.0,0.0,0.0,0.0,0.0,0.0,0.0,0.0,0.0,0.0,0.0,0.0,0.0,0.0,0.0,0.0,0.0,6.5922,6.7388,6.8375,7.0739,7.2206,7.2565,7.3762,7.5048,7.6514,7.7831,7.9357,8.1093,8.1003,8.1721,8.3098,8.3187,8.4025,8.5282,8.4863,8.3726,0.0,0.0,7.5736,7.3799,7.1058,6.8026,6.517,6.4712,6.2919,6.1001,6.2845,6.4763,6.6568,6.7491,6.9786,7.2675,7.5805,7.9588,8.3757,8.8436,9.2499,9.5864,9.785,9.9009,9.9124,9.6867,9.5998,9.4007,8.7758,8.3603,7.9971,7.6184,7.7231,8.0063,8.4372,9.0005,9.5669,10.0902,10.161,10.1087,9.9702,9.8994,9.7793,9.5638,9.6069,9.6962,0.0,9.887,10.0225,10.241,10.2811,10.2811,10.2503,10.1826,10.0867,9.9806,9.8947,9.8533,9.848,9.8408,9.8182,9.8096,9.9019,9.8938,9.813,0.0,9.7089,9.6311,9.5161,9.4518,9.4112,9.2895,9.2218,9.1846,9.1102,9.0154,8.9241,0.0,0.0,0.0,0.0,0.0,0.0,0.0,0.0,0.0,0.0,6.0206,6.0326,0.0,0.0,0.0,0.0,0.0,0.0,0.0,0.0,6.3288,6.3737,6.269,6.2061,6.1972,6.1493,6.26,6.5353,6.658,6.8914,7.2206,7.2774,7.3432,7.4151,7.5826,7.6993,7.7771,7.834,7.7562,7.5677,7.2235,6.9423,6.6999,0.0,6.2301,6.1134,6.0411,6.0531,6.1725,6.6549,6.8817,6.9818,7.129,7.429,7.8077,8.1715,8.4858,8.8254,9.3342,9.6572,9.8671,9.944,9.979,9.8517,9.3362,9.1153,8.793,7.9995,7.6489,7.3937,7.0645,7.1536,7.4553,8.0155,8.5234,9.1052,9.8532,9.9671,10.041,10.2287,10.1487,10.0225,9.8963,9.9363,9.9732,9.9732,9.964,10.0133,10.1425,10.1979,10.1918,10.121,10.0317,9.8963,9.7301,9.5762,9.5375,9.6143,9.4858,9.4851,9.6098,9.6321,9.6333,9.6234,9.6385,0.0,9.5325,9.4797,9.4112,9.3334,9.2556,9.1812,9.1034,9.0222,8.9106,8.7989,0.0,0.0,0.0,0.0,0.0,0.0,0.0,0.0,0.0,0.0,6.0775,6.0116,0.0,0.0,0.0,0.0,0.0,0.0,0.0,0.0,0.0,6.245,6.2211,6.1852,6.1313,6.1702,6.1942,6.1972,6.275,6.3199,6.3348,6.3438,6.3857,6.4515,6.4844,6.5652,6.6759,6.6849,6.67,6.634,6.5652,6.4784,6.3857,6.3288,0.0,0.0,6.0811,6.0475,6.1494,6.7517,7.1192,7.3876,7.7775,8.1572,8.5279,8.8265,9.0707,9.3087,9.6206,9.8186,9.944,9.9568,9.8717,9.6551,9.1514,8.7783,8.3184,7.5653,7.1537,6.8495,6.5963,6.8651,7.3414,8.0001,8.6004,9.2468,9.9917,10.1487,10.2195,10.3118,10.3026,10.2595,10.1795,10.1795,0.0,0.0,10.1302,10.1333,10.2195,10.1795,10.121,10.0533,9.8224,9.7085,9.7301,9.4807,9.3643,9.3805,9.3134,9.2687,9.2406,9.3674,9.3614,9.2542,9.3658,0.0,9.3162,9.3627,9.3334,9.2556,9.1778,9.1034,9.0222,8.8869,8.8226,8.7922,0.0,0.0,0.0,0.0,0.0,0.0,0.0,6.0864,6.1343,6.3348,6.3049,6.2271,6.1253,6.0805,6.0565,0.0,0.0,0.0,0.0,0.0,0.0,6.1074,6.1044,6.0745,6.0086,6.0386,6.0715,6.1104,0.0,6.0745,6.1104,6.0386,6.0236,6.0565,6.0894,6.1583,6.251,6.2869,6.3019,6.3019,6.3019,6.263,6.2091,6.245,0.0,0.0,6.0221,6.0246,6.1537,6.6312,7.1171,7.6236,8.1407,8.6183,9.029,9.2525,9.4631,9.6846,9.9165,10.0856,10.1823,10.0662,9.8175,9.4106,8.7078,8.2162,7.6865,6.8971,6.6243,6.4623,6.2663,6.5888,7.0459,7.5507,8.0586,8.6958,9.5854,9.7701,9.9578,10.3488,10.4196,10.4196,10.3519,10.3426,10.3303,10.2934,0.0,10.201,10.238,10.1025,10.0133,9.9794,9.7516,9.6285,9.6254,9.4592,9.3576,9.3176,9.2303,9.15,9.0813,9.1604,9.1264,8.9988,9.1401,0.0,9.1006,9.2063,9.2313,9.1877,9.1479,9.0865,9.0019,8.8531,8.7516,8.6805,0.0,0.0,0.0,0.0,0.0,0.0,6.266,6.2301,6.2839,6.5892,6.6161,6.5383,6.3558,6.1792,6.0505,0.0,0.0,0.0,0.0,0.0,0.0,0.0,0.0,0.0,5.9129,0.0,0.0,6.0685,5.9757,0.0,0.0,0.0,0.0,0.0,5.9638,6.0266,6.0924,6.1613,6.1972,0.0,0.0,6.1912,6.1373,0.0,0.0,0.0,0.0,5.9907,6.1224,6.4814,6.9976,7.5866,8.1296,8.7459,9.304,9.4343,9.6496,9.8987,10.1,10.2693,10.3387,10.1336,9.7234,9.1583,8.304,7.7213,7.138,6.3425,6.2127,6.1981,6.0774,6.3653,6.7504,7.1352,7.5015,8.0832,9.0744,9.3207,9.6377,10.2811,10.4504,0.0,10.4504,10.4411,0.0,10.3488,0.0,0.0,10.2195,10.0317,9.924,9.9086,9.7116,9.5731,9.5054,9.4253,9.3545,9.296,9.1483,9.0436,8.9728,8.9744,8.8975,8.7827,8.9375,0.0,0.0,9.0122,9.0592,9.0523,9.0133,8.985,8.9384,8.807,8.6923,8.5993,0.0,0.0,0.0,0.0,0.0,0.0,6.266,6.3438,6.5323,6.9782,6.9871,6.9004,6.7597,6.4665,6.1822,0.0,0.0,0.0,0.0,0.0,0.0,0.0,0.0,0.0,0.0,0.0,0.0,5.9279,5.9757,0.0,0.0,0.0,0.0,0.0,0.0,5.9548,6.0236,6.0924,0.0,0.0,0.0,0.0,0.0,0.0,0.0,0.0,0.0,5.9697,5.9967,6.4485,6.7627,7.0415,7.4548,8.3447,9.2414,9.2723,9.5513,9.8778,9.998,10.1215,10.1727,9.9798,9.517,8.9247,8.2425,7.5587,6.891,6.2525,6.1041,6.0976,6.0936,6.2663,6.5842,7.1105,7.3845,7.8401,8.7389,9.1329,9.5115,10.0102,0.0,0.0,10.4411,10.4411,0.0,0.0,0.0,0.0,10.1425,10.0102,9.9024,9.8409,9.6408,9.5054,9.4376,9.3053,9.2376,9.2314,9.0344,8.902,8.8343,8.7754,8.6717,8.5493,8.7623,0.0,0.0,8.7631,8.7661,8.7435,8.6258,8.6441,8.7268,8.6505,8.6463,8.6704,0.0,0.0,0.0,0.0,0.0,0.0,6.3169,6.3199,6.4784,7.0201,7.0679,7.032,6.9782,6.7508,6.4306,6.0057,0.0,0.0,0.0,0.0,0.0,0.0,0.0,0.0,0.0,0.0,5.9368,5.9099,5.9368,0.0,0.0,0.0,0.0,0.0,0.0,5.9697,6.0715,6.1014,0.0,0.0,0.0,0.0,0.0,0.0,0.0,0.0,0.0,0.0,5.9398,6.1224,6.3977,6.667,6.7059,7.3387,8.1705,8.7397,9.1517,9.496,9.8238,10.0461,10.1517,9.9799,9.3975,8.7197,8.1451,7.3864,6.661,6.1739,6.0516,6.0363,6.0638,6.1126,6.2755,6.6462,6.6959,6.9972,7.9016,8.1387,8.5665,9.493,9.8101,0.0,0.0,0.0,10.398,0.0,0.0,0.0,10.0748,9.9825,9.8809,9.7732,9.6131,9.4961,9.4284,9.3299,9.2622,9.2222,9.099,8.9851,8.8774,8.7666,8.6435,8.5111,8.6008,0.0,0.0,8.6261,8.6611,8.655,8.6017,8.6098,8.6402,8.5196,8.4859,8.499,0.0,0.0,0.0,0.0,0.0,6.0206,6.3498,6.3408,6.4874,7.0201,7.0889,7.0979,7.1158,6.8734,6.5592,6.1882,6.0057,0.0,0.0,0.0,0.0,0.0,0.0,0.0,0.0,0.0,5.9099,5.9099,5.9099,5.9428,0.0,0.0,5.9458,6.0057,0.0,0.0,0.0,0.0,0.0,0.0,0.0,0.0,0.0,0.0,0.0,0.0,0.0,0.0,0.0,0.0,0.0,6.3288,6.1702,6.5114,7.1487,8.0524,8.6416,9.0984,9.5274,9.8926,10.1034,9.9078,9.2952,8.5933,8.0179,7.2433,6.5228,6.1042,6.0106,6.0092,6.0324,6.025,6.0768,6.2872,6.2603,6.485,7.2706,7.4676,7.9016,8.902,0.0,9.5238,0.0,10.241,0.0,0.0,0.0,0.0,10.004,9.9178,9.8193,9.7024,9.5885,9.4746,9.3668,9.3145,9.2468,9.1637,9.1144,9.0098,8.8559,8.7389,8.6219,8.508,8.4896,0.0,0.0,8.4768,8.4995,8.4907,8.456,8.4764,8.5117,8.3864,8.3346,8.3267,0.0,0.0,0.0,0.0,0.0,6.0206,6.3498,6.4575,6.643,7.038,7.0889,7.1158,7.1816,6.7807,6.5054,6.4934,6.1373,0.0,0.0,0.0,0.0,0.0,0.0,0.0,0.0,0.0,5.9099,5.9099,5.9099,5.9428,6.0086,5.9398,5.9458,6.0057,0.0,0.0,0.0,0.0,0.0,0.0,0.0,0.0,6.0027,0.0,0.0,0.0,0.0,0.0,0.0,0.0,0.0,0.0,0.0,6.0565,6.3887,7.2475,8.0584,8.7496,9.0788,9.5865,9.9649,9.7249,9.196,8.5495,7.8441,7.1413,6.5107,6.044,5.9773,6.0092,6.0324,6.0377,6.0696,6.1664,6.2948,6.5472,7.0274,7.3876,7.7785,0.0,0.0,8.8374,9.3822,9.8593,0.0,0.0,0.0,0.0,9.9363,9.8039,9.6993,9.6316,9.5638,9.4284,9.2283,9.2252,9.1575,9.0221,9.0221,8.9174,8.7173,8.6466,8.5758,0.0,0.0,0.0,0.0,8.2649,8.2164,8.2041,8.0716,8.1414,8.305,8.2389,8.2045,8.2025,0.0,0.0,0.0,0.0,0.0,0.0,6.1104,6.1912,6.3617,6.7089,6.7956,6.9004,7.1009,6.7508,6.5024,6.5024,6.1403,0.0,0.0,0.0,0.0,0.0,0.0,0.0,0.0,5.9099,5.9308,5.9787,6.0236,6.1044,6.2121,6.0984,6.0835,6.1403,5.9817,5.9458,0.0,0.0,0.0,0.0,0.0,5.9817,5.9398,0.0,0.0,0.0,0.0,0.0,0.0,0.0,0.0,0.0,0.0,0.0,0.0,6.4934,7.1757,7.8579,8.1422,8.4791,8.7136,8.5001,8.1301,7.7024,7.2475,6.7989,6.382,6.053,5.9613,5.9636,6.0534,6.0167,6.0829,6.407,6.4783,6.6016,6.9135,7.326,0.0,8.3141,9.1329,9.7393,0.0,0.0,0.0,0.0,0.0,0.0,9.8009,9.7516,9.6777,9.5638,9.493,9.3822,9.2252,9.2222,9.1329,8.9513,8.9051,8.8005,8.6404,8.5265,8.4619,0.0,0.0,0.0,0.0,8.2433,8.2064,8.2002,8.111,8.086,8.102,8.0803,8.0038,7.9213,0.0,0.0,0.0,0.0,0.0,0.0,5.9997,6.0685,6.1942,6.4246,6.4904,6.6161,6.8764,6.5533,6.3558,6.4545,6.1253,0.0,0.0,0.0,0.0,0.0,0.0,0.0,5.9099,5.9099,5.9787,6.1224,6.1882,6.3139,6.4904,6.3827,6.3139,6.275,6.1014,6.0027,0.0,0.0,0.0,0.0,5.9727,5.9458,5.9099,0.0,0.0,0.0,0.0,0.0,0.0,0.0,0.0,0.0,0.0,0.0,0.0,0.0,6.5173,7.035,7.445,7.8071,8.0298,7.8633,7.5836,7.2595,6.916,6.5712,6.2652,6.0486,5.9613,5.9529,6.0481,6.0219,6.0677,6.3408,6.4175,6.5274,6.7473,7.1875,0.0,8.3018,0.0,0.0,0.0,0.0,0.0,0.0,0.0,0.0,9.7362,9.6316,9.5361,9.45,9.4069,9.3207,9.1852,9.136,9.019,8.8436,8.7728,8.6681,8.5327,8.4218,8.3726,0.0,0.0,0.0,0.0,8.2248,8.1941,8.1633,8.0956,8.0309,7.9694,7.9417,7.8405,7.7214,0.0,0.0,0.0,0.0,0.0,0.0,0.0,6.0595,6.1253,6.1882,6.2002,6.2959,6.5383,6.2331,6.1074,6.3588,6.0954,0.0,0.0,0.0,0.0,0.0,0.0,0.0,5.9099,5.9159,6.0446,6.3019,6.3767,6.5443,6.7897,6.7388,6.6011,6.3947,6.272,6.1014,5.9099,5.9099,5.9099,5.9099,5.9099,5.9099,0.0,0.0,0.0,0.0,0.0,0.0,0.0,0.0,0.0,0.0,0.0,0.0,0.0,0.0,0.0,0.0,0.0,7.421,7.7363,7.6292,7.4024,7.1133,6.7666,6.436,0.0,6.0304,5.9773,5.9743,6.0386,6.046,6.0521,6.0766,6.205,6.3749,6.5842,7.0521,0.0,0.0,8.9698,0.0,9.3515,0.0,0.0,0.0,0.0,0.0,9.7024,9.4592,9.3145,9.3053,9.2991,9.2406,9.1175,8.9851,8.8497,8.7112,8.6342,8.5265,8.3941,8.3264,8.2956,0.0,0.0,0.0,0.0,8.1941,8.154,8.0863,8.0278,7.9601,7.8862,7.8247,7.7139,7.6031,0.0,0.0,0.0,0.0,0.0,0.0,0.0,0.0,0.0,0.0,6.1014,6.1583,6.2211,6.0954,6.0535,0.0,0.0,0.0,0.0,0.0,0.0,0.0,0.0,0.0,5.9099,5.9608,6.0655,6.2331,6.4485,6.6101,6.7238,6.8106,6.6909,6.3977,6.3199,6.1463,5.9099,5.9099,5.9099,5.9099,5.9099,5.9099,0.0,0.0,0.0,0.0,5.9099,5.9099,0.0,0.0,0.0,0.0,0.0,0.0,0.0,0.0,5.9548,6.0146,6.1702,0.0,6.5652,6.4086,6.3905,6.3695,0.0,6.169,6.1558,6.0266,5.9933,6.0191,6.1261,6.0871,6.1339,6.4162,6.4925,6.5873,6.7904,7.5877,0.0,9.0837,9.5792,9.8039,0.0,0.0,0.0,0.0,0.0,9.6377,9.4284,9.3545,9.2745,9.1729,9.1175,9.0775,9.0467,8.9605,8.8251,8.6342,8.5142,8.3849,8.2525,8.1848,8.154,0.0,0.0,0.0,8.0555,8.0555,8.0186,7.954,7.9386,7.8585,7.7539,7.7908,7.6831,7.5261,0.0,0.0,0.0,0.0,0.0,0.0,0.0,0.0,0.0,0.0,5.9967,6.0176,6.0176,5.9847,5.9787,0.0,0.0,0.0,0.0,0.0,0.0,0.0,0.0,5.9099,5.9099,5.9757,6.1194,6.3438,6.5473,6.7418,6.9243,6.9991,6.8375,6.4814,6.2361,6.0446,5.9099,5.9099,5.9099,5.9099,5.9099,0.0,0.0,0.0,0.0,0.0,5.9099,5.9099,0.0,5.9817,6.0027,6.0027,0.0,0.0,0.0,0.0,5.9099,5.9099,5.9099,6.0116,6.089,5.9753,6.0283,6.0795,5.9771,6.0318,6.0836,6.0138,6.0092,6.0394,6.1024,6.0831,6.1291,6.3439,6.4439,6.6858,0.0,0.0,8.7081,9.3915,9.7485,0.0,0.0,0.0,0.0,0.0,0.0,9.4623,9.2837,9.216,9.1514,9.0775,8.979,8.9421,8.9759,8.8436,8.7081,8.5634,8.3972,8.2772,8.2064,8.1387,8.1079,0.0,0.0,0.0,8.0094,8.0094,7.9694,7.9078,7.8739,7.797,7.7077,7.7447,7.6461,7.5046,0.0,0.0,0.0,0.0,0.0,0.0,0.0,0.0,0.0,0.0,0.0,0.0,0.0,0.0,0.0,0.0,0.0,0.0,0.0,0.0,0.0,0.0,5.9099,5.9159,5.9249,5.9907,6.1732,6.4725,6.664,6.9004,7.1757,7.2475,7.047,6.6131,6.1882,5.9668,5.9099,5.9099,5.9099,5.9099,5.9099,0.0,0.0,0.0,0.0,0.0,0.0,0.0,0.0,6.0416,6.0805,6.0805,6.0805,0.0,0.0,0.0,0.0,0.0,5.9368,5.9932,6.0286,5.9633,5.9951,6.0223,5.9704,5.9827,6.0039,6.0039,6.0302,6.0512,6.0604,6.1037,6.1603,6.2013,6.3923,0.0,7.7662,8.2772,8.7943,9.4346,9.6993,0.0,0.0,0.0,0.0,0.0,0.0,9.2807,9.1975,9.0837,9.0129,8.9913,8.8805,8.8312,8.8589,8.6835,8.5665,8.508,8.3049,8.2064,8.2064,8.1387,8.1017,8.0925,0.0,0.0,7.9786,7.9786,7.9386,7.8709,7.8124,7.7477,7.6892,7.6985,7.6215,7.523,0.0,0.0,0.0,0.0,0.0,0.0,0.0,0.0,0.0,0.0,0.0,0.0,0.0,0.0,0.0,0.0,0.0,0.0,0.0,0.0,0.0,5.9129,5.9099,5.9368,5.9907,6.0595,6.1762,6.3378,6.8016,7.056,7.1128,7.5078,7.3582,6.7567,6.5173,6.2241,5.9099,5.9099,5.9099,5.9099,5.9099,0.0,0.0,0.0,0.0,0.0,0.0,0.0,0.0,5.9338,5.9428,5.9428,5.9428,0.0,0.0,0.0,0.0,0.0,6.0505,6.1421,6.1704,5.9928,5.959,5.9704,5.991,6.0144,6.0324,6.0324,6.0534,6.0926,6.148,6.3048,6.4487,6.5109,6.9289,7.4953,0.0,0.0,8.939,9.3884,0.0,0.0,0.0,0.0,0.0,0.0,0.0,9.2406,9.0621,9.0313,8.9698,8.8528,8.8312,8.7389,8.5758,8.5419,8.5203,8.508,8.3049,8.2064,8.2064,8.1387,8.0771,8.0248,0.0,7.954,7.8339,7.8339,7.7939,7.7323,7.7231,7.6769,7.6246,7.68,7.6523,7.5784,0.0,0.0,0.0,0.0,0.0,0.0,0.0,0.0,0.0,0.0,0.0,0.0,0.0,0.0,0.0,0.0,0.0,0.0,0.0,6.0086,6.0565,6.1702,6.1104,6.0535,6.0086,6.1792,6.3857,6.6281,7.047,7.3432,7.5138,7.442,7.1906,6.7807,6.4036,6.1134,5.9099,5.9099,5.9099,5.9099,0.0,0.0,0.0,0.0,0.0,0.0,0.0,0.0,0.0,0.0,5.9877,6.0116,5.9757,0.0,0.0,0.0,0.0,0.0,5.9338,5.9945,6.0434,6.0584,6.1159,6.1291,6.0015,6.0167,6.0678,6.0888,6.1138,6.1656,6.2702,6.4888,6.772,7.1321,7.523,7.954,8.4495,8.7543,9.0652,0.0,0.0,0.0,0.0,0.0,0.0,0.0,0.0,0.0,8.9728,8.9328,8.8836,8.822,8.7451,8.6619,8.5665,8.4557,8.3818,8.3449,8.2525,8.1879,8.151,8.0863,8.0402,8.0063,0.0,7.8401,7.7477,7.7477,7.7077,7.6523,7.6892,7.6831,7.6554,7.6492,7.6061,7.5353,0.0,0.0,0.0,0.0,0.0,0.0,0.0,0.0,0.0,0.0,0.0,0.0,0.0,0.0,0.0,0.0,0.0,0.0,0.0,5.9997,6.0984,6.2989,6.275,6.2421,6.2181,6.4156,6.6879,7.038,7.4121,7.7592,8.0524,7.5377,7.1427,6.8435,6.3617,6.0595,5.9099,5.9099,5.9099,5.9099,0.0,0.0,0.0,0.0,0.0,0.0,0.0,0.0,0.0,0.0,0.0,0.0,0.0,0.0,0.0,5.877,5.8231,5.8201,5.8501,5.8737,5.9334,6.0831,6.1935,6.2415,6.1522,6.1622,6.2142,6.32,6.3401,6.3749,6.4611,6.7412,7.1536,7.7477,8.074,8.3726,8.7266,8.9728,9.2314,0.0,0.0,0.0,0.0,0.0,0.0,0.0,0.0,0.0,8.902,8.8466,8.8035,8.7728,8.6681,8.5881,8.5419,8.4034,8.308,8.2556,8.2064,8.1571,8.1048,8.0402,7.994,7.957,7.8493,7.7662,7.7016,7.7016,7.6708,7.6308,7.6831,7.7016,7.6954,7.6431,7.5815,7.5138,0.0,0.0,0.0,0.0,0.0,0.0,0.0,0.0,0.0,0.0,0.0,0.0,0.0,0.0,0.0,0.0,0.0,0.0,0.0,5.9727,6.0176,6.0356,6.26,6.5263,6.8286,6.8555,7.056,7.445,7.9597,8.3487,8.6,8.1362,7.6155,7.053,6.7119,6.3169,5.9099,5.9099,5.9099,5.9099,5.9099,0.0,0.0,0.0,0.0,0.0,0.0,0.0,0.0,0.0,0.0,0.0,0.0,0.0,5.8441,5.889,5.859,5.8381,5.9608,5.9921,5.9971,6.0131,6.0247,6.143,6.5914,6.5971,6.5959,6.8738,6.8828,6.8212,6.772,7.1383,7.6277,8.1756,8.4957,8.8128,9.2129,0.0,0.0,0.0,0.0,0.0,0.0,0.0,0.0,0.0,0.0,0.0,8.8343,8.822,8.7604,8.6312,8.6158,8.5203,8.3326,8.3788,8.4003,8.3941,8.2033,8.111,8.1048,8.0402,7.9417,7.8185,7.8062,7.7662,7.7016,7.7016,7.6985,7.6954,7.6985,7.7016,7.7016,7.6954,7.6523,7.5846,0.0,0.0,0.0,0.0,0.0,0.0,0.0,0.0,0.0,0.0,0.0,0.0,0.0,0.0,0.0,0.0,0.0,0.0,5.9099,5.9727,6.0805,6.245,6.3887,6.6191,6.9542,7.1607,7.5198,8.0375,8.5282,8.7107,8.594,8.0105,7.442,6.8914,6.4784,6.2211,6.0894,5.9638,5.9817,6.0864,5.9608,5.9099,0.0,0.0,0.0,0.0,0.0,0.0,0.0,0.0,5.7962,5.8261,5.7812,5.8441,5.9159,5.8141,5.7693,5.7656,5.8324,5.9267,6.0107,6.056,6.1879,6.3672,6.6043,6.6793,6.7911,7.1167,7.2275,7.286,7.3476,7.6092,7.954,8.3664,8.6989,9.019,9.3422,0.0,0.0,0.0,0.0,0.0,0.0,0.0,0.0,0.0,0.0,0.0,8.822,8.7389,8.665,8.6127,8.5296,8.4495,8.3726,8.3141,8.2649,8.2218,8.1879,8.1263,8.0463,7.9786,7.8955,7.797,7.7139,7.6615,7.64,7.64,7.64,7.6431,7.6862,7.6769,7.64,7.64,7.5692,7.4769,0.0,0.0,0.0,0.0,0.0,0.0,0.0,0.0,0.0,0.0,0.0,0.0,0.0,0.0,0.0,0.0,0.0,0.0,5.9099,5.9727,6.0894,6.269,6.4216,6.658,6.9901,7.4001,7.8609,8.3726,8.8993,8.9651,8.5881,7.9686,7.442,6.9931,6.4904,6.3139,6.3767,6.1164,6.0835,6.1912,5.9907,5.9099,0.0,0.0,0.0,0.0,0.0,0.0,0.0,0.0,5.7274,5.7782,5.7244,5.8022,5.8919,5.7752,5.7423,5.7386,5.7256,5.8058,5.9175,6.0107,6.2218,6.4881,6.772,6.9454,7.1567,7.5384,7.6061,7.6369,7.7754,7.9139,8.1263,0.0,8.8282,9.1483,0.0,0.0,0.0,0.0,0.0,0.0,0.0,0.0,0.0,0.0,0.0,0.0,0.0,8.6743,8.5911,8.548,8.4588,8.388,8.3449,8.2125,8.111,8.0463,8.0463,8.0124,7.9447,7.8955,7.837,7.7662,7.6739,7.6338,7.6338,7.6338,7.6215,7.6031,7.6277,7.6092,7.5692,7.5692,7.5107,7.4338,0.0,0.0,0.0,0.0,0.0,0.0,0.0,0.0,0.0,0.0,0.0,0.0,0.0,0.0,0.0,0.0,0.0,0.0,5.9099,5.9727,6.0086,6.0086,6.3228,6.655,6.9842,7.5707,8.0375,8.3786,9.0339,9.1147,8.6479,8.1212,7.7352,7.4569,6.8675,6.6759,6.7717,6.3767,6.2121,6.1942,5.9937,5.9129,5.9129,0.0,0.0,0.0,0.0,0.0,0.0,0.0,5.6825,5.5658,5.8261,5.8171,5.7244,5.7932,5.8058,5.7895,5.6886,5.6626,5.7009,5.8598,6.0768,6.4437,7.1935,7.4853,7.7385,8.2156,8.0432,7.8524,7.9909,8.0155,8.1448,8.545,8.899,0.0,0.0,0.0,0.0,0.0,0.0,0.0,0.0,0.0,0.0,0.0,0.0,0.0,0.0,8.6496,8.548,8.4126,8.4065,8.3418,8.2064,8.0771,7.9755,7.9047,7.7662,7.7354,7.8001,7.8031,7.7662,7.6985,7.7016,7.7016,7.6985,7.6985,7.6615,7.5938,7.5261,7.5015,7.4984,7.4984,7.4984,7.4892,0.0,0.0,0.0,0.0,0.0,0.0,0.0,0.0,0.0,0.0,0.0,0.0,0.0,0.0,0.0,0.0,0.0,0.0,5.9099,5.9279,5.9608,6.0057,6.1942,6.3438,6.4425,7.1158,7.8549,8.6539,8.8963,8.7048,8.1063,7.8579,7.5018,7.0679,6.9363,6.8465,6.7717,6.3767,6.2899,6.3947,6.1493,6.0236,5.9847,0.0,0.0,0.0,0.0,0.0,0.0,0.0,0.0,0.0,5.6944,5.8022,5.8949,5.7752,5.7752,5.7895,5.6886,5.7393,5.8629,6.0016,6.4076,6.8958,7.3864,7.5897,7.8493,8.468,8.4403,8.3141,8.3541,8.3634,0.0,8.5203,0.0,0.0,0.0,0.0,0.0,0.0,0.0,0.0,0.0,0.0,0.0,0.0,0.0,0.0,0.0,8.508,8.428,8.3418,8.2926,8.2033,8.0709,7.9817,7.8555,7.6923,7.6523,7.64,7.6615,7.7108,7.6677,7.563,7.6092,7.6031,7.56,7.56,7.5476,7.5292,7.5076,7.4707,7.4307,7.4307,7.3999,7.363,0.0,0.0,0.0,0.0,0.0,0.0,0.0,0.0,0.0,0.0,5.9099,5.9099,0.0,0.0,0.0,5.9099,5.9099,0.0,5.9099,5.9099,5.9398,6.0057,6.1134,6.269,6.4784,7.0919,7.6365,8.1033,8.3517,8.205,7.6844,7.7113,7.5677,7.2954,7.439,7.3702,7.1278,6.8136,6.6251,6.5263,6.3408,6.2091,6.1313,0.0,0.0,0.0,0.0,0.0,0.0,0.0,0.0,0.0,5.6286,5.7244,5.8404,5.7551,5.7498,5.7588,5.7051,5.8031,5.9751,6.2011,6.6817,7.2366,7.777,8.0449,8.3172,8.782,8.705,8.5665,8.6219,8.545,0.0,8.6158,0.0,0.0,0.0,0.0,0.0,0.0,0.0,0.0,0.0,0.0,0.0,0.0,0.0,0.0,0.0,8.4218,8.3141,8.1941,8.1756,8.0894,7.9293,7.8339,7.7231,7.6,7.5199,7.4799,7.4861,7.6061,7.6184,7.5415,7.5538,7.5384,7.4984,7.4707,7.4584,7.4584,7.4307,7.3968,7.3599,7.3599,7.3322,7.3045,0.0,0.0,5.9099,5.9099,0.0,0.0,0.0,0.0,0.0,5.9099,5.9099,5.9099,0.0,0.0,0.0,5.9099,5.9099,5.9099,5.9099,5.9099,5.9428,6.0146,6.1074,6.3827,6.8704,7.2894,7.3462,7.026,7.5707,7.6664,7.3522,7.6455,7.816,7.8908,8.1452,8.0405,7.6574,7.418,7.032,6.5772,6.5173,6.4186,6.3079,6.3139,0.0,0.0,0.0,0.0,0.0,0.0,0.0,0.0,5.6226,5.6308,5.6479,5.7247,5.7325,5.7182,5.7436,5.8671,6.0728,6.4482,6.9572,7.5587,8.2793,8.6958,8.9605,9.0713,8.8559,8.6866,8.8159,8.6281,8.5388,0.0,0.0,0.0,0.0,0.0,0.0,0.0,0.0,0.0,0.0,0.0,0.0,0.0,0.0,0.0,0.0,8.351,8.1971,8.0063,8.0463,7.9786,7.7877,7.6554,7.5846,7.5723,7.3876,7.3014,7.3137,7.4984,7.5815,7.5784,7.5107,7.483,7.4769,7.4153,7.3907,7.3845,7.3229,7.2983,7.2983,7.2983,7.2983,7.2983,0.0,0.0,5.9099,5.9099,0.0,0.0,0.0,0.0,5.9099,5.9099,5.9099,5.9099,5.9099,5.9099,0.0,5.9099,5.9099,5.9099,5.9099,5.9099,5.9638,6.0835,6.3498,6.5742,6.7388,6.7897,6.7268,6.5473,7.1846,7.3283,7.0171,7.5377,7.816,7.8849,8.0494,7.9327,7.5736,7.0111,6.643,6.4425,6.4276,6.3767,6.3139,6.3617,6.26,0.0,0.0,0.0,0.0,0.0,0.0,0.0,5.6735,5.6885,5.6825,5.6599,5.6942,5.7579,5.8179,6.0039,6.2988,6.8045,7.5498,8.2609,8.6466,8.8713,8.979,8.899,8.9113,8.9421,8.9728,8.8866,8.8312,0.0,0.0,0.0,0.0,0.0,0.0,0.0,0.0,0.0,0.0,0.0,0.0,0.0,0.0,0.0,8.2033,8.1171,8.0309,7.9355,7.8401,7.7416,7.6461,7.563,7.4676,0.0,7.3199,7.326,7.3783,7.4214,7.443,7.4399,7.3722,7.3414,7.3414,7.326,7.3199,7.3199,7.3045,7.2983,7.2983,7.2983,7.2983,7.2983,0.0,0.0,0.0,0.0,0.0,0.0,0.0,0.0,5.9458,5.9129,5.9099,5.9099,5.9099,5.9099,0.0,0.0,5.9099,5.9099,5.9099,5.9099,5.9847,6.1523,6.4126,6.5413,6.5114,6.5383,6.4425,6.2121,6.5922,6.7867,6.8136,7.3133,7.6664,7.8908,8.1512,7.9627,7.43,7.1457,6.8196,6.5054,6.6011,6.5622,6.4515,6.4844,6.3169,6.0505,5.9488,0.0,0.0,0.0,0.0,0.0,0.0,0.0,5.6248,5.6372,5.6612,5.7196,5.8607,6.1301,6.5639,7.3593,8.0394,8.5696,8.8128,8.9236,8.9451,8.8405,8.9267,9.0098,8.979,8.9451,0.0,0.0,0.0,0.0,0.0,0.0,0.0,0.0,0.0,0.0,0.0,0.0,0.0,0.0,0.0,8.151,8.1079,7.9817,7.8647,7.7662,7.7231,7.64,7.5046,7.4707,7.4153,7.3445,7.3137,7.3168,7.3506,7.3845,7.3999,7.3968,7.326,7.2983,7.2983,7.2983,7.2983,7.2983,7.2983,7.2983,7.2983,7.2983,7.2983,7.2983,0.0,0.0,0.0,0.0,0.0,0.0,0.0,0.0,0.0,5.9189,5.9099,5.9099,5.9099,5.9099,5.9099,0.0,0.0,0.0,5.9099,5.9308,6.0296,6.2181,6.4036,6.4575,6.3617,6.4306,6.3288,6.0446,6.0775,6.3199,6.7597,7.1218,7.5198,7.9417,8.214,7.9597,7.3253,7.3073,6.9961,6.5323,6.7089,6.6819,6.5323,6.5323,6.3228,6.0146,5.9368,5.9099,5.9009,5.8471,0.0,0.0,0.0,0.0,5.5499,5.6173,5.6242,5.6573,5.8714,6.2835,6.8846,7.8826,8.3695,8.665,8.8743,8.9113,8.8866,8.8312,8.9174,8.979,8.899,0.0,0.0,0.0,0.0,0.0,0.0,0.0,0.0,0.0,0.0,0.0,0.0,0.0,0.0,0.0,0.0,7.9478,8.034,7.8647,7.7108,7.5877,7.6154,7.5569,7.3999,7.3876,7.3753,7.363,7.2952,7.2675,7.2829,7.3383,7.3722,7.3783,7.3106,7.286,7.2983,7.2983,7.2983,7.2983,7.2983,7.2983,7.2983,7.2983,7.2983,7.2983,0.0,0.0,0.0,0.0,0.0,0.0,0.0,0.0,0.0,0.0,5.9099,5.9099,5.9099,5.9099,5.9099,5.9099,5.9099,5.9099,5.9099,0.0,0.0,6.2869,6.4276,6.5203,6.5592,6.4126,6.2839,6.1822,6.0745,6.3438,6.9632,7.1876,7.5946,8.1272,7.8938,7.6664,7.421,6.8076,6.4036,6.1852,6.269,6.2869,6.263,6.263,6.1942,6.0805,5.9548,5.9099,5.9099,5.9009,5.853,0.0,0.0,0.0,5.6008,5.5499,5.5531,5.6174,5.8438,6.5386,7.3567,8.0278,8.4034,8.665,8.8743,8.8743,8.8312,0.0,8.8805,8.8959,0.0,0.0,0.0,0.0,0.0,0.0,0.0,0.0,0.0,0.0,0.0,0.0,0.0,0.0,0.0,0.0,8.0001,7.8647,7.76,7.6739,7.5938,7.5169,7.4091,7.366,7.3999,7.3414,7.2829,7.2244,7.1536,7.1506,7.2121,7.2214,7.2552,7.3076,7.2398,7.2429,7.2983,7.2983,7.2983,7.2983,7.2983,7.2983,7.2983,7.2983,7.2983,7.2983,0.0,0.0,0.0,0.0,0.0,0.0,0.0,0.0,0.0,0.0,0.0,5.9099,5.9099,5.9099,5.9099,5.9099,5.9099,5.9099,5.9099,5.9668,6.0595,6.1912,6.254,6.2959,6.3258,6.2421,6.1463,6.0416,5.9817,6.3677,7.1637,7.2505,7.6096,8.1631,7.831,7.5467,7.2834,6.7418,6.4006,6.2241,6.254,6.266,6.26,6.2241,6.1463,6.0416,5.9458,5.886,5.862,5.8979,5.8411,5.7483,5.7184,0.0,0.0,0.0,5.555,5.6955,6.1692,6.6922,7.2704,7.9786,8.2987,8.505,8.7512,8.7543,8.6927,8.6558,8.6712,0.0,0.0,0.0,0.0,0.0,0.0,0.0,0.0,0.0,0.0,0.0,0.0,0.0,0.0,0.0,0.0,0.0,7.8001,7.6862,7.7016,7.5661,7.4738,7.4461,7.3845,7.3322,7.286,7.2583,7.206,7.1383,7.1044,7.129,7.1967,7.1567,7.1752,7.2429,7.2521,7.2706,7.2983,7.2983,7.2983,7.2983,7.2983,7.2983,7.2983,7.2983,7.2983,7.2983,0.0,0.0,0.0,0.0,0.0,0.0,0.0,0.0,0.0,0.0,0.0,5.9099,5.9099,0.0,0.0,0.0,5.9099,5.9099,5.9099,5.9099,5.9548,6.0565,6.0595,6.0595,6.0595,6.0595,6.0116,5.9099,5.9608,6.4515,7.3432,7.3911,7.7771,8.4085,7.9776,7.6006,7.2624,6.8166,6.5503,6.4186,6.266,6.2061,6.2061,6.1912,6.1014,5.9787,5.9458,5.883,5.8171,5.8471,5.7932,5.7064,5.6915,5.6526,0.0,0.0,0.0,5.7054,6.2668,6.5921,6.9514,7.6853,8.0155,8.2341,8.545,8.5727,8.5203,0.0,0.0,0.0,0.0,0.0,0.0,0.0,0.0,0.0,0.0,0.0,0.0,0.0,0.0,0.0,0.0,0.0,0.0,0.0,7.6246,7.5353,7.6215,7.483,7.3907,7.3753,7.3568,7.3076,7.2244,7.206,7.1783,7.1413,7.1075,7.129,7.1937,7.1229,7.1198,7.1721,7.2244,7.2645,7.2952,7.2614,7.2675,7.2952,7.2798,7.2829,7.2983,7.2983,7.2983,7.2983,0.0,0.0,0.0,0.0,0.0,0.0,0.0,0.0,0.0,0.0,0.0,5.9099,5.9099,5.9099,5.9099,5.9099,5.9099,5.9099,5.9099,5.9099,5.9129,5.9219,5.9219,0.0,5.9219,5.9219,5.9189,5.9099,6.1014,6.634,7.4809,7.6664,8.2409,9.0788,8.3726,7.8759,7.5318,6.9423,6.7238,6.7238,6.1583,5.9308,5.9458,6.0685,6.0326,5.9219,5.9817,5.9219,5.8022,5.7423,5.7154,5.7004,5.6406,5.6248,5.6098,0.0,0.0,0.0,5.8195,6.0913,6.434,7.0526,7.473,7.837,8.2402,0.0,8.3233,8.3203,0.0,0.0,0.0,0.0,0.0,0.0,0.0,0.0,0.0,0.0,0.0,0.0,0.0,0.0,0.0,0.0,0.0,0.0,7.5446,7.4738,7.4184,7.4061,7.3691,7.3045,7.2429,7.2368,7.2922,7.2306,7.2275,7.286,7.1536,7.129,7.1937,7.1229,7.0921,7.0952,7.0982,7.1752,7.2891,7.1567,7.1783,7.2922,7.2275,7.2429,7.2983,7.2983,7.2983,7.2983,0.0,0.0,0.0,0.0,0.0,0.0,0.0,0.0,0.0,0.0,0.0,0.0,0.0,5.9099,5.9099,5.9099,5.9099,5.9099,5.9099,5.9099,5.9099,5.9099,5.9099,5.9099,5.9099,5.9099,5.9099,5.9099,5.9817,6.4336,7.2385,7.436,7.8639,8.4534,8.1512,7.9507,7.7861,6.9333,6.5622,6.5084,6.1283,6.0266,6.0924,6.0146,6.0057,6.0296,5.9668,5.889,5.8141,5.8321,5.7812,5.7064,5.6825,5.6496,5.6098,5.5388,5.513,5.5501,5.7932,5.9592,6.1862,6.7041,7.0955,7.4209,7.6708,7.8955,8.0402,7.994,0.0,0.0,0.0,0.0,0.0,0.0,0.0,0.0,0.0,0.0,0.0,0.0,0.0,0.0,0.0,0.0,0.0,0.0,0.0,7.4245,7.3999,7.3568,7.3229,7.2983,7.2337,7.166,7.1013,6.9936,6.972,7.0336,6.9413,6.9566,7.0644,7.0367,7.049,7.089,7.0459,7.0798,7.1598,7.1105,7.1475,7.2306,7.206,7.2398,7.2983,7.2983,7.2983,7.2983,0.0,0.0,0.0,5.9099,0.0,5.9099,5.9099,5.9099,5.9099,5.9099,0.0,0.0,0.0,0.0,5.9099,5.9099,5.9099,5.9099,5.9099,5.9099,5.9099,5.9099,5.9099,5.9099,5.9099,5.9548,5.9548,5.9099,6.0206,6.3887,6.9961,7.2415,7.6155,8.0704,7.825,7.8519,8.0315,7.2595,6.8794,6.7597,6.2959,6.1882,6.2989,6.2091,6.2032,6.2361,6.1912,6.0775,5.9398,5.8919,5.8022,5.7064,5.6855,5.6346,5.5799,5.543,5.513,5.52,5.6693,5.7592,5.9304,6.4453,6.6851,6.8989,7.2829,7.4861,7.6061,0.0,0.0,0.0,0.0,0.0,0.0,0.0,0.0,0.0,0.0,0.0,0.0,0.0,0.0,0.0,0.0,0.0,0.0,0.0,0.0,0.0,7.3322,7.3106,7.2768,7.2306,7.1844,7.1044,6.9905,6.9259,6.9012,6.9228,6.8797,6.9043,6.9874,6.9659,6.9936,7.0521,6.9843,7.0059,7.0859,7.0398,7.0767,7.1629,7.1629,7.2029,7.2675,7.2891,7.2983,7.2983,5.9099,5.9099,5.9099,5.9069,5.9099,5.9099,5.9069,5.9099,5.9099,5.9099,0.0,0.0,0.0,0.0,0.0,5.9189,5.9189,5.9159,5.9099,5.9099,5.9099,5.9099,5.9099,5.9099,5.9099,6.0386,6.0416,5.9099,6.2271,6.5203,6.7867,7.1128,7.5437,8.0195,7.448,7.5856,8.217,7.8789,7.6724,7.5048,6.649,6.3917,6.5323,6.646,6.6161,6.5263,6.652,6.4934,6.1852,5.9219,5.7872,5.7154,5.6487,5.5748,5.5259,5.5531,5.498,5.4221,0.0,0.0,0.0,6.2312,6.2265,6.2825,7.0736,0.0,7.0305,0.0,0.0,0.0,0.0,0.0,0.0,0.0,0.0,0.0,0.0,0.0,0.0,0.0,0.0,0.0,0.0,0.0,0.0,0.0,7.2922,7.2645,7.1998,7.2583,7.2275,7.089,7.0828,7.049,6.9843,7.0459,7.049,6.9874,6.9813,6.9813,6.9813,6.9166,6.9228,6.9813,6.9166,6.9628,7.0736,6.9443,6.9659,7.089,7.089,7.1352,7.206,7.2737,7.2983,7.2983,5.9009,5.9099,5.8949,5.8471,5.88,5.8949,5.8471,5.88,5.9099,0.0,0.0,0.0,5.9159,5.9967,6.0745,6.1224,6.0835,6.0146,5.9159,5.9099,5.9099,5.9099,5.9099,5.9099,5.9099,5.9458,5.9488,5.9099,5.9548,6.1104,6.3767,6.5622,6.8525,7.2295,7.3013,7.3642,7.3851,6.8645,6.8974,7.2385,6.5233,6.5144,6.8944,6.5951,6.5802,6.7089,6.649,6.6011,6.5383,6.3677,6.2361,6.095,5.8053,5.656,5.5909,5.5932,5.556,5.517,5.4884,0.0,0.0,0.0,0.0,0.0,6.1686,6.3701,6.5919,0.0,0.0,0.0,0.0,0.0,0.0,0.0,0.0,0.0,0.0,0.0,0.0,0.0,0.0,0.0,0.0,0.0,0.0,0.0,7.1783,7.1629,7.1967,7.166,7.0859,6.9505,6.8982,6.8674,6.8489,6.8181,6.8397,6.9135,6.8181,6.7997,6.8458,6.8274,6.8304,6.8489,6.8766,6.9105,6.9413,6.9043,6.9382,7.0213,7.0705,7.1352,7.206,7.2737,7.2983,7.2983,5.8979,5.9099,5.9069,5.8949,5.9488,5.9817,5.9428,5.9697,5.9847,0.0,0.0,0.0,5.9937,6.1613,6.245,6.1732,6.1343,6.0535,5.9189,5.9099,5.9099,5.9099,5.9099,5.9099,5.9099,5.9668,5.9668,5.9099,5.9279,5.9877,6.0864,6.2181,6.3977,6.6191,6.7837,6.8525,6.8106,6.3019,6.4665,7.041,6.7388,6.8585,7.1936,7.0081,7.047,7.1966,7.1188,7.0829,7.035,6.7926,6.5114,0.0,5.861,5.7062,5.6599,5.6769,5.6647,5.6375,5.5929,5.6199,5.6713,5.7228,0.0,0.0,5.8824,5.9891,6.1221,0.0,0.0,0.0,0.0,0.0,0.0,0.0,0.0,0.0,0.0,0.0,0.0,0.0,0.0,0.0,0.0,7.1752,7.1536,7.1536,7.1413,7.1413,7.1506,7.0216,6.9171,6.852,6.7843,6.7504,6.7504,6.7104,6.7289,6.8058,6.7289,6.7258,6.7935,6.7935,6.8058,6.8335,6.8735,6.8889,6.8889,6.8889,6.9105,6.9566,7.0521,7.1167,7.166,7.2614,7.2983,7.2983,0.0,5.9099,5.9308,5.9967,6.0655,6.1164,6.1313,6.1283,6.1104,0.0,6.0296,6.0535,6.2032,6.4036,6.4306,6.1972,6.1433,6.0655,5.9308,5.9069,5.9039,5.9099,5.9099,5.9099,5.9099,6.0266,6.0296,5.9099,6.0236,6.0206,5.9129,6.0266,6.1134,6.1732,6.1224,6.2271,6.4156,6.1074,6.3079,6.8525,7.053,7.2535,7.451,7.6185,7.7382,7.813,7.7981,7.7233,7.5736,7.1667,6.6849,0.0,0.0,0.0,0.0,5.7859,5.7828,5.7574,5.7254,5.7384,5.8246,6.0512,5.8304,0.0,5.9408,5.8423,5.7192,5.8331,0.0,0.0,0.0,0.0,0.0,0.0,0.0,0.0,0.0,0.0,0.0,0.0,0.0,0.0,7.089,7.0767,7.0705,7.0798,7.1321,7.1291,7.0645,6.8533,6.7372,6.7631,6.6985,6.6704,6.6704,6.6765,6.6888,6.7042,6.695,6.7258,6.7935,6.7935,6.8243,6.8797,6.8858,6.8889,6.8889,6.8889,6.892,6.9135,7.0398,7.0952,7.1167,7.2491,7.2983,7.2983,5.8979,5.9099,5.9308,5.9967,6.0655,6.1463,6.254,6.2241,6.26,6.4605,6.5203,6.637,6.8734,6.7567,6.64,6.5892,6.3438,6.1343,5.9967,5.889,5.856,5.9069,5.9099,5.9099,5.9099,5.9368,5.9368,5.9099,5.883,5.883,5.9099,5.883,5.9069,5.9697,6.0116,6.0266,6.0416,6.2839,6.4006,6.4455,6.6939,7.1607,7.7023,7.6874,7.825,8.0075,7.8998,7.8789,7.837,7.3851,6.9183,6.4814,0.0,0.0,0.0,5.8049,0.0,5.7922,5.8105,5.8725,0.0,0.0,0.0,0.0,5.6607,5.6616,5.7254,0.0,0.0,0.0,0.0,0.0,0.0,0.0,0.0,0.0,0.0,0.0,0.0,0.0,0.0,0.0,7.0859,6.9905,6.9505,7.0059,6.9572,6.9087,6.8934,6.7436,6.6369,6.5906,6.5514,6.5288,6.5288,6.5842,6.6642,6.772,6.7165,6.7258,6.7935,6.7935,6.7997,6.815,6.8674,6.8889,6.8889,6.8889,6.9197,6.9782,7.0582,7.1259,7.1875,7.2675,7.2983,7.2983,5.9039,5.9368,5.9907,6.0924,6.1642,6.266,6.4306,6.4545,6.4994,6.634,6.7657,6.8585,6.8914,6.8076,6.6819,6.5173,6.2929,6.1044,5.9697,5.8979,5.877,5.9099,5.9099,5.9428,6.0086,5.9458,5.9428,6.0116,5.9099,5.877,5.9099,5.877,5.88,5.9129,5.9458,5.9398,5.9249,6.1224,6.2271,6.3109,6.9034,7.3791,7.7532,7.9507,8.1512,8.3098,8.211,8.0913,7.8998,7.3702,7.0171,0.0,0.0,6.1965,6.1339,0.0,6.0069,5.9856,0.0,0.0,0.0,6.0147,0.0,0.0,0.0,5.6388,5.6002,0.0,0.0,0.0,0.0,0.0,0.0,0.0,0.0,0.0,0.0,0.0,0.0,0.0,0.0,0.0,6.816,6.7549,6.7549,6.8562,6.7923,6.7286,6.695,6.5857,6.4793,6.3954,6.3752,6.3708,6.3872,6.4518,6.538,6.6396,6.6396,6.695,6.7935,6.7935,6.8089,6.8397,6.8397,6.8581,6.8858,6.8551,6.9197,7.0428,7.0767,7.1136,7.1567,7.2614,7.2983,7.2983,5.9069,5.9548,6.0326,6.1672,6.254,6.3737,6.5712,6.646,6.6999,6.7508,6.9183,6.9782,6.8286,6.8166,6.7208,6.4784,6.245,6.0864,6.0296,5.9398,5.8979,5.9099,5.9099,5.9608,6.0715,5.9668,5.9638,6.0715,5.9638,5.9099,5.9153,5.9153,5.9153,5.9153,5.9153,5.9303,5.9488,5.9338,6.0685,6.3558,7.1667,7.5168,7.6036,8.0913,8.3427,8.4354,8.4205,8.211,7.8669,7.3582,7.1098,6.9333,6.4695,6.3767,0.0,0.0,0.0,0.0,0.0,0.0,0.0,0.0,0.0,6.0342,0.0,0.0,0.0,0.0,0.0,0.0,0.0,0.0,0.0,0.0,0.0,0.0,0.0,0.0,0.0,0.0,0.0,0.0,0.0,6.5115,6.5513,6.6736,6.5979,6.5372,6.5211,6.4136,6.3138,6.2262,6.234,6.2441,6.2449,6.3302,6.407,6.4752,6.5453,6.6405,6.7604,6.7816,6.8212,6.8674,6.8274,6.8397,6.8858,6.8335,6.9074,7.0551,7.0798,7.1075,7.1444,7.2552,7.2983,7.2983,5.8979,5.9159,5.9638,6.0984,6.2241,6.3737,6.5712,6.6071,6.6969,6.9333,7.0829,7.1816,7.2206,7.0231,6.9183,6.9961,6.4545,6.2032,6.4216,6.0505,5.8501,5.9069,5.9099,5.9189,5.9338,5.9189,5.9189,5.9338,5.9189,5.9207,5.9476,5.9476,5.9476,5.9476,5.9476,5.9976,6.0835,6.0236,6.2121,6.5922,6.9871,7.1188,7.1398,7.7173,7.9447,7.9806,8.1512,8.0345,7.7771,0.0,7.3313,7.038,0.0,6.661,6.5622,6.4904,0.0,0.0,0.0,0.0,0.0,0.0,6.4871,0.0,0.0,0.0,0.0,0.0,0.0,0.0,0.0,0.0,0.0,0.0,0.0,0.0,0.0,0.0,0.0,0.0,0.0,0.0,0.0,6.404,6.4009,6.4687,6.3143,6.2708,6.411,6.2647,6.1725,6.1629,6.2092,6.1981,6.124,6.2707,6.3684,6.4106,6.5028,6.5845,6.6579,6.7512,6.7966,6.8058,6.8551,6.8828,6.8889,6.8797,6.892,6.9228,7.0428,7.166,7.2768,7.2922,7.2983,7.2983,5.8979,5.9099,5.9518,6.0894,6.1583,6.2869,6.5592,6.7956,6.9961,7.1487,7.2146,7.3043,7.448,7.1607,6.9931,7.0829,6.664,6.3767,0.0,6.1164,5.9787,5.9668,5.9308,5.9668,6.0805,5.9697,5.9597,6.0511,5.9675,5.9476,5.9773,5.9773,5.972,5.9446,5.9138,5.9789,6.1074,6.0386,6.1493,6.4036,6.7298,6.8256,6.8615,7.7233,8.0764,8.1093,8.1183,7.9986,7.7951,0.0,7.3223,0.0,0.0,0.0,0.0,0.0,0.0,0.0,0.0,0.0,0.0,0.0,0.0,0.0,6.1818,0.0,5.9224,0.0,0.0,0.0,0.0,0.0,0.0,0.0,5.5402,0.0,0.0,0.0,0.0,0.0,0.0,0.0,0.0,0.0,0.0,0.0,6.1365,6.131,6.1407,6.1091,6.0735,6.0373,6.056,6.06,6.0411,6.1484,6.2306,6.2839,6.3589,6.4584,6.562,6.6181,6.6878,6.7672,6.7723,6.8181,6.8858,6.8489,6.8766,6.9536,7.009,7.0921,7.1875,7.2675,7.2983,7.2983,5.889,5.9099,5.9428,6.0386,6.0864,6.2091,6.5024,6.7897,7.0231,7.1667,7.1667,7.2595,7.5318,7.2714,7.1487,7.3193,6.9662,6.661,0.0,0.0,6.1194,6.0146,5.9458,0.0,6.1336,5.9956,5.985,6.1086,6.012,5.9827,6.0092,6.0092,5.9986,5.9743,6.0069,6.091,6.2025,6.1931,6.3014,6.4994,6.7358,6.8794,7.026,7.7233,8.0644,8.1512,8.0375,7.9118,7.7532,7.448,7.3343,0.0,7.05,0.0,0.0,0.0,0.0,0.0,6.5528,0.0,0.0,0.0,0.0,0.0,0.0,0.0,0.0,0.0,0.0,0.0,0.0,0.0,0.0,0.0,0.0,5.5381,0.0,0.0,0.0,0.0,0.0,0.0,0.0,0.0,0.0,5.904,5.9418,5.9592,5.9342,5.9657,5.9669,5.9369,5.9476,5.9583,5.972,6.0462,6.1128,6.177,6.2491,6.3486,6.4607,6.5102,6.5826,6.683,6.6882,6.7488,6.8347,6.8129,6.8618,6.9509,6.9753,7.0305,7.1044,7.2244,7.2829,7.2983,5.874,5.9099,5.9129,5.9159,6.0236,6.1792,6.3767,6.4156,6.5443,6.8704,6.8555,6.9871,7.442,7.3672,7.4629,7.9148,0.0,7.1009,7.1577,0.0,6.2151,0.0,0.0,5.9237,0.0,0.0,5.9667,6.0077,6.0016,6.0144,6.0377,6.0377,6.0377,6.0499,6.3067,6.4288,6.4503,6.5739,6.8326,7.1577,7.1697,7.439,7.813,0.0,7.6694,7.8819,7.816,0.0,0.0,7.5078,7.439,0.0,0.0,0.0,0.0,0.0,0.0,0.0,0.0,0.0,0.0,6.5471,0.0,0.0,0.0,0.0,6.2372,0.0,0.0,0.0,0.0,0.0,0.0,5.6774,0.0,0.0,0.0,0.0,0.0,0.0,0.0,0.0,0.0,0.0,0.0,5.7622,5.6852,5.7011,5.8565,5.8361,5.8471,5.9069,5.9369,5.9369,5.9153,6.003,6.0691,6.1134,6.207,6.2875,6.3568,6.4577,6.5052,6.5174,6.645,6.7027,6.7118,6.7993,6.8386,6.8537,6.9509,7.0305,7.0982,7.1721,7.2429,7.2983,5.8321,5.88,5.9099,5.9099,5.9488,6.0595,6.3019,6.4844,6.7478,7.1697,7.2804,7.5318,8.0794,8.0225,8.0225,0.0,0.0,7.5617,7.2774,6.9871,0.0,0.0,0.0,6.2687,0.0,0.0,0.0,5.9636,5.9636,5.9902,6.0377,6.0377,6.0377,6.0438,6.1783,6.295,6.399,6.6191,6.7966,6.9512,0.0,7.5736,7.9267,0.0,7.7382,7.8041,7.7382,7.6604,0.0,7.5647,7.4809,7.3821,7.3373,7.2595,7.1697,7.0829,7.044,0.0,0.0,0.0,6.9586,6.6475,0.0,0.0,0.0,0.0,0.0,0.0,0.0,0.0,0.0,0.0,5.7557,5.7516,5.6807,0.0,0.0,0.0,0.0,0.0,0.0,0.0,0.0,0.0,0.0,5.599,5.6149,5.6607,5.7581,5.7925,5.8441,5.9069,5.9207,5.9207,5.9099,5.9417,6.0106,6.1104,6.1425,6.2171,6.3252,6.3749,6.4253,6.4707,6.5847,6.6573,6.7088,6.7786,6.8238,6.8417,6.878,6.9726,7.0982,7.1721,7.2398,7.2983,5.8201,5.8471,5.883,5.9069,5.9488,6.0386,6.2121,6.5203,6.8645,7.2355,7.5018,7.8669,8.4115,0.0,8.4354,0.0,8.3427,7.9746,7.4629,7.3702,0.0,6.7508,6.6759,0.0,0.0,0.0,0.0,0.0,6.0614,6.0761,6.0534,6.0534,6.0534,6.0595,6.2005,6.3177,6.4196,6.7638,6.9474,0.0,0.0,7.7023,0.0,0.0,7.7741,7.8011,0.0,7.6096,7.5527,7.5527,7.4958,7.421,7.3971,7.3133,7.2116,7.1427,7.0949,7.0564,7.0163,7.0187,0.0,6.7817,6.661,0.0,6.3214,0.0,0.0,0.0,0.0,0.0,0.0,0.0,0.0,5.8598,5.7607,0.0,0.0,5.4767,0.0,0.0,0.0,0.0,0.0,0.0,5.494,5.5179,5.5359,5.5748,0.0,0.0,5.7962,5.8381,5.886,5.9099,5.9099,5.9099,5.9668,6.0745,6.1014,6.1672,6.272,6.3189,6.3577,6.4056,6.4893,6.5704,6.6369,6.7153,6.7727,6.8119,6.8327,6.9362,7.0861,7.1413,7.2183,7.2983,5.8321,5.8112,5.8381,5.9009,6.0176,6.1104,6.1194,6.5054,6.8734,7.0919,7.5228,7.9866,8.4444,8.5551,8.6958,8.9441,8.7317,8.3397,7.7652,7.7771,0.0,0.0,6.9093,6.853,6.6643,0.0,0.0,0.0,0.0,6.2387,6.0948,6.0855,6.0794,6.0917,6.3626,6.4861,6.5119,6.982,7.2646,7.421,7.7412,7.834,7.7741,7.7053,7.7592,7.8489,7.6544,7.5437,7.4869,7.4869,7.4869,7.4779,7.4151,7.3492,7.2595,7.0739,7.1009,7.1583,7.0043,7.0243,7.0659,6.9332,0.0,0.0,0.0,0.0,6.7125,0.0,0.0,0.0,0.0,0.0,0.0,0.0,0.0,0.0,0.0,0.0,0.0,0.0,0.0,0.0,0.0,5.4581,5.4461,5.5089,5.4551,5.4491,0.0,0.0,5.7094,5.7094,5.8411,5.9099,5.9099,5.9099,5.9428,6.0086,6.0745,6.1433,6.2121,6.275,6.3049,6.3109,6.3767,6.4425,6.5084,6.6132,6.6914,6.7548,6.8119,6.9242,7.0526,7.0861,7.1844,7.2983,5.7633,5.8171,5.8919,5.9069,5.9787,6.0864,6.2361,0.0,0.0,0.0,7.9327,8.3786,8.7945,8.8963,8.9441,8.9651,8.8604,0.0,0.0,0.0,0.0,7.6933,7.5527,7.3193,6.9849,6.8171,0.0,6.4432,0.0,6.1771,6.2686,6.1186,6.0586,6.0886,6.3102,6.385,6.3724,6.8941,7.2495,7.4779,7.6604,7.7532,7.7682,0.0,7.6933,7.7801,7.5856,7.5018,7.4869,7.4869,7.4869,7.4839,7.4689,7.418,7.3552,7.3043,7.2774,7.2535,7.2092,7.2212,7.2092,7.101,6.9586,6.8233,0.0,0.0,0.0,0.0,0.0,0.0,0.0,0.0,0.0,0.0,0.0,0.0,0.0,0.0,0.0,5.4221,0.0,0.0,0.0,5.4311,5.4281,5.4461,5.4311,5.4491,0.0,0.0,0.0,5.7094,5.8411,5.9099,5.9099,5.9099,5.9428,6.0086,6.0266,6.0954,6.2091,6.2271,6.26,6.3139,6.4276,6.4874,6.5114,6.6311,6.7154,6.7548,6.7638,6.8698,7.0342,7.1875,7.2675,7.2983,5.7363,5.865,5.9967,5.9967,0.0,0.0,6.4665,6.661,0.0,7.448,7.9656,0.0,8.6359,8.9292,9.0908,9.0549,8.992,0.0,8.5043,0.0,0.0,7.9986,7.9028,7.6694,7.2714,7.0141,0.0,6.4623,0.0,6.1747,6.2058,6.1055,6.0638,6.0855,6.2302,6.317,6.3888,6.8668,7.2305,7.4929,7.5377,7.5946,0.0,7.5407,7.5288,7.5557,7.4749,7.445,7.448,7.4779,7.4689,7.448,7.4779,7.424,7.3522,7.3821,7.3223,7.2535,7.2834,7.2684,7.2361,7.1743,7.0719,6.9609,6.8755,6.8872,6.8868,0.0,0.0,0.0,0.0,0.0,0.0,0.0,0.0,0.0,0.0,0.0,0.0,0.0,5.491,0.0,0.0,5.4042,5.4221,5.4221,5.4221,5.4251,0.0,0.0,0.0,5.6286,5.8949,5.9997,5.9129,5.9967,6.0146,5.9668,6.0266,6.0924,6.1672,6.2271,6.272,6.3139,6.4156,6.4755,6.5054,6.6131,6.6851,6.7365,6.812,6.9211,7.0582,7.2023,7.2671,7.2796,5.7483,5.9398,6.1194,0.0,0.0,0.0,0.0,6.8824,0.0,7.3791,0.0,8.3068,8.3726,8.8394,9.1506,9.1506,0.0,8.8903,8.4773,8.7137,8.6299,8.0943,8.1003,7.9357,7.5467,7.1966,0.0,0.0,0.0,6.2038,6.0621,6.0638,6.0619,6.0701,6.1379,6.2641,6.4605,6.8273,7.1478,7.4091,7.3762,7.4091,7.4689,7.4121,7.3582,7.3253,7.3821,7.3971,7.4001,7.4659,7.448,7.4121,7.4689,7.4091,7.3283,7.3851,7.3133,7.2295,7.2864,7.2535,7.2026,7.2026,7.1517,7.0804,6.992,6.9652,6.9592,6.9592,6.7155,6.526,0.0,0.0,0.0,0.0,0.0,0.0,0.0,0.0,0.0,0.0,0.0,0.0,0.0,0.0,5.4221,5.4221,5.4221,0.0,0.0,0.0,0.0,5.5359,5.9488,6.0984,5.9518,0.0,6.0954,5.9518,6.0505,6.1014,6.1164,6.2391,6.3049,6.3228,6.3857,6.4515,6.5203,6.5862,6.652,6.73,6.884,6.9994,7.0847,7.1671,7.2104,7.2389,5.8112,6.0086,6.1583,0.0,0.0,6.9692,7.2295,7.5557,7.8549,8.0734,8.5282,8.8544,8.9202,9.019,9.0818,9.0818,9.0698,0.0,0.0,0.0,0.0,8.5581,8.4025,8.1601,7.819,7.3791,7.0543,0.0,0.0,6.1819,6.1997,6.0368,5.9758,5.9993,6.0671,6.2105,6.4114,6.6011,0.0,7.0171,7.1637,7.2984,7.4061,7.3941,7.4151,7.454,7.4659,7.436,7.4001,7.4659,7.4809,7.4719,7.4839,7.4719,7.454,7.4659,7.4151,7.3582,7.3702,7.3253,7.2744,7.2744,7.2206,7.1667,7.1493,7.1014,7.0624,7.0624,6.9336,6.7749,6.6281,0.0,0.0,0.0,0.0,0.0,0.0,0.0,0.0,0.0,0.0,0.0,0.0,0.0,0.0,0.0,0.0,0.0,0.0,0.0,0.0,0.0,5.8351,0.0,0.0,0.0,6.0266,6.1553,6.0685,6.0565,6.1134,6.1912,6.2839,6.3887,6.4545,6.5233,6.5892,6.655,6.7208,6.7929,6.8737,6.952,7.0243,7.1194,7.1564,7.1692,6.0685,6.1972,6.3438,0.0,0.0,0.0,0.0,8.0614,8.2858,8.1422,8.3786,8.5821,8.6479,8.8693,9.013,9.013,8.983,8.9352,8.8693,8.8364,8.7586,8.621,8.4594,0.0,7.8849,7.424,7.0474,6.7664,0.0,0.0,6.0593,5.993,5.9491,5.9316,6.0546,6.2103,0.0,0.0,0.0,6.9093,7.0021,7.1368,7.2804,7.2475,7.2535,7.2924,7.3612,7.3432,7.3013,7.4031,7.436,7.436,7.436,7.4121,7.3851,7.3851,7.3373,7.2774,7.2445,7.2355,7.2295,7.1966,7.1607,7.1368,7.1368,7.1128,7.0889,7.0889,6.9602,6.7657,6.4964,6.2121,0.0,0.0,0.0,0.0,0.0,0.0,0.0,0.0,0.0,0.0,0.0,0.0,0.0,0.0,0.0,0.0,0.0,0.0,0.0,0.0,0.0,0.0,0.0,0.0,0.0,6.0535,6.0595,6.0805,6.1134,6.2151,6.3109,6.4036,6.4725,6.5413,6.6071,6.7089,6.7897,6.8585,6.9243,6.9901,7.05,7.0993,7.1212,7.15,6.3558,6.4545,0.0,0.0,7.3103,0.0,7.9597,8.3816,8.5432,8.1961,8.2529,8.3457,8.3965,8.7287,8.9471,8.9471,8.8993,8.8394,8.7736,8.7706,8.7107,8.5761,8.4564,8.238,7.9088,7.4749,7.044,0.0,0.0,0.0,0.0,5.9316,5.9246,0.0,0.0,0.0,0.0,0.0,6.6403,6.8585,6.8884,7.0141,7.1816,7.1308,7.1188,7.1457,7.2535,7.2654,7.2445,7.3373,7.3702,7.3702,7.3702,7.3343,7.2954,7.3073,7.2535,7.1816,7.1427,7.1487,7.1547,7.1038,7.0889,7.0889,7.0889,7.0889,7.0889,7.0889,6.9333,6.7089,6.4216,6.251,0.0,0.0,0.0,0.0,0.0,0.0,0.0,0.0,0.0,0.0,0.0,0.0,0.0,0.0,0.0,0.0,0.0,0.0,0.0,0.0,0.0,6.0924,5.9757,0.0,6.0864,5.9757,6.0685,6.1104,6.1164,6.26,6.3617,6.4246,6.4934,6.5592,6.6311,6.7478,6.8375,6.9064,6.9722,7.035,7.0889,7.0889,7.1113,7.1371,0.0,0.0,0.0,0.0,0.0,0.0,8.0584,8.4115,8.6748,8.6958,8.7586,8.8065,8.8125,8.8514,8.8783,8.8783,8.8723,8.8394,8.7736,8.7706,8.7107,8.5761,8.5013,8.3098,7.9806,7.6365,7.2056,0.0,0.0,0.0,0.0,0.0,0.0,0.0,0.0,0.0,0.0,6.2862,6.4844,6.7298,6.8495,7.0141,7.1876,7.1816,7.2176,7.2744,7.2864,7.3253,7.3642,7.3163,7.3013,7.3013,7.3013,7.2954,7.3043,7.3642,7.2894,7.1996,7.2565,7.1876,7.0979,7.0919,7.0889,7.0889,7.0889,7.0889,7.0889,7.0889,6.9333,6.7508,6.6011,6.4186,6.248,0.0,0.0,0.0,0.0,0.0,0.0,0.0,0.0,0.0,0.0,5.4042,0.0,0.0,0.0,0.0,0.0,0.0,0.0,5.7004,0.0,6.0176,6.1792,6.0206,6.0206,6.1822,6.1343,6.1104,6.1164,6.3049,6.4276,6.4964,6.5622,6.6281,6.6939,6.7687,6.8375,6.9064,6.9722,7.035,7.0889,7.0889,7.0919,7.0954,0.0,0.0,0.0,0.0,0.0,0.0,0.0,8.4833,8.6329,8.6988,8.7676,8.8245,8.8634,8.8334,8.8095,8.8095,8.7706,8.7197,8.6539,8.6509,8.591,8.4564,8.3906,8.238,7.9866,7.6993,7.3103,0.0,0.0,0.0,0.0,0.0,0.0,0.0,0.0,6.0536,6.1391,6.3406,6.5323,6.7119,6.8465,6.9931,7.1308,7.1308,7.1457,7.1816,7.2624,7.2565,7.2176,7.2744,7.3163,7.3432,7.3043,7.2624,7.2355,7.2624,7.2295,7.1846,7.1727,7.1607,7.1398,7.1009,7.0889,7.0889,7.0889,7.0889,7.0889,7.0889,6.9662,6.8196,6.6849,6.4964,6.3348,0.0,0.0,0.0,0.0,0.0,0.0,0.0,0.0,0.0,0.0,0.0,0.0,0.0,0.0,0.0,0.0,0.0,0.0,5.7693,0.0,5.9488,6.0296,5.9488,5.9697,6.0894,6.1044,6.1313,6.1762,6.3288,6.4605,6.5652,6.6311,6.6969,6.7627,6.8315,6.8974,6.9662,7.029,7.0679,7.0889,7.0889,7.0889,7.0889,7.3672,0.0,7.454,0.0,7.9148,8.0494,8.4145,8.5282,8.5851,8.6329,8.6988,8.7586,8.8035,8.7676,8.7407,8.7407,8.6778,8.618,8.5731,8.5521,8.4923,8.3786,8.3098,0.0,7.9866,7.7442,7.4091,6.9842,6.7362,0.0,0.0,0.0,0.0,0.0,6.0721,6.1601,6.2391,6.4455,6.6191,6.7687,6.8824,6.9931,7.0919,7.1128,7.1188,7.1338,7.2505,7.2415,7.1936,7.2864,7.3522,7.3702,7.2654,7.1996,7.1637,7.1816,7.1757,7.1547,7.1278,7.1398,7.1487,7.1009,7.0889,7.0889,7.0889,7.0889,7.0859,7.0679,6.9752,6.8645,6.7478,6.5951,6.4545,6.3528,0.0,0.0,0.0,0.0,0.0,0.0,5.7184,5.6526,5.5927,0.0,0.0,0.0,0.0,0.0,0.0,0.0,0.0,0.0,0.0,0.0,0.0,5.9099,5.9428,6.0086,6.0775,6.1553,6.2421,6.3917,6.5323,6.661,6.7089,6.7657,6.8315,6.9004,6.9572,7.0051,7.0649,7.0889,7.0889,7.0889,7.0889,7.0889,7.5467,7.6365,7.7831,8.1153,8.226,8.3158,8.4504,8.5282,8.5701,8.5701,8.627,8.6689,8.6689,8.6689,8.6689,8.6689,8.609,8.5701,8.5701,8.5073,8.4444,0.0,0.0,8.1841,7.9866,7.7831,7.5168,7.1846,0.0,0.0,6.3391,0.0,6.1653,6.2091,6.275,6.3767,6.5024,6.5712,6.7148,6.9034,6.9692,7.035,7.0979,7.1637,7.1876,7.1966,7.2654,7.3313,7.3851,7.3881,7.3881,7.3552,7.1547,7.0919,7.1038,7.1697,7.1427,7.1038,7.1697,7.1398,7.0919,7.0889,7.0889,7.0889,7.0889,7.0889,7.0739,7.0111,6.9453,6.8794,6.8076,6.7418,6.6311,6.4306,0.0,0.0,0.0,0.0,0.0,0.0,5.7693,5.7334,5.5388,0.0,0.0,0.0,0.0,0.0,0.0,0.0,0.0,5.8112,5.877,0.0,5.9099,5.9099,5.9428,6.0086,6.0775,6.1792,6.3139,6.5084,6.67,6.7956,6.7956,6.8345,6.9034,6.9692,6.9961,7.0051,7.0649,7.0889,7.0889,7.0889,7.0889,7.0889,7.7438,7.7828,7.8521,8.0765,8.202,8.3068,8.3906,8.4235,8.4504,8.4983,8.5192,8.5521,8.597,8.6419,8.6689,0.0,8.609,8.5492,0.0,8.4414,8.3547,8.2439,8.22,8.1392,7.9866,7.831,7.6335,7.3911,0.0,0.0,0.0,6.4303,6.3676,6.3438,6.4575,6.5293,6.5772,6.6879,6.8495,7.032,7.053,7.1278,7.2295,7.2505,7.2595,7.2684,7.3343,7.3432,7.3283,7.3762,7.3283,7.2415,7.1757,7.1577,7.1607,7.1816,7.1427,7.0949,7.1158,7.1068,7.0889,7.0889,7.0889,7.0889,7.0889,7.0889,7.0859,7.0649,7.0111,6.9602,6.9393,6.7687,6.5951,6.4874,6.2869,0.0,0.0,0.0,0.0,0.0,5.7992,5.7693,0.0,5.6496,0.0,0.0,0.0,0.0,0.0,0.0,0.0,0.0,5.9009,0.0,5.9099,5.9548,6.0116,6.0805,6.1912,6.3378,6.5114,6.6191,6.7148,6.8048,6.8465,6.9064,6.9692,6.9901,7.0231,7.062,7.0829,7.0889,7.0889,7.0889,7.0889,7.0889,7.7695,7.8212,7.877,7.9676,8.1078,8.232,8.3217,8.3576,8.3876,8.4295,8.4564,8.4863,8.5282,8.591,0.0,8.6299,8.5492,8.4773,8.4384,8.3487,8.2619,8.1811,8.1302,8.0674,7.9836,0.0,0.0,7.5976,7.2834,6.9991,6.7478,6.6819,6.643,6.6281,6.7358,6.7837,6.7926,6.8974,7.0141,7.1308,7.1547,7.2146,7.2954,7.3193,7.3283,7.3373,7.4031,7.4001,7.3702,7.4121,7.3702,7.3013,7.3013,7.2654,7.2176,7.1667,7.1218,7.0889,7.0889,7.0889,7.0889,7.0889,7.0889,7.0889,7.0889,7.0709,7.062,7.0859,7.0201,6.9602,6.9602,6.7837,6.5981,6.4844,6.2869,6.1164,6.0206,0.0,0.0,0.0,0.0,0.0,0.0,5.7094,5.7094,0.0,0.0,0.0,0.0,0.0,0.0,5.9069,5.9099,0.0,5.9458,6.0146,6.0805,6.1493,6.3049,6.4575,6.6041,6.6939,6.7717,6.8405,6.9064,6.9722,7.032,7.032,7.056,7.0889,7.0889,7.0889,7.0889,7.0889,7.0889,7.0889,7.6363,7.7475,7.8537,0.0,7.9749,0.0,8.2589,8.3247,8.3606,8.3666,8.4145,8.4534,8.4624,8.5162,8.5521,8.5551,0.0,0.0,0.0,8.2499,8.1781,8.1781,8.0554,7.9866,7.9806,7.8489,7.7771,7.7682,7.3941,7.1517,7.029,6.9602,6.9542,7.0081,7.0709,7.0979,7.1009,7.1637,7.1936,7.2086,7.2714,7.3013,7.3133,7.3732,7.3971,7.4031,7.4659,7.4869,7.4869,7.4869,7.4839,7.4809,7.4809,7.3911,7.2595,7.1398,7.0979,7.0889,7.0889,7.0889,7.0889,7.0889,7.0889,7.0889,7.0889,7.047,7.0201,7.0769,6.9931,6.9064,6.9064,6.7897,6.6281,6.4306,6.2899,6.1553,6.0206,0.0,0.0,0.0,0.0,0.0,0.0,5.7214,5.7244,0.0,0.0,0.0,0.0,0.0,5.8441,5.9009,5.9129,5.9488,6.0146,6.0894,6.1613,6.2391,6.4276,6.5503,6.6191,6.7508,6.8465,6.9123,6.9752,7.038,7.0889,7.0889,7.0889,7.0889,7.0889,7.0889,7.0889,7.0889,7.0889,7.0889,0.0,0.0,7.6854,7.8098,8.0517,8.2409,8.2709,8.2469,8.2409,8.2918,8.2709,8.2858,8.3846,8.3666,8.3666,8.4145,8.4384,8.4265,8.3756,8.2499,8.1781,8.1781,8.1003,8.0345,7.9836,7.8489,7.7322,7.6365,7.4899,7.4031,7.3702,7.2535,7.1787,7.1427,7.1577,7.1637,7.1667,7.1816,7.2475,7.3432,7.3582,7.3971,7.442,7.4569,7.4629,7.4659,7.4809,7.4869,7.4869,7.4869,7.454,7.4121,7.4121,7.3223,7.2176,7.2385,7.1697,7.0889,7.0889,7.0889,7.0889,7.0889,7.0889,7.0889,7.0889,7.0799,7.0739,7.0859,7.029,6.9752,6.9752,6.7837,6.5742,6.4246,6.251,6.0864,5.9518,5.9189,0.0,0.0,5.856,5.862,5.7932,5.8351,5.862,0.0,0.0,0.0,0.0,5.877,5.871,5.8381,5.9338,6.0176,6.0864,6.2032,6.3438,6.5084,6.6071,6.6879,6.7537,6.8914,6.9602,6.9782,7.041,7.0769,7.0889,7.0889,7.0889,7.0889,7.0889,7.0889,7.0889,7.0889,7.0889,7.0889,7.3969,7.48,7.6029,7.835,8.0052,8.1515,8.2633,8.2469,8.235,8.2709,8.2439,8.2499,8.3217,8.3247,8.3217,8.3277,8.3606,8.3666,8.3307,8.235,8.1781,8.1781,8.0853,8.0045,7.9357,7.834,7.7322,7.6335,7.6245,7.6066,7.5736,7.5048,7.436,7.3732,7.3732,7.3552,7.3253,7.3253,7.3672,7.436,7.436,7.4569,7.4869,7.4869,7.4869,7.4869,7.4869,7.4869,7.4869,7.4869,7.4629,7.436,7.436,7.3642,7.2894,7.3253,7.2206,7.0889,7.0889,7.0889,7.0889,7.0889,7.0889,7.0889,7.0889,7.0889,7.0889,7.0889,7.041,6.9901,6.9602,6.7358,6.5114,6.3797,6.1942,6.0296,5.9249,5.886,0.0,5.859,5.8351,5.8291,5.853,5.862,5.877,5.9069,5.9099,0.0,5.868,5.9219,5.9398,5.9039,6.0027,6.1014,6.2002,6.3318,6.4964,6.6909,6.6969,6.7508,6.8465,6.9512,6.9991,7.0021,7.0649,7.0889,7.0889,7.0889,7.0889,7.0889,7.0889,7.0889,7.0889,7.0889,7.0889,7.0889,7.3892,7.4274,7.5357,7.8022,7.8781,7.9589,8.1704,8.2193,8.2316,8.2405,8.2497,8.2649,8.2814,8.3247,8.3367,8.2798,8.2844,8.2709,8.2694,8.1991,8.1572,8.1482,8.0315,7.9357,7.8639,7.7891,7.7293,7.6814,7.7293,7.7322,7.6963,7.6874,7.6544,7.6036,7.6036,7.5677,7.5018,7.5018,7.4958,7.4869,7.4869,7.4869,7.4869,7.4869,7.4869,7.4869,7.4869,7.4869,7.4869,7.4869,7.4869,7.4869,7.4869,7.436,7.3762,7.3881,7.2535,7.1038,7.1038,7.0979,7.0889,7.0889,7.0889,7.0889,7.0889,7.0889,7.0889,7.0889,7.041,6.9752,6.8974,6.6759,6.4575,6.3169,6.1343,5.9817,5.9069,0.0,5.8411,5.877,5.7962,5.7812,5.886,5.862,5.865,5.9219,5.9338,5.9159,5.859,5.9727,6.0446,6.0535,6.1104,6.2091,6.3498,6.4814,6.6311,6.7956,6.7597,6.8046,6.9183,6.9812,7.0111,7.0141,7.0679,7.0889,7.0889,7.0889,7.0889,7.0889,7.0889,7.0889,7.0889,7.0889,7.0889,7.0889,7.0365,7.2091,7.3705,7.4691,7.645,7.7901,7.8257,7.9106,7.9929,8.0483,8.1366,8.214,8.2784,8.2858,8.2858,8.2769,8.2844,8.2529,8.1961,8.1332,8.0704,8.0165,7.9357,7.8639,7.7981,7.6814,7.6395,7.6814,7.6395,7.6694,7.7652,7.7083,7.6784,7.6694,7.6694,7.6335,7.5736,7.5736,7.5407,7.4869,7.4869,7.4869,7.4869,7.4869,7.4869,7.4869,7.4869,7.4869,7.4869,7.4869,7.4869,7.4869,7.4869,7.4031,7.3163,7.3732,7.2864,7.1727,7.1727,7.1338,7.0889,7.0889,7.0889,7.0889,7.0889,7.0889,7.0889,7.0889,7.041,6.9602,6.8345,6.643,6.4425,6.254,6.1044,5.9668,5.8441,0.0,5.856,5.7543,5.8231,5.865,5.8321,5.9189,5.9817,5.9937,6.0475,6.0745,6.0655,6.1373,6.2032,6.26,6.272,6.3677,6.5533,6.6849,6.7657,6.7986,6.9034,6.9632,6.9842,7.047,7.0769,7.0769,7.0859,7.0889,7.0889,7.0889,7.0889,7.0889,7.0889,7.0889,7.0889,7.0889,7.0889,7.0889,7.1127,7.169,7.262,7.5379,7.6041,7.6401,7.7362,7.8751,7.9801,8.0091,8.1421,8.2559,8.3217,8.2978,8.2888,8.3247,8.2978,8.232,8.1332,8.1302,8.0883,7.9866,7.9507,7.8699,7.7322,7.6365,7.6215,7.6814,7.6904,7.7412,7.831,7.7652,7.7352,7.7352,7.6993,7.6664,7.6365,7.6036,7.5707,7.5407,7.5018,7.4869,7.4869,7.4869,7.4869,7.4869,7.4869,7.4869,7.4869,7.4869,7.4869,7.4869,7.4869,7.445,7.4031,7.433,7.3492,7.2355,7.1996,7.1667,7.1338,7.0979,7.0889,7.0889,7.0889,7.0889,7.0889,7.0889,7.0679,7.0081,6.8764,6.661,6.4725,6.3827,6.1373,0.0,0.0,5.9368,5.9009,5.874,5.9249,5.9787,6.0206,6.0805,6.1313,6.1672,6.2002,6.2181,6.2181,6.278,6.3438,6.4096,6.4485,6.5443,6.7059,6.7657,6.8345,6.9064,6.9692,7.0141,7.05,7.0769,7.0889,7.0889,7.0889,7.0889,7.0889,7.0889,7.0889,7.0889,7.0889,7.0889,7.0889,7.0889,7.0889,7.0889,7.2003,7.1566,7.1767,7.5598,7.5146,7.475,7.6068,7.777,7.8929,7.8929,8.0805,8.2201,8.2211,8.258,8.2796,8.289,8.2809,8.226,8.1093,8.1362,8.0883,7.9417,7.9058,7.819,7.6634,7.5976,7.6036,7.6814,7.7322,7.7981,7.8789,7.828,7.8041,7.8011,7.7502,7.7113,7.6784,7.6335,7.5946,7.5617,7.5078,7.4869,7.4869,7.4869,7.4869,7.4869,7.4869,7.4869,7.4869,7.4869,7.4869,7.4869,7.4869,7.4779,7.4689,7.4839,7.4151,7.3193,7.2355,7.2116,7.1996,7.1487,7.1248,7.1128,7.1128,7.1009,7.0889,7.0889,7.0889,7.05,6.9243,6.7089,6.5293,6.4665,0.0,0.0,0.0,6.0116,5.9817,6.0475,6.0685,6.1194,6.2211,6.245,6.275,6.3258,6.3438,6.3528,6.3528,6.4276,6.5084,6.5922,6.6281,6.6939,6.7956,6.8286,6.8944,6.9991,7.0141,7.044,7.0889,7.0889,7.0889,7.0889,7.0889,7.0889,7.0889,7.0889,7.0889,7.0889,7.0889,7.0889,7.0889,7.0889,7.0889,7.0889,7.0402,7.0684,7.105,7.2437,7.2533,7.256,7.2621,7.4181,7.523,7.523,7.8176,7.9675,7.8152,8.0834,8.213,8.0522,8.187,8.2469,8.1751,8.1183,8.0016,7.8041,7.6814,7.6125,7.5976,7.5288,7.5557,7.6814,7.6874,7.7562,7.8789,7.8729,7.8729,7.8699,7.8669,7.7981,7.6814,7.6784,7.6066,7.4958,7.4899,7.4869,7.4869,7.4869,7.4869,7.4869,7.4869,7.4869,7.4869,7.4869,7.4869,7.4869,7.4869,7.445,7.4091,7.4689,7.4809,7.445,7.3193,7.2834,7.2834,7.2774,7.2295,7.1816,7.1816,7.1338,7.0889,7.0889,7.0889,7.05,6.9243,6.7807,6.6041,6.3617,0.0,0.0,6.0236,6.0625,6.1194,6.1882,6.248,6.2899,6.2989,6.3528,6.3887,6.3917,6.4515,6.4874,6.4874,6.6071,6.7358,6.8675,6.8136,6.7867,6.7956,6.9213,6.9871,6.9991,7.056,7.0859,7.0889,7.0889,7.0889,7.0889,7.0889,7.0889,7.0889,7.0889,7.0889,7.0889,7.0889,7.0889,7.0889,7.0889,7.0889,7.0889,6.9684,7.0337,7.0834,7.1618,7.2062,7.2297,7.2297,7.378,7.492,7.492,7.6952,7.8399,7.8142,7.8654,7.9292,8.0012,8.0425,8.0576,8.057,8.0704,7.9896,7.7891,7.6574,7.5916,7.5916,7.5228,7.5318,7.6245,7.6245,7.6694,7.7562,7.7562,7.7801,7.819,7.819,7.7921,7.7442,7.7442,7.6904,7.6066,7.5677,7.5527,7.5467,7.5048,7.4869,7.4869,7.4869,7.4869,7.4929,7.5377,7.5228,7.4958,7.5377,7.5048,7.454,7.4809,7.4869,7.4779,7.427,7.3821,7.3432,7.3013,7.2385,7.1876,7.1876,7.1368,7.0889,7.0889,7.0889,7.0649,6.9782,6.8495,6.7268,6.6281,0.0,6.2959,6.3139,6.3019,6.2989,6.3258,6.3887,6.4455,6.4844,6.5114,6.5592,6.64,6.67,6.7029,6.7478,6.8345,6.8884,6.9004,6.9512,6.9602,6.9213,6.9722,7.0171,7.056,7.0799,7.0889,7.0889,7.0889,7.0889,7.0889,7.0889,7.0889,7.0889,7.0889,7.0889,7.0889,7.0889,7.0889,7.0889,7.0889,7.0889,7.0889,6.9344,7.0023,7.0494,7.1043,7.1487,7.1775,7.1775,7.2891,7.3801,7.3801,7.5349,7.6318,7.626,7.6366,7.6892,7.8077,7.8702,7.9178,7.9589,8.0169,7.9597,7.7592,7.6485,7.5796,7.5587,7.5108,7.5228,7.5916,7.6096,7.6514,7.7143,7.7143,7.7382,7.7801,7.7801,7.7682,7.7502,7.7711,7.7442,7.6784,7.6155,7.5916,7.5826,7.5138,7.4869,7.4869,7.4869,7.4869,7.4958,7.5437,7.5258,7.4958,7.5437,7.5258,7.4869,7.4869,7.4869,7.4869,7.4869,7.454,7.4091,7.3642,7.3013,7.2505,7.2505,7.1996,7.1487,7.1248,7.1218,7.1009,7.038,6.9363,6.8465,6.8046,6.6281,6.5114,6.5562,6.5233,6.5084,6.5533,6.5981,6.646,6.6909,6.6939,6.7328,6.8226,6.8286,6.8585,6.9273,6.9722,6.9871,6.9602,7.044,7.0709,7.026,7.026,7.05,7.0889,7.0889,7.0889,7.0889,7.0889,7.0889,7.0889,7.0889,7.0889,7.0889,7.0889,7.0889,7.0889,7.0889,7.0889,7.0889,7.0889,7.0889,7.0889,6.9344,6.9684,6.9893,7.0494,7.0598,7.0598,7.0598,7.1069,7.1409,7.1409,7.293,7.3353,7.1555,7.4061,7.5281,7.4083,7.6595,7.8524,7.9133,7.9574,7.8908,7.6933,7.6245,7.5587,7.4899,7.4899,7.5228,7.5916,7.6514,7.7143,7.7801,7.7801,7.7801,7.7801,7.7801,7.7442,7.6874,7.7532,7.7412,7.6754,7.6155,7.5916,7.5826,7.5138,7.4869,7.4899,7.4869,7.4869,7.4899,7.4899,7.4869,7.4869,7.4869,7.4869,7.4869,7.4869,7.4869,7.4869,7.4869,7.4869,7.4869,7.4869,7.439,7.3881,7.3881,7.3402,7.2714,7.2026,7.1906,7.1697,7.1038,7.041,6.9572,6.8196,6.7448,6.6999,6.6999,6.6999,6.7508,6.8854,6.9004,6.9004,6.9004,6.9004,6.9004,6.9004,6.9004,6.9303,6.9961,6.9991,7.026,7.0889,7.0889,7.0889,7.0889,7.0889,7.0889,7.0889,7.0889,7.0889,7.0889,7.0889,7.0889,7.0889,7.0889,7.0889,7.0889,7.0889,7.0889,7.0889,7.0889,7.0889,7.0889,7.0889,7.0889,7.0889,6.8926,6.9422,6.9762,6.9919,7.0311,7.0729,7.1095,7.1304,7.1409,7.1409,7.2268,7.2434,7.1521,7.1884,7.2489,7.3317,7.3784,7.5188,7.775,7.8627,7.8639,7.7562,7.6904,7.6245,7.5617,7.5587,7.5707,7.5916,7.6096,7.6036,7.5766,7.6245,7.6485,7.6485,7.6933,7.6784,7.6215,7.6844,7.6754,7.6155,7.5976,7.5916,7.5826,7.5138,7.5168,7.5527,7.5048,7.5198,7.5587,7.5587,7.5288,7.4869,7.4869,7.4869,7.4869,7.4869,7.4869,7.4869,7.4869,7.4869,7.4869,7.4869,7.439,7.3881,7.3881,7.3402,7.2864,7.2654,7.2984,7.2954,7.1816,7.1846,7.1457,6.9662,6.9213,6.8914,6.8465,6.8405,6.8555,6.8944,6.9004,6.9004,6.9004,6.9004,6.9183,6.9662,7.0081,7.041,7.062,7.062,7.0709,7.0889,7.0889,7.0889,7.0889,7.0889,7.0889,7.0889,7.0889,7.0889,7.0889,7.0889,7.0889,7.0889,7.0889,7.0889,7.0889,7.0889,7.0889,7.0889,7.0889,7.0889,7.0889,7.0889,7.0889,7.0889,6.8743,6.9318,6.9684,6.9684,6.9997,7.0337,7.0677,7.0729,7.0729,7.0729,7.1043,7.1121,7.0755,7.0232,7.0499,7.1991,7.2418,7.3558,7.5726,7.7148,7.7489,7.6838,7.7295,7.7083,7.5916,7.5916,7.5766,7.5497,7.5766,7.5826,7.5647,7.6066,7.6275,7.6275,7.6664,7.6485,7.5946,7.6574,7.6604,7.6275,7.6275,7.6125,7.5886,7.5707,7.5766,7.5886,7.5707,7.5916,7.6275,7.6275,7.5826,7.5228,7.4958,7.4869,7.4869,7.4869,7.4869,7.4929,7.5198,7.5288,7.5288,7.5288,7.4779,7.43,7.43,7.3971,7.3612,7.3343,7.3612,7.3552,7.2475,7.2415,7.2116,7.0919,7.05,7.0201,6.9812,6.9752,6.9752,6.9752,6.9752,6.9752,6.9752,6.9752,6.9931,7.032,7.0679,7.0889,7.0889,7.0889,7.0889,7.0889,7.0889,7.0889,7.0889,7.0889,7.0889,7.0889,7.0889,7.0889,7.0889,7.0889,7.0889,7.0889,7.0889,7.0889,7.0889,7.0889,7.0889,7.0889,7.0889,7.0889,7.0889,7.0889,7.0889,7.0889,6.8795,6.9396,6.9788,6.9788,6.9788,6.9788,6.9788,6.9788,6.9762,6.971,6.9736,6.9762,6.971,6.9239,6.9344,7.0415,7.1994,7.3157,7.3589,7.5126,7.5877,7.5372,7.7459,7.7778,7.6125,7.6125,7.5826,7.5138,7.5707,7.6275,7.6814,7.6754,7.6754,7.6754,7.6754,7.6395,7.5856,7.6485,7.6754,7.6754,7.6814,7.6485,7.6036,7.6604,7.6514,7.6125,7.6634,7.6874,7.6904,7.6844,7.6455,7.5856,7.5198,7.4958,7.4958,7.4899,7.4929,7.5108,7.5736,7.5946,7.5976,7.5976,7.5467,7.4958,7.4899,7.4869,7.4719,7.4121,7.4031,7.3851,7.3133,7.2535,7.2086,7.1906,7.1398,7.0979,7.0919,7.0889,7.0889,7.0889,7.0889,7.0889,7.0889,7.0889,7.0889,7.0889,7.0889,7.0889,7.0889,7.0889,7.0889,7.0889,7.0889,7.0889,7.0889,7.0889,7.0889,7.0889,7.0889,7.0889,7.0889,7.0889,7.0889,7.0889,7.0889,7.0889,7.0889,7.0889,7.0889,7.0889,7.0889,7.0889,7.0889,7.0889,7.0889,7.0889,6.9396,6.9997,7.0389,7.0389,7.0389,7.0389,7.0389,7.0389,7.0232,6.9762,7.0102,7.0206,6.9736,6.9579,6.9605,6.9866,7.0978,7.1771,7.182,7.3427,7.4839,7.601,7.6529,7.7049,7.7412,7.7891,7.7831,7.7173,7.6814,7.6694,7.6814,7.6335,7.6096,7.6096,7.6096,7.5736,7.5138,7.5826,7.6096,7.6155,7.6634,7.6754,7.6634,7.6784,7.7053,7.7352,7.6963,7.7173,7.7502,7.6993,7.6724,7.6514,7.5886,7.5677,7.5587,7.5018,7.5258,7.5707,7.5856,7.6245,7.6634,7.6634,7.6155,7.5557,7.4988,7.4869,7.4839,7.4689,7.5078,7.5108,7.3911,7.3971,7.3702,7.2146,7.1757,7.1487,7.0979,7.0889,7.0889,7.0889,7.0889,7.0889,7.0889,7.0889,7.0889,7.0889,7.0889,7.0889,7.0889,7.0889,7.0889,7.0889,7.0889,7.0889,7.0889,7.0889,7.0889,7.0889,7.0889,7.0889,7.0889,7.0889,7.0889,7.0889,7.0889,7.0889,7.0889,7.0889,7.0889,7.0889,7.0889,7.0889,7.0889,7.0889,7.0889,7.0889,6.9579,7.018,7.0677,7.0938,7.099,7.0886,7.0624,7.0363,6.9945,6.937,6.9579,6.9631,6.9318,6.9291,6.9291,6.9291,7.0047,7.0384,7.0118,7.1632,7.3348,7.5049,7.6201,7.7238,7.828,7.8938,7.8639,7.7352,7.6993,7.6993,7.7293,7.6634,7.6335,7.6335,7.6036,7.5707,7.5377,7.5407,7.5617,7.5946,7.6574,7.6664,7.6485,7.7412,7.7771,7.7801,7.7771,7.7981,7.813,7.7143,7.7023,7.7143,7.6185,7.5916,7.5826,7.5467,7.5377,7.5557,7.6185,7.6574,7.6814,7.6814,7.6574,7.6185,7.5527,7.5108,7.4869,7.4869,7.5168,7.5198,7.448,7.439,7.3971,7.2595,7.2116,7.1667,7.1009,7.0889,7.0889,7.0889,7.0889,7.0889,7.0889,7.0889,7.0889,7.0889,7.0889,7.0889,7.0889,7.0889,7.0889,7.0889,7.0889,7.0889,7.0889,7.0889,7.0889,7.0889,7.0889,7.0889,7.0889,7.0889,7.0889,7.0889,7.0889,7.0889,7.0889,7.0889,7.0889,7.0889,7.0889,7.0889,7.0889,7.0889,7.0889,7.0889,6.9782,7.0382,7.1017,7.1487,7.1461,7.1226,7.0677,7.0076,6.9474,6.8926,6.8764,6.8764,6.8764,6.8764,6.8764,6.8764,6.9291,6.9344,6.879,7.0091,7.1632,7.327,7.5255,7.6915,7.8325,7.8963,7.8529,7.7173,7.7053,7.7322,7.7951,7.7203,7.6814,7.6814,7.6185,7.5826,7.5707,7.5258,7.5437,7.6125,7.6754,7.6754,7.6574,7.819,7.846,7.8041,7.8579,7.8789,7.8609,7.7412,7.7442,7.7741,7.6335,7.6066,7.6155,7.5826,7.5497,7.5437,7.6544,7.6904,7.6993,7.6993,7.6904,7.6694,7.6185,7.5437,7.4869,7.4869,7.4869,7.4869,7.4869,7.442,7.3851,7.3193,7.2595,7.1966,7.1188,7.1068,7.1038,7.0919,7.0889,7.0889,7.0889,7.0889,7.0889,7.0889,7.0889,7.0889,7.0889,7.0889,7.0889,7.0889,7.0889,7.0889,7.0889,7.0889,7.0889,7.0889,7.0889,7.0889,7.0889,7.0889,7.0889,7.0889,7.0889,7.0889,7.0889,7.0889,7.0889,7.0889,7.0889,7.0889,7.0889,7.0889,7.0889,7.0889,7.0438,7.1383,7.2088,7.2167,7.1748,7.1226,7.0677,7.0076,6.9474,6.8926,6.8764,6.8764,6.8764,6.8764,6.8764,6.8764,6.8899,6.8926,6.8764,6.8988,6.9845,7.1552,7.1955,7.351,7.6542,7.6704,7.7313,7.8519,7.7951,7.8011,7.8639,7.7412,7.6814,7.6814,7.6185,7.5587,7.5048,7.5557,7.6125,7.6754,7.7412,7.7981,7.843,7.8699,7.8729,7.8669,7.8759,7.8789,7.8669,7.7921,7.81,7.834,7.6485,7.6664,7.7203,7.5527,7.5736,7.6604,7.6784,7.7233,7.7682,7.7682,7.7263,7.6814,7.6724,7.5766,7.4869,7.4869,7.4869,7.4869,7.4869,7.4809,7.454,7.3881,7.3672,7.3193,7.1936,7.1757,7.1547,7.0979,7.0889,7.0889,7.0889,7.0889,7.0889,7.0889,7.0889,7.0889,7.0889,7.0889,7.0889,7.0889,7.0889,7.0889,7.0889,7.0889,7.0889,7.0889,7.0889,7.0889,7.0889,7.0889,7.0889,7.0889,7.0889,7.0889,7.0889,7.0889,7.0889,7.0889,7.0889,7.0889,7.0889,7.0889,7.0889,7.0889,6.9721,7.0194,7.0652,7.0937,7.1044,7.0854,7.0334,6.9906,6.9474,6.8926,6.8764,6.8764,6.8764,6.8764,6.8764,6.8764,6.8764,6.8764,6.8764,6.8764,6.9542,7.1257,7.1338,7.243,7.482,7.5837,7.6691,7.7387,7.8027,7.8519,7.8759,7.7442,7.6814,7.6784,7.5766,7.5377,7.5467,7.5766,7.6485,7.7412,7.7682,7.819,7.8789,7.8789,7.8789,7.8789,7.8789,7.8789,7.8699,7.8041,7.825,7.8519,7.6933,7.7053,7.7502,7.5916,7.6096,7.6814,7.6814,7.7322,7.7801,7.7801,7.7322,7.6724,7.6395,7.5557,7.4988,7.5377,7.5437,7.5318,7.4958,7.4869,7.4659,7.4001,7.3881,7.3552,7.2595,7.2116,7.1637,7.0979,7.0889,7.1038,7.1427,7.1128,7.1068,7.1427,7.1098,7.0889,7.0889,7.0889,7.0889,7.0889,7.0889,7.0889,7.0889,7.0889,7.0889,7.0889,7.0889,7.0889,7.0889,7.0889,7.0889,7.0889,7.0889,7.0889,7.0889,7.0889,7.0889,7.0889,7.0889,7.0889,7.0889,7.0889,7.0889,7.0889]}]]